Wetterdaten: Sonntag, 01.10.2017
Datum Zeit Temp. A. Pool Temp. Feuchte A. Luftdruck Regen Wind Richtung Richtung Sonnenschein ET UV Solar Taupunkt Windchill Windben Empfang
01.10.2017 00:00 10,2 C 13,3 C 80 % 1016,1 hPa 0,0 l/m 4,8 km/h (1 Bft) NO 55 0 min 0,000 mm 0,0 UV-I 0 W/m 6,9 C 10,2 C 8,0 km/h (2 Bft) 100,00 %
01.10.2017 00:02 10,2 C 13,3 C 81 % 1016,1 hPa 0,0 l/m 3,7 km/h (1 Bft) NO 56 0 min 0,000 mm 0,0 UV-I 0 W/m 7,1 C 10,2 C 6,4 km/h (2 Bft) 94,44 %
01.10.2017 00:04 10,1 C 13,3 C 81 % 1016,1 hPa 0,0 l/m 3,6 km/h (1 Bft) NO 56 0 min 0,000 mm 0,0 UV-I 0 W/m 7,0 C 10,1 C 6,4 km/h (2 Bft) 100,00 %
01.10.2017 00:06 10,1 C 13,3 C 81 % 1016,1 hPa 0,0 l/m 3,6 km/h (1 Bft) NO 49 0 min 0,000 mm 0,0 UV-I 0 W/m 7,0 C 10,1 C 6,4 km/h (2 Bft) 94,12 %
01.10.2017 00:08 10,0 C 13,3 C 81 % 1016,1 hPa 0,0 l/m 4,7 km/h (1 Bft) O-NO 62 0 min 0,000 mm 0,0 UV-I 0 W/m 6,9 C 10,0 C 8,0 km/h (2 Bft) 97,87 %
01.10.2017 00:10 10,0 C 13,3 C 81 % 1016,1 hPa 0,0 l/m 3,9 km/h (1 Bft) NO 53 0 min 0,000 mm 0,0 UV-I 0 W/m 6,9 C 10,0 C 6,4 km/h (2 Bft) 97,92 %
01.10.2017 00:12 9,9 C 13,3 C 81 % 1016,1 hPa 0,0 l/m 3,2 km/h (1 Bft) O-NO 67 0 min 0,000 mm 0,0 UV-I 0 W/m 6,8 C 9,9 C 4,8 km/h (1 Bft) 95,74 %
01.10.2017 00:14 9,9 C 13,3 C 81 % 1016,1 hPa 0,0 l/m 3,8 km/h (1 Bft) O 82 0 min 0,000 mm 0,0 UV-I 0 W/m 6,8 C 9,9 C 6,4 km/h (2 Bft) 100,00 %
01.10.2017 00:16 9,9 C 13,3 C 81 % 1016,1 hPa 0,0 l/m 2,9 km/h (1 Bft) O 82 0 min 0,000 mm 0,0 UV-I 0 W/m 6,8 C 9,9 C 4,8 km/h (1 Bft) 97,87 %
01.10.2017 00:18 9,9 C 13,3 C 81 % 1016,1 hPa 0,0 l/m 4,4 km/h (1 Bft) O-NO 61 0 min 0,000 mm 0,0 UV-I 0 W/m 6,8 C 9,9 C 6,4 km/h (2 Bft) 95,74 %
01.10.2017 00:20 9,9 C 13,3 C 81 % 1016,1 hPa 0,0 l/m 3,8 km/h (1 Bft) O-NO 61 0 min 0,000 mm 0,0 UV-I 0 W/m 6,8 C 9,9 C 4,8 km/h (1 Bft) 97,87 %
01.10.2017 00:22 10,0 C 13,3 C 81 % 1016,0 hPa 0,0 l/m 5,0 km/h (1 Bft) O-NO 63 0 min 0,000 mm 0,0 UV-I 0 W/m 6,9 C 10,0 C 6,4 km/h (2 Bft) 98,00 %
01.10.2017 00:24 10,1 C 13,3 C 81 % 1016,0 hPa 0,0 l/m 4,7 km/h (1 Bft) O-NO 64 0 min 0,000 mm 0,0 UV-I 0 W/m 7,0 C 10,1 C 6,4 km/h (2 Bft) 95,74 %
01.10.2017 00:26 10,1 C 13,3 C 81 % 1016,1 hPa 0,0 l/m 3,2 km/h (1 Bft) O-NO 64 0 min 0,000 mm 0,0 UV-I 0 W/m 7,0 C 10,1 C 4,8 km/h (1 Bft) 93,62 %
01.10.2017 00:28 9,9 C 13,3 C 82 % 1016,1 hPa 0,0 l/m 2,8 km/h (1 Bft) O-NO 64 0 min 0,000 mm 0,0 UV-I 0 W/m 7,0 C 9,9 C 6,4 km/h (2 Bft) 95,74 %
01.10.2017 00:30 9,9 C 13,3 C 82 % 1016,1 hPa 0,0 l/m 2,0 km/h (1 Bft) O-NO 64 0 min 0,000 mm 0,0 UV-I 0 W/m 7,0 C 9,9 C 4,8 km/h (1 Bft) 97,37 %
01.10.2017 00:32 9,8 C 13,3 C 82 % 1016,1 hPa 0,0 l/m 2,1 km/h (1 Bft) O-NO 64 0 min 0,000 mm 0,0 UV-I 0 W/m 6,9 C 9,8 C 3,2 km/h (1 Bft) 97,87 %
01.10.2017 00:34 9,9 C 13,3 C 82 % 1016,1 hPa 0,0 l/m 1,9 km/h (1 Bft) O-NO 64 0 min 0,000 mm 0,0 UV-I 0 W/m 7,0 C 9,9 C 3,2 km/h (1 Bft) 97,87 %
01.10.2017 00:36 9,9 C 13,3 C 82 % 1016,1 hPa 0,0 l/m 2,4 km/h (1 Bft) O-NO 64 0 min 0,000 mm 0,0 UV-I 0 W/m 7,0 C 9,9 C 4,8 km/h (1 Bft) 97,87 %
01.10.2017 00:38 10,0 C 13,3 C 82 % 1016,1 hPa 0,0 l/m 1,0 km/h (0 Bft) O-NO 64 0 min 0,000 mm 0,0 UV-I 0 W/m 7,1 C 10,0 C 3,2 km/h (1 Bft) 92,00 %
01.10.2017 00:40 10,0 C 13,3 C 82 % 1016,2 hPa 0,0 l/m 1,0 km/h (0 Bft) O-NO 64 0 min 0,000 mm 0,0 UV-I 0 W/m 7,1 C 10,0 C 3,2 km/h (1 Bft) 95,74 %
01.10.2017 00:42 10,1 C 13,3 C 81 % 1016,2 hPa 0,0 l/m 0,3 km/h (0 Bft) O-NO 64 0 min 0,000 mm 0,0 UV-I 0 W/m 7,0 C 10,1 C 1,6 km/h (1 Bft) 97,87 %
01.10.2017 00:44 10,1 C 13,3 C 81 % 1016,1 hPa 0,0 l/m 0,8 km/h (0 Bft) O-NO 64 0 min 0,000 mm 0,0 UV-I 0 W/m 7,0 C 10,1 C 3,2 km/h (1 Bft) 97,87 %
01.10.2017 00:46 10,0 C 13,3 C 82 % 1016,2 hPa 0,0 l/m 2,0 km/h (1 Bft) O-NO 64 0 min 0,000 mm 0,0 UV-I 0 W/m 7,1 C 10,0 C 3,2 km/h (1 Bft) 97,87 %
01.10.2017 00:48 10,0 C 13,3 C 82 % 1016,2 hPa 0,0 l/m 2,2 km/h (1 Bft) O-NO 64 0 min 0,000 mm 0,0 UV-I 0 W/m 7,1 C 10,0 C 4,8 km/h (1 Bft) 97,87 %
01.10.2017 00:50 9,9 C 13,3 C 81 % 1016,2 hPa 0,0 l/m 2,1 km/h (1 Bft) O-NO 64 0 min 0,000 mm 0,0 UV-I 0 W/m 6,8 C 9,9 C 4,8 km/h (1 Bft) 97,87 %
01.10.2017 00:52 9,9 C 13,3 C 82 % 1016,2 hPa 0,0 l/m 1,1 km/h (1 Bft) O-NO 64 0 min 0,000 mm 0,0 UV-I 0 W/m 7,0 C 9,9 C 3,2 km/h (1 Bft) 100,00 %
01.10.2017 00:54 9,9 C 13,3 C 82 % 1016,3 hPa 0,0 l/m 0,1 km/h (0 Bft) O-NO 64 0 min 0,000 mm 0,0 UV-I 0 W/m 7,0 C 9,9 C 1,6 km/h (1 Bft) 100,00 %
01.10.2017 00:56 9,8 C 13,3 C 82 % 1016,3 hPa 0,0 l/m 0,7 km/h (0 Bft) O-NO 64 0 min 0,000 mm 0,0 UV-I 0 W/m 6,9 C 9,8 C 3,2 km/h (1 Bft) 97,87 %
01.10.2017 00:58 9,8 C 13,3 C 82 % 1016,4 hPa 0,0 l/m 0,0 km/h (0 Bft) O-NO 64 0 min 0,000 mm 0,0 UV-I 0 W/m 6,9 C 9,8 C 0,0 km/h (0 Bft) 95,74 %
01.10.2017 01:00 9,7 C 13,3 C 82 % 1016,3 hPa 0,0 l/m 0,0 km/h (0 Bft) O-NO 64 0 min 0,000 mm 0,0 UV-I 0 W/m 6,8 C 9,7 C 0,0 km/h (0 Bft) 100,00 %
01.10.2017 01:02 9,6 C 13,3 C 83 % 1016,3 hPa 0,0 l/m 0,0 km/h (0 Bft) O-NO 64 0 min 0,000 mm 0,0 UV-I 0 W/m 6,9 C 9,6 C 0,0 km/h (0 Bft) 100,00 %
01.10.2017 01:04 9,6 C 13,3 C 83 % 1016,3 hPa 0,0 l/m 0,0 km/h (0 Bft) O-NO 64 0 min 0,000 mm 0,0 UV-I 0 W/m 6,9 C 9,6 C 0,0 km/h (0 Bft) 97,87 %
01.10.2017 01:06 9,6 C 13,3 C 84 % 1016,3 hPa 0,0 l/m 0,0 km/h (0 Bft) O-NO 64 0 min 0,000 mm 0,0 UV-I 0 W/m 7,0 C 9,6 C 1,6 km/h (1 Bft) 100,00 %
01.10.2017 01:08 9,5 C 13,3 C 84 % 1016,3 hPa 0,0 l/m 1,4 km/h (1 Bft) O-NO 64 0 min 0,000 mm 0,0 UV-I 0 W/m 6,9 C 9,5 C 3,2 km/h (1 Bft) 100,00 %
01.10.2017 01:10 9,4 C 13,3 C 84 % 1016,3 hPa 0,0 l/m 1,2 km/h (1 Bft) O-NO 64 0 min 0,000 mm 0,0 UV-I 0 W/m 6,8 C 9,4 C 1,6 km/h (1 Bft) 100,00 %
01.10.2017 01:12 9,4 C 13,3 C 84 % 1016,3 hPa 0,0 l/m 1,5 km/h (1 Bft) O-NO 64 0 min 0,000 mm 0,0 UV-I 0 W/m 6,8 C 9,4 C 3,2 km/h (1 Bft) 97,87 %
01.10.2017 01:14 9,4 C 13,3 C 84 % 1016,3 hPa 0,0 l/m 1,0 km/h (0 Bft) O-NO 64 0 min 0,000 mm 0,0 UV-I 0 W/m 6,8 C 9,4 C 1,6 km/h (1 Bft) 100,00 %
01.10.2017 01:16 9,4 C 13,3 C 84 % 1016,3 hPa 0,0 l/m 0,1 km/h (0 Bft) O-NO 64 0 min 0,000 mm 0,0 UV-I 0 W/m 6,8 C 9,4 C 1,6 km/h (1 Bft) 100,00 %
01.10.2017 01:18 9,4 C 13,3 C 84 % 1016,3 hPa 0,0 l/m 0,3 km/h (0 Bft) O-NO 64 0 min 0,000 mm 0,0 UV-I 0 W/m 6,8 C 9,4 C 1,6 km/h (1 Bft) 100,00 %
01.10.2017 01:20 9,4 C 13,3 C 84 % 1016,4 hPa 0,0 l/m 0,6 km/h (0 Bft) O-NO 64 0 min 0,000 mm 0,0 UV-I 0 W/m 6,8 C 9,4 C 1,6 km/h (1 Bft) 100,00 %
01.10.2017 01:22 9,4 C 13,3 C 84 % 1016,3 hPa 0,0 l/m 0,0 km/h (0 Bft) O-NO 64 0 min 0,000 mm 0,0 UV-I 0 W/m 6,8 C 9,4 C 0,0 km/h (0 Bft) 100,00 %
01.10.2017 01:24 9,3 C 13,3 C 85 % 1016,4 hPa 0,0 l/m 0,0 km/h (0 Bft) O-NO 64 0 min 0,000 mm 0,0 UV-I 0 W/m 6,9 C 9,3 C 0,0 km/h (0 Bft) 100,00 %
01.10.2017 01:26 9,2 C 13,3 C 85 % 1016,4 hPa 0,0 l/m 0,0 km/h (0 Bft) O-NO 64 0 min 0,000 mm 0,0 UV-I 0 W/m 6,8 C 9,2 C 0,0 km/h (0 Bft) 100,00 %
01.10.2017 01:28 9,1 C 13,3 C 85 % 1016,4 hPa 0,0 l/m 0,9 km/h (0 Bft) O-NO 64 0 min 0,000 mm 0,0 UV-I 0 W/m 6,7 C 9,1 C 1,6 km/h (1 Bft) 97,87 %
01.10.2017 01:30 9,1 C 13,3 C 86 % 1016,4 hPa 0,0 l/m 0,2 km/h (0 Bft) O-NO 64 0 min 0,000 mm 0,0 UV-I 0 W/m 6,9 C 9,1 C 1,6 km/h (1 Bft) 100,00 %
01.10.2017 01:32 9,1 C 13,3 C 86 % 1016,4 hPa 0,0 l/m 0,0 km/h (0 Bft) O-NO 64 0 min 0,000 mm 0,0 UV-I 0 W/m 6,9 C 9,1 C 0,0 km/h (0 Bft) 100,00 %
01.10.2017 01:34 9,1 C 13,3 C 85 % 1016,4 hPa 0,0 l/m 0,0 km/h (0 Bft) O-NO 64 0 min 0,000 mm 0,0 UV-I 0 W/m 6,7 C 9,1 C 0,0 km/h (0 Bft) 97,87 %
01.10.2017 01:36 9,1 C 13,3 C 85 % 1016,5 hPa 0,0 l/m 0,0 km/h (0 Bft) O-NO 64 0 min 0,000 mm 0,0 UV-I 0 W/m 6,7 C 9,1 C 0,0 km/h (0 Bft) 100,00 %
01.10.2017 01:38 9,1 C 13,3 C 85 % 1016,4 hPa 0,0 l/m 0,0 km/h (0 Bft) O-NO 64 0 min 0,000 mm 0,0 UV-I 0 W/m 6,7 C 9,1 C 0,0 km/h (0 Bft) 100,00 %
01.10.2017 01:40 9,1 C 13,3 C 85 % 1016,5 hPa 0,0 l/m 0,0 km/h (0 Bft) O-NO 64 0 min 0,000 mm 0,0 UV-I 0 W/m 6,7 C 9,1 C 0,0 km/h (0 Bft) 100,00 %
01.10.2017 01:42 8,9 C 13,3 C 86 % 1016,5 hPa 0,0 l/m 1,0 km/h (0 Bft) O-NO 64 0 min 0,000 mm 0,0 UV-I 0 W/m 6,7 C 8,9 C 1,6 km/h (1 Bft) 100,00 %
01.10.2017 01:44 8,9 C 13,3 C 86 % 1016,5 hPa 0,0 l/m 0,3 km/h (0 Bft) O-NO 64 0 min 0,000 mm 0,0 UV-I 0 W/m 6,7 C 8,9 C 1,6 km/h (1 Bft) 100,00 %
01.10.2017 01:46 8,9 C 13,3 C 86 % 1016,5 hPa 0,0 l/m 0,0 km/h (0 Bft) O-NO 64 0 min 0,000 mm 0,0 UV-I 0 W/m 6,7 C 8,9 C 0,0 km/h (0 Bft) 100,00 %
01.10.2017 01:48 8,7 C 13,3 C 86 % 1016,6 hPa 0,0 l/m 0,0 km/h (0 Bft) O-NO 64 0 min 0,000 mm 0,0 UV-I 0 W/m 6,5 C 8,7 C 0,0 km/h (0 Bft) 95,74 %
01.10.2017 01:50 8,6 C 13,3 C 87 % 1016,6 hPa 0,0 l/m 0,0 km/h (0 Bft) O-NO 64 0 min 0,000 mm 0,0 UV-I 0 W/m 6,6 C 8,6 C 0,0 km/h (0 Bft) 100,00 %
01.10.2017 01:52 8,6 C 13,3 C 88 % 1016,6 hPa 0,0 l/m 0,0 km/h (0 Bft) O-NO 64 0 min 0,000 mm 0,0 UV-I 0 W/m 6,7 C 8,6 C 0,0 km/h (0 Bft) 100,00 %
01.10.2017 01:54 8,6 C 13,3 C 88 % 1016,6 hPa 0,0 l/m 0,4 km/h (0 Bft) O-NO 64 0 min 0,000 mm 0,0 UV-I 0 W/m 6,7 C 8,6 C 1,6 km/h (1 Bft) 100,00 %
01.10.2017 01:56 8,7 C 13,3 C 88 % 1016,7 hPa 0,0 l/m 1,0 km/h (0 Bft) O-NO 64 0 min 0,000 mm 0,0 UV-I 0 W/m 6,8 C 8,7 C 1,6 km/h (1 Bft) 100,00 %
01.10.2017 01:58 8,8 C 13,3 C 87 % 1016,7 hPa 0,0 l/m 0,0 km/h (0 Bft) O-NO 64 0 min 0,000 mm 0,0 UV-I 0 W/m 6,8 C 8,8 C 0,0 km/h (0 Bft) 100,00 %
01.10.2017 02:00 8,8 C 13,3 C 87 % 1016,7 hPa 0,0 l/m 0,0 km/h (0 Bft) O-NO 64 0 min 0,000 mm 0,0 UV-I 0 W/m 6,8 C 8,8 C 0,0 km/h (0 Bft) 100,00 %
01.10.2017 02:02 8,8 C 13,3 C 87 % 1016,7 hPa 0,0 l/m 0,0 km/h (0 Bft) O-NO 64 0 min 0,000 mm 0,0 UV-I 0 W/m 6,8 C 8,8 C 0,0 km/h (0 Bft) 100,00 %
01.10.2017 02:04 8,8 C 13,3 C 87 % 1016,7 hPa 0,0 l/m 0,0 km/h (0 Bft) O-NO 64 0 min 0,000 mm 0,0 UV-I 0 W/m 6,8 C 8,8 C 0,0 km/h (0 Bft) 100,00 %
01.10.2017 02:06 8,7 C 13,3 C 88 % 1016,7 hPa 0,0 l/m 0,0 km/h (0 Bft) O-NO 64 0 min 0,000 mm 0,0 UV-I 0 W/m 6,8 C 8,7 C 0,0 km/h (0 Bft) 97,87 %
01.10.2017 02:08 8,6 C 13,3 C 88 % 1016,7 hPa 0,0 l/m 0,4 km/h (0 Bft) O-NO 64 0 min 0,000 mm 0,0 UV-I 0 W/m 6,7 C 8,6 C 1,6 km/h (1 Bft) 97,87 %
01.10.2017 02:10 8,5 C 13,3 C 89 % 1016,6 hPa 0,0 l/m 1,1 km/h (1 Bft) O-NO 64 0 min 0,000 mm 0,0 UV-I 0 W/m 6,8 C 8,5 C 1,6 km/h (1 Bft) 97,87 %
01.10.2017 02:12 8,5 C 13,3 C 89 % 1016,6 hPa 0,0 l/m 0,3 km/h (0 Bft) O-NO 64 0 min 0,000 mm 0,0 UV-I 0 W/m 6,8 C 8,5 C 1,6 km/h (1 Bft) 100,00 %
01.10.2017 02:14 8,4 C 13,3 C 89 % 1016,6 hPa 0,0 l/m 0,3 km/h (0 Bft) O-NO 64 0 min 0,000 mm 0,0 UV-I 0 W/m 6,7 C 8,4 C 1,6 km/h (1 Bft) 94,00 %
01.10.2017 02:16 8,5 C 13,3 C 90 % 1016,7 hPa 0,0 l/m 0,0 km/h (0 Bft) O-NO 64 0 min 0,000 mm 0,0 UV-I 0 W/m 7,0 C 8,5 C 0,0 km/h (0 Bft) 95,74 %
01.10.2017 02:18 8,5 C 13,3 C 90 % 1016,8 hPa 0,0 l/m 0,6 km/h (0 Bft) O-NO 64 0 min 0,000 mm 0,0 UV-I 0 W/m 7,0 C 8,5 C 3,2 km/h (1 Bft) 95,74 %
01.10.2017 02:20 8,6 C 13,3 C 90 % 1016,8 hPa 0,0 l/m 3,4 km/h (1 Bft) O-NO 64 0 min 0,000 mm 0,0 UV-I 0 W/m 7,1 C 8,6 C 4,8 km/h (1 Bft) 94,00 %
01.10.2017 02:22 8,6 C 13,3 C 90 % 1016,8 hPa 0,0 l/m 3,3 km/h (1 Bft) S-SW 200 0 min 0,000 mm 0,0 UV-I 0 W/m 7,1 C 8,6 C 4,8 km/h (1 Bft) 95,74 %
01.10.2017 02:24 8,5 C 13,3 C 89 % 1016,8 hPa 0,0 l/m 3,5 km/h (1 Bft) S-SW 200 0 min 0,000 mm 0,0 UV-I 0 W/m 6,8 C 8,5 C 4,8 km/h (1 Bft) 89,47 %
01.10.2017 02:26 8,4 C 13,3 C 89 % 1016,9 hPa 0,0 l/m 4,8 km/h (1 Bft) S-SW 200 0 min 0,000 mm 0,0 UV-I 0 W/m 6,7 C 8,4 C 6,4 km/h (2 Bft) 96,00 %
01.10.2017 02:28 8,5 C 13,3 C 89 % 1016,9 hPa 0,0 l/m 4,2 km/h (1 Bft) S-SW 200 0 min 0,000 mm 0,0 UV-I 0 W/m 6,8 C 8,5 C 6,4 km/h (2 Bft) 93,62 %
01.10.2017 02:30 8,5 C 13,3 C 89 % 1016,9 hPa 0,0 l/m 3,9 km/h (1 Bft) S-SW 200 0 min 0,000 mm 0,0 UV-I 0 W/m 6,8 C 8,5 C 4,8 km/h (1 Bft) 93,62 %
01.10.2017 02:32 8,5 C 13,3 C 89 % 1016,9 hPa 0,0 l/m 2,8 km/h (1 Bft) S-SW 200 0 min 0,000 mm 0,0 UV-I 0 W/m 6,8 C 8,5 C 4,8 km/h (1 Bft) 96,00 %
01.10.2017 02:34 8,6 C 13,3 C 90 % 1017,0 hPa 0,0 l/m 2,8 km/h (1 Bft) S-SW 200 0 min 0,000 mm 0,0 UV-I 0 W/m 7,1 C 8,6 C 4,8 km/h (1 Bft) 95,74 %
01.10.2017 02:36 8,6 C 13,3 C 90 % 1017,0 hPa 0,0 l/m 2,3 km/h (1 Bft) S-SW 200 0 min 0,000 mm 0,0 UV-I 0 W/m 7,1 C 8,6 C 4,8 km/h (1 Bft) 93,62 %
01.10.2017 02:38 8,6 C 13,3 C 90 % 1017,0 hPa 0,0 l/m 2,8 km/h (1 Bft) S-SW 200 0 min 0,000 mm 0,0 UV-I 0 W/m 7,1 C 8,6 C 4,8 km/h (1 Bft) 95,74 %
01.10.2017 02:40 8,7 C 13,3 C 89 % 1017,0 hPa 0,0 l/m 1,7 km/h (1 Bft) S-SW 200 0 min 0,000 mm 0,0 UV-I 0 W/m 7,0 C 8,7 C 3,2 km/h (1 Bft) 95,74 %
01.10.2017 02:42 8,7 C 13,3 C 89 % 1016,9 hPa 0,0 l/m 1,5 km/h (1 Bft) S-SW 200 0 min 0,000 mm 0,0 UV-I 0 W/m 7,0 C 8,7 C 3,2 km/h (1 Bft) 94,74 %
01.10.2017 02:44 8,6 C 13,3 C 89 % 1016,9 hPa 0,0 l/m 2,6 km/h (1 Bft) S-SW 200 0 min 0,000 mm 0,0 UV-I 0 W/m 6,9 C 8,6 C 3,2 km/h (1 Bft) 96,00 %
01.10.2017 02:46 8,6 C 13,3 C 90 % 1016,9 hPa 0,0 l/m 2,5 km/h (1 Bft) S-SW 200 0 min 0,000 mm 0,0 UV-I 0 W/m 7,1 C 8,6 C 3,2 km/h (1 Bft) 95,74 %
01.10.2017 02:48 8,6 C 13,3 C 90 % 1016,9 hPa 0,0 l/m 0,2 km/h (0 Bft) S-SW 200 0 min 0,000 mm 0,0 UV-I 0 W/m 7,1 C 8,6 C 1,6 km/h (1 Bft) 97,92 %
01.10.2017 02:50 8,6 C 13,3 C 90 % 1016,9 hPa 0,0 l/m 0,0 km/h (0 Bft) S-SW 200 0 min 0,000 mm 0,0 UV-I 0 W/m 7,1 C 8,6 C 0,0 km/h (0 Bft) 95,74 %
01.10.2017 02:52 8,7 C 13,3 C 89 % 1016,9 hPa 0,0 l/m 0,3 km/h (0 Bft) S-SW 200 0 min 0,000 mm 0,0 UV-I 0 W/m 7,0 C 8,7 C 1,6 km/h (1 Bft) 97,87 %
01.10.2017 02:54 8,7 C 13,3 C 89 % 1016,9 hPa 0,0 l/m 1,1 km/h (1 Bft) S-SW 200 0 min 0,000 mm 0,0 UV-I 0 W/m 7,0 C 8,7 C 3,2 km/h (1 Bft) 95,74 %
01.10.2017 02:56 8,7 C 13,3 C 89 % 1016,9 hPa 0,0 l/m 0,0 km/h (0 Bft) S-SW 200 0 min 0,000 mm 0,0 UV-I 0 W/m 7,0 C 8,7 C 0,0 km/h (0 Bft) 97,87 %
01.10.2017 02:58 8,6 C 13,3 C 89 % 1016,9 hPa 0,0 l/m 1,1 km/h (1 Bft) S-SW 200 0 min 0,000 mm 0,0 UV-I 0 W/m 6,9 C 8,6 C 3,2 km/h (1 Bft) 97,87 %
01.10.2017 03:00 8,4 C 13,3 C 89 % 1017,0 hPa 0,0 l/m 0,0 km/h (0 Bft) S-SW 200 0 min 0,000 mm 0,0 UV-I 0 W/m 6,7 C 8,4 C 0,0 km/h (0 Bft) 96,00 %
01.10.2017 03:02 8,4 C 13,3 C 90 % 1016,9 hPa 0,0 l/m 0,3 km/h (0 Bft) S-SW 200 0 min 0,000 mm 0,0 UV-I 0 W/m 6,9 C 8,4 C 3,2 km/h (1 Bft) 97,87 %
01.10.2017 03:04 8,4 C 13,3 C 90 % 1016,9 hPa 0,0 l/m 1,5 km/h (1 Bft) S-SW 200 0 min 0,000 mm 0,0 UV-I 0 W/m 6,9 C 8,4 C 3,2 km/h (1 Bft) 97,87 %
01.10.2017 03:06 8,4 C 13,3 C 90 % 1016,9 hPa 0,0 l/m 1,9 km/h (1 Bft) S-SW 200 0 min 0,000 mm 0,0 UV-I 0 W/m 6,9 C 8,4 C 3,2 km/h (1 Bft) 95,74 %
01.10.2017 03:08 8,2 C 13,3 C 90 % 1016,9 hPa 0,0 l/m 2,7 km/h (1 Bft) S-SW 200 0 min 0,000 mm 0,0 UV-I 0 W/m 6,7 C 8,2 C 4,8 km/h (1 Bft) 97,87 %
01.10.2017 03:10 8,1 C 13,3 C 90 % 1016,9 hPa 0,0 l/m 1,8 km/h (1 Bft) S-SW 200 0 min 0,000 mm 0,0 UV-I 0 W/m 6,6 C 8,1 C 3,2 km/h (1 Bft) 97,87 %
01.10.2017 03:12 8,1 C 13,3 C 90 % 1016,9 hPa 0,0 l/m 1,0 km/h (0 Bft) S-SW 200 0 min 0,000 mm 0,0 UV-I 0 W/m 6,6 C 8,1 C 3,2 km/h (1 Bft) 100,00 %
01.10.2017 03:14 8,2 C 13,3 C 91 % 1016,9 hPa 0,0 l/m 3,8 km/h (1 Bft) O-NO 65 0 min 0,000 mm 0,0 UV-I 0 W/m 6,8 C 8,2 C 8,0 km/h (2 Bft) 100,00 %
01.10.2017 03:16 8,2 C 13,3 C 90 % 1016,9 hPa 0,0 l/m 2,9 km/h (1 Bft) O-NO 69 0 min 0,000 mm 0,0 UV-I 0 W/m 6,7 C 8,2 C 6,4 km/h (2 Bft) 100,00 %
01.10.2017 03:18 8,2 C 13,3 C 89 % 1016,9 hPa 0,0 l/m 2,5 km/h (1 Bft) O-NO 69 0 min 0,000 mm 0,0 UV-I 0 W/m 6,5 C 8,2 C 6,4 km/h (2 Bft) 100,00 %
01.10.2017 03:20 8,3 C 13,3 C 89 % 1016,9 hPa 0,0 l/m 3,6 km/h (1 Bft) O-NO 69 0 min 0,000 mm 0,0 UV-I 0 W/m 6,6 C 8,3 C 4,8 km/h (1 Bft) 100,00 %
01.10.2017 03:22 8,4 C 13,3 C 88 % 1016,9 hPa 0,0 l/m 4,0 km/h (1 Bft) O-NO 69 0 min 0,000 mm 0,0 UV-I 0 W/m 6,5 C 8,4 C 4,8 km/h (1 Bft) 93,62 %
01.10.2017 03:24 8,6 C 13,3 C 88 % 1016,9 hPa 0,0 l/m 4,2 km/h (1 Bft) O 99 0 min 0,000 mm 0,0 UV-I 0 W/m 6,7 C 8,6 C 9,7 km/h (2 Bft) 100,00 %
01.10.2017 03:26 8,7 C 13,3 C 87 % 1017,0 hPa 0,0 l/m 3,0 km/h (1 Bft) O 99 0 min 0,000 mm 0,0 UV-I 0 W/m 6,7 C 8,7 C 6,4 km/h (2 Bft) 100,00 %
01.10.2017 03:28 8,7 C 13,3 C 87 % 1016,9 hPa 0,0 l/m 2,9 km/h (1 Bft) O 99 0 min 0,000 mm 0,0 UV-I 0 W/m 6,7 C 8,7 C 4,8 km/h (1 Bft) 100,00 %
01.10.2017 03:30 8,6 C 13,3 C 87 % 1016,9 hPa 0,0 l/m 4,0 km/h (1 Bft) O 88 0 min 0,000 mm 0,0 UV-I 0 W/m 6,6 C 8,6 C 6,4 km/h (2 Bft) 100,00 %
01.10.2017 03:32 8,7 C 13,3 C 87 % 1017,0 hPa 0,0 l/m 5,0 km/h (1 Bft) O 101 0 min 0,000 mm 0,0 UV-I 0 W/m 6,7 C 8,7 C 8,0 km/h (2 Bft) 98,00 %
01.10.2017 03:34 8,7 C 13,3 C 86 % 1017,0 hPa 0,0 l/m 3,4 km/h (1 Bft) O 101 0 min 0,000 mm 0,0 UV-I 0 W/m 6,5 C 8,7 C 4,8 km/h (1 Bft) 97,87 %
01.10.2017 03:36 8,7 C 13,3 C 86 % 1017,0 hPa 0,0 l/m 3,0 km/h (1 Bft) O 101 0 min 0,000 mm 0,0 UV-I 0 W/m 6,5 C 8,7 C 4,8 km/h (1 Bft) 100,00 %
01.10.2017 03:38 8,7 C 13,3 C 86 % 1017,0 hPa 0,0 l/m 1,7 km/h (1 Bft) O 101 0 min 0,000 mm 0,0 UV-I 0 W/m 6,5 C 8,7 C 3,2 km/h (1 Bft) 100,00 %
01.10.2017 03:40 8,6 C 13,3 C 86 % 1017,1 hPa 0,0 l/m 0,4 km/h (0 Bft) O 101 0 min 0,000 mm 0,0 UV-I 0 W/m 6,4 C 8,6 C 1,6 km/h (1 Bft) 100,00 %
01.10.2017 03:42 8,6 C 13,3 C 86 % 1017,1 hPa 0,0 l/m 0,9 km/h (0 Bft) O 101 0 min 0,000 mm 0,0 UV-I 0 W/m 6,4 C 8,6 C 1,6 km/h (1 Bft) 97,30 %
01.10.2017 03:44 8,6 C 13,3 C 86 % 1017,1 hPa 0,0 l/m 0,9 km/h (0 Bft) O 101 0 min 0,000 mm 0,0 UV-I 0 W/m 6,4 C 8,6 C 3,2 km/h (1 Bft) 97,87 %
01.10.2017 03:46 8,5 C 13,3 C 87 % 1017,1 hPa 0,0 l/m 0,4 km/h (0 Bft) O 101 0 min 0,000 mm 0,0 UV-I 0 W/m 6,5 C 8,5 C 1,6 km/h (1 Bft) 98,00 %
01.10.2017 03:48 8,5 C 13,3 C 87 % 1017,1 hPa 0,0 l/m 1,0 km/h (0 Bft) O 101 0 min 0,000 mm 0,0 UV-I 0 W/m 6,5 C 8,5 C 3,2 km/h (1 Bft) 100,00 %
01.10.2017 03:50 8,5 C 13,3 C 87 % 1017,1 hPa 0,0 l/m 0,2 km/h (0 Bft) O 101 0 min 0,000 mm 0,0 UV-I 0 W/m 6,5 C 8,5 C 1,6 km/h (1 Bft) 97,87 %
01.10.2017 03:52 8,4 C 13,3 C 88 % 1017,1 hPa 0,0 l/m 0,0 km/h (0 Bft) O 101 0 min 0,000 mm 0,0 UV-I 0 W/m 6,5 C 8,4 C 0,0 km/h (0 Bft) 100,00 %
01.10.2017 03:54 8,3 C 13,3 C 88 % 1017,2 hPa 0,0 l/m 0,0 km/h (0 Bft) O 101 0 min 0,000 mm 0,0 UV-I 0 W/m 6,4 C 8,3 C 0,0 km/h (0 Bft) 100,00 %
01.10.2017 03:56 8,3 C 13,3 C 89 % 1017,1 hPa 0,0 l/m 0,0 km/h (0 Bft) O 101 0 min 0,000 mm 0,0 UV-I 0 W/m 6,6 C 8,3 C 0,0 km/h (0 Bft) 100,00 %
01.10.2017 03:58 8,2 C 13,3 C 89 % 1017,1 hPa 0,0 l/m 1,6 km/h (1 Bft) O 101 0 min 0,000 mm 0,0 UV-I 0 W/m 6,5 C 8,2 C 3,2 km/h (1 Bft) 100,00 %
01.10.2017 04:00 8,2 C 13,3 C 89 % 1017,1 hPa 0,0 l/m 3,1 km/h (1 Bft) O 101 0 min 0,000 mm 0,0 UV-I 0 W/m 6,5 C 8,2 C 4,8 km/h (1 Bft) 100,00 %
01.10.2017 04:02 8,2 C 13,3 C 89 % 1017,2 hPa 0,0 l/m 2,3 km/h (1 Bft) O 101 0 min 0,000 mm 0,0 UV-I 0 W/m 6,5 C 8,2 C 4,8 km/h (1 Bft) 95,65 %
01.10.2017 04:04 8,2 C 13,3 C 89 % 1017,2 hPa 0,0 l/m 2,2 km/h (1 Bft) O 101 0 min 0,000 mm 0,0 UV-I 0 W/m 6,5 C 8,2 C 4,8 km/h (1 Bft) 100,00 %
01.10.2017 04:06 8,3 C 13,3 C 89 % 1017,3 hPa 0,0 l/m 1,3 km/h (1 Bft) O 101 0 min 0,000 mm 0,0 UV-I 0 W/m 6,6 C 8,3 C 3,2 km/h (1 Bft) 98,00 %
01.10.2017 04:08 8,3 C 13,3 C 89 % 1017,3 hPa 0,0 l/m 0,5 km/h (0 Bft) O 101 0 min 0,000 mm 0,0 UV-I 0 W/m 6,6 C 8,3 C 1,6 km/h (1 Bft) 100,00 %
01.10.2017 04:10 8,4 C 13,3 C 89 % 1017,3 hPa 0,0 l/m 0,0 km/h (0 Bft) O 101 0 min 0,000 mm 0,0 UV-I 0 W/m 6,7 C 8,4 C 0,0 km/h (0 Bft) 100,00 %
01.10.2017 04:12 8,4 C 13,3 C 89 % 1017,3 hPa 0,0 l/m 0,0 km/h (0 Bft) O 101 0 min 0,000 mm 0,0 UV-I 0 W/m 6,7 C 8,4 C 0,0 km/h (0 Bft) 100,00 %
01.10.2017 04:14 8,3 C 13,3 C 90 % 1017,3 hPa 0,0 l/m 0,0 km/h (0 Bft) O 101 0 min 0,000 mm 0,0 UV-I 0 W/m 6,8 C 8,3 C 0,0 km/h (0 Bft) 100,00 %
01.10.2017 04:16 8,3 C 13,3 C 90 % 1017,4 hPa 0,0 l/m 0,8 km/h (0 Bft) O 101 0 min 0,000 mm 0,0 UV-I 0 W/m 6,8 C 8,3 C 3,2 km/h (1 Bft) 97,87 %
01.10.2017 04:18 8,2 C 13,3 C 90 % 1017,4 hPa 0,0 l/m 1,6 km/h (1 Bft) O 101 0 min 0,000 mm 0,0 UV-I 0 W/m 6,7 C 8,2 C 3,2 km/h (1 Bft) 97,87 %
01.10.2017 04:20 8,2 C 13,3 C 90 % 1017,4 hPa 0,0 l/m 0,4 km/h (0 Bft) O 101 0 min 0,000 mm 0,0 UV-I 0 W/m 6,7 C 8,2 C 1,6 km/h (1 Bft) 95,74 %
01.10.2017 04:22 8,2 C 13,3 C 90 % 1017,4 hPa 0,0 l/m 0,0 km/h (0 Bft) O 101 0 min 0,000 mm 0,0 UV-I 0 W/m 6,7 C 8,2 C 0,0 km/h (0 Bft) 97,87 %
01.10.2017 04:24 8,2 C 13,3 C 90 % 1017,4 hPa 0,0 l/m 0,0 km/h (0 Bft) O 101 0 min 0,000 mm 0,0 UV-I 0 W/m 6,7 C 8,2 C 0,0 km/h (0 Bft) 97,87 %
01.10.2017 04:26 8,3 C 13,3 C 90 % 1017,5 hPa 0,0 l/m 0,0 km/h (0 Bft) O 101 0 min 0,000 mm 0,0 UV-I 0 W/m 6,8 C 8,3 C 0,0 km/h (0 Bft) 98,00 %
01.10.2017 04:28 8,4 C 13,3 C 90 % 1017,5 hPa 0,0 l/m 0,3 km/h (0 Bft) O 101 0 min 0,000 mm 0,0 UV-I 0 W/m 6,9 C 8,4 C 1,6 km/h (1 Bft) 97,14 %
01.10.2017 04:30 8,4 C 13,3 C 90 % 1017,5 hPa 0,0 l/m 1,0 km/h (0 Bft) O 101 0 min 0,000 mm 0,0 UV-I 0 W/m 6,9 C 8,4 C 1,6 km/h (1 Bft) 98,00 %
01.10.2017 04:32 8,6 C 13,3 C 90 % 1017,5 hPa 0,0 l/m 0,0 km/h (0 Bft) O 101 0 min 0,000 mm 0,0 UV-I 0 W/m 7,1 C 8,6 C 0,0 km/h (0 Bft) 97,87 %
01.10.2017 04:34 8,6 C 13,3 C 90 % 1017,5 hPa 0,0 l/m 0,0 km/h (0 Bft) O 101 0 min 0,000 mm 0,0 UV-I 0 W/m 7,1 C 8,6 C 0,0 km/h (0 Bft) 96,00 %
01.10.2017 04:36 8,7 C 13,3 C 90 % 1017,5 hPa 0,0 l/m 0,0 km/h (0 Bft) O 101 0 min 0,000 mm 0,0 UV-I 0 W/m 7,2 C 8,7 C 0,0 km/h (0 Bft) 97,87 %
01.10.2017 04:38 8,7 C 13,3 C 89 % 1017,5 hPa 0,0 l/m 0,0 km/h (0 Bft) O 101 0 min 0,000 mm 0,0 UV-I 0 W/m 7,0 C 8,7 C 0,0 km/h (0 Bft) 97,87 %
01.10.2017 04:40 8,8 C 13,3 C 89 % 1017,5 hPa 0,0 l/m 0,0 km/h (0 Bft) O 101 0 min 0,000 mm 0,0 UV-I 0 W/m 7,1 C 8,8 C 0,0 km/h (0 Bft) 97,87 %
01.10.2017 04:42 8,8 C 13,3 C 89 % 1017,5 hPa 0,0 l/m 0,0 km/h (0 Bft) O 101 0 min 0,000 mm 0,0 UV-I 0 W/m 7,1 C 8,8 C 0,0 km/h (0 Bft) 97,87 %
01.10.2017 04:44 8,9 C 13,3 C 89 % 1017,6 hPa 0,0 l/m 0,0 km/h (0 Bft) O 101 0 min 0,000 mm 0,0 UV-I 0 W/m 7,2 C 8,9 C 0,0 km/h (0 Bft) 93,75 %
01.10.2017 04:46 8,9 C 13,3 C 89 % 1017,6 hPa 0,0 l/m 0,0 km/h (0 Bft) O 101 0 min 0,000 mm 0,0 UV-I 0 W/m 7,2 C 8,9 C 0,0 km/h (0 Bft) 97,87 %
01.10.2017 04:48 8,9 C 13,3 C 89 % 1017,6 hPa 0,0 l/m 0,0 km/h (0 Bft) O 101 0 min 0,000 mm 0,0 UV-I 0 W/m 7,2 C 8,9 C 0,0 km/h (0 Bft) 93,62 %
01.10.2017 04:50 9,0 C 13,3 C 89 % 1017,6 hPa 0,0 l/m 0,0 km/h (0 Bft) O 101 0 min 0,000 mm 0,0 UV-I 0 W/m 7,3 C 9,0 C 0,0 km/h (0 Bft) 95,74 %
01.10.2017 04:52 9,0 C 13,3 C 89 % 1017,6 hPa 0,0 l/m 0,0 km/h (0 Bft) O 101 0 min 0,000 mm 0,0 UV-I 0 W/m 7,3 C 9,0 C 0,0 km/h (0 Bft) 97,87 %
01.10.2017 04:54 9,0 C 13,3 C 90 % 1017,6 hPa 0,0 l/m 0,0 km/h (0 Bft) O 101 0 min 0,000 mm 0,0 UV-I 0 W/m 7,4 C 9,0 C 0,0 km/h (0 Bft) 100,00 %
01.10.2017 04:56 9,0 C 13,3 C 90 % 1017,7 hPa 0,0 l/m 0,0 km/h (0 Bft) O 101 0 min 0,000 mm 0,0 UV-I 0 W/m 7,4 C 9,0 C 0,0 km/h (0 Bft) 97,87 %
01.10.2017 04:58 9,0 C 13,3 C 90 % 1017,6 hPa 0,0 l/m 0,0 km/h (0 Bft) O 101 0 min 0,000 mm 0,0 UV-I 0 W/m 7,4 C 9,0 C 0,0 km/h (0 Bft) 97,87 %
01.10.2017 05:00 9,0 C 13,3 C 90 % 1017,6 hPa 0,0 l/m 0,0 km/h (0 Bft) O 101 0 min 0,000 mm 0,0 UV-I 0 W/m 7,4 C 9,0 C 0,0 km/h (0 Bft) 97,87 %
01.10.2017 05:02 9,0 C 13,3 C 89 % 1017,7 hPa 0,0 l/m 0,4 km/h (0 Bft) O 101 0 min 0,000 mm 0,0 UV-I 0 W/m 7,3 C 9,0 C 1,6 km/h (1 Bft) 95,74 %
01.10.2017 05:04 9,0 C 13,3 C 89 % 1017,7 hPa 0,0 l/m 0,6 km/h (0 Bft) O 101 0 min 0,000 mm 0,0 UV-I 0 W/m 7,3 C 9,0 C 1,6 km/h (1 Bft) 97,87 %
01.10.2017 05:06 9,1 C 13,3 C 89 % 1017,7 hPa 0,0 l/m 0,4 km/h (0 Bft) O 101 0 min 0,000 mm 0,0 UV-I 0 W/m 7,4 C 9,1 C 1,6 km/h (1 Bft) 100,00 %
01.10.2017 05:08 9,1 C 13,3 C 90 % 1017,7 hPa 0,0 l/m 0,0 km/h (0 Bft) O 101 0 min 0,000 mm 0,0 UV-I 0 W/m 7,5 C 9,1 C 0,0 km/h (0 Bft) 97,87 %
01.10.2017 05:10 9,1 C 13,3 C 90 % 1017,7 hPa 0,0 l/m 0,0 km/h (0 Bft) O 101 0 min 0,000 mm 0,0 UV-I 0 W/m 7,5 C 9,1 C 0,0 km/h (0 Bft) 100,00 %
01.10.2017 05:12 9,1 C 13,3 C 90 % 1017,8 hPa 0,0 l/m 0,2 km/h (0 Bft) O 101 0 min 0,000 mm 0,0 UV-I 0 W/m 7,5 C 9,1 C 1,6 km/h (1 Bft) 97,14 %
01.10.2017 05:14 9,2 C 13,3 C 90 % 1017,8 hPa 0,0 l/m 1,3 km/h (1 Bft) O 101 0 min 0,000 mm 0,0 UV-I 0 W/m 7,6 C 9,2 C 1,6 km/h (1 Bft) 100,00 %
01.10.2017 05:16 9,2 C 13,3 C 89 % 1017,8 hPa 0,0 l/m 1,1 km/h (1 Bft) O 101 0 min 0,000 mm 0,0 UV-I 0 W/m 7,5 C 9,2 C 3,2 km/h (1 Bft) 100,00 %
01.10.2017 05:18 9,1 C 13,3 C 89 % 1017,9 hPa 0,0 l/m 1,4 km/h (1 Bft) O 101 0 min 0,000 mm 0,0 UV-I 0 W/m 7,4 C 9,1 C 3,2 km/h (1 Bft) 97,87 %
01.10.2017 05:20 9,1 C 13,3 C 89 % 1017,9 hPa 0,0 l/m 0,7 km/h (0 Bft) O 101 0 min 0,000 mm 0,0 UV-I 0 W/m 7,4 C 9,1 C 3,2 km/h (1 Bft) 100,00 %
01.10.2017 05:22 9,2 C 13,3 C 89 % 1017,9 hPa 0,0 l/m 0,5 km/h (0 Bft) O 101 0 min 0,000 mm 0,0 UV-I 0 W/m 7,5 C 9,2 C 1,6 km/h (1 Bft) 100,00 %
01.10.2017 05:24 9,2 C 13,3 C 89 % 1018,0 hPa 0,0 l/m 0,0 km/h (0 Bft) O 101 0 min 0,000 mm 0,0 UV-I 0 W/m 7,5 C 9,2 C 0,0 km/h (0 Bft) 97,92 %
01.10.2017 05:26 9,1 C 13,3 C 89 % 1018,0 hPa 0,0 l/m 0,0 km/h (0 Bft) O 101 0 min 0,000 mm 0,0 UV-I 0 W/m 7,4 C 9,1 C 0,0 km/h (0 Bft) 100,00 %
01.10.2017 05:28 9,1 C 13,3 C 89 % 1018,0 hPa 0,0 l/m 0,0 km/h (0 Bft) O 101 0 min 0,000 mm 0,0 UV-I 0 W/m 7,4 C 9,1 C 0,0 km/h (0 Bft) 97,87 %
01.10.2017 05:30 9,1 C 13,3 C 89 % 1018,0 hPa 0,0 l/m 0,0 km/h (0 Bft) O 101 0 min 0,000 mm 0,0 UV-I 0 W/m 7,4 C 9,1 C 0,0 km/h (0 Bft) 100,00 %
01.10.2017 05:32 9,1 C 13,3 C 89 % 1018,0 hPa 0,0 l/m 0,0 km/h (0 Bft) O 101 0 min 0,000 mm 0,0 UV-I 0 W/m 7,4 C 9,1 C 0,0 km/h (0 Bft) 100,00 %
01.10.2017 05:34 9,2 C 13,3 C 89 % 1018,0 hPa 0,0 l/m 0,0 km/h (0 Bft) O 101 0 min 0,000 mm 0,0 UV-I 0 W/m 7,5 C 9,2 C 0,0 km/h (0 Bft) 97,87 %
01.10.2017 05:36 9,2 C 13,3 C 89 % 1018,0 hPa 0,0 l/m 0,0 km/h (0 Bft) O 101 0 min 0,000 mm 0,0 UV-I 0 W/m 7,5 C 9,2 C 0,0 km/h (0 Bft) 97,87 %
01.10.2017 05:38 9,2 C 13,3 C 89 % 1018,0 hPa 0,0 l/m 0,0 km/h (0 Bft) O 101 0 min 0,000 mm 0,0 UV-I 0 W/m 7,5 C 9,2 C 0,0 km/h (0 Bft) 95,74 %
01.10.2017 05:40 9,2 C 13,3 C 90 % 1018,1 hPa 0,0 l/m 0,0 km/h (0 Bft) O 101 0 min 0,000 mm 0,0 UV-I 0 W/m 7,6 C 9,2 C 0,0 km/h (0 Bft) 98,00 %
01.10.2017 05:42 9,2 C 13,3 C 90 % 1018,1 hPa 0,0 l/m 0,0 km/h (0 Bft) O 101 0 min 0,000 mm 0,0 UV-I 0 W/m 7,6 C 9,2 C 0,0 km/h (0 Bft) 95,74 %
01.10.2017 05:44 9,2 C 13,3 C 90 % 1018,1 hPa 0,0 l/m 0,0 km/h (0 Bft) O 101 0 min 0,000 mm 0,0 UV-I 0 W/m 7,6 C 9,2 C 0,0 km/h (0 Bft) 97,37 %
01.10.2017 05:46 9,2 C 13,3 C 89 % 1018,2 hPa 0,0 l/m 0,0 km/h (0 Bft) O 101 0 min 0,000 mm 0,0 UV-I 0 W/m 7,5 C 9,2 C 0,0 km/h (0 Bft) 94,00 %
01.10.2017 05:48 9,2 C 13,3 C 88 % 1018,1 hPa 0,0 l/m 0,0 km/h (0 Bft) O 101 0 min 0,000 mm 0,0 UV-I 0 W/m 7,3 C 9,2 C 0,0 km/h (0 Bft) 93,62 %
01.10.2017 05:50 9,2 C 13,3 C 88 % 1018,1 hPa 0,0 l/m 0,0 km/h (0 Bft) O 101 0 min 0,000 mm 0,0 UV-I 0 W/m 7,3 C 9,2 C 0,0 km/h (0 Bft) 97,87 %
01.10.2017 05:52 9,3 C 13,3 C 88 % 1018,1 hPa 0,0 l/m 0,0 km/h (0 Bft) O 101 0 min 0,000 mm 0,0 UV-I 0 W/m 7,4 C 9,3 C 0,0 km/h (0 Bft) 97,87 %
01.10.2017 05:54 9,3 C 13,3 C 88 % 1018,2 hPa 0,0 l/m 0,0 km/h (0 Bft) O 101 0 min 0,000 mm 0,0 UV-I 0 W/m 7,4 C 9,3 C 0,0 km/h (0 Bft) 97,87 %
01.10.2017 05:56 9,3 C 13,3 C 88 % 1018,1 hPa 0,0 l/m 0,0 km/h (0 Bft) O 101 0 min 0,000 mm 0,0 UV-I 0 W/m 7,4 C 9,3 C 0,0 km/h (0 Bft) 96,00 %
01.10.2017 05:58 9,3 C 13,3 C 88 % 1018,2 hPa 0,0 l/m 0,0 km/h (0 Bft) O 101 0 min 0,000 mm 0,0 UV-I 0 W/m 7,4 C 9,3 C 0,0 km/h (0 Bft) 97,87 %
01.10.2017 06:00 9,2 C 13,3 C 89 % 1018,2 hPa 0,0 l/m 0,0 km/h (0 Bft) O 101 0 min 0,000 mm 0,0 UV-I 0 W/m 7,5 C 9,2 C 0,0 km/h (0 Bft) 95,74 %
01.10.2017 06:02 9,2 C 13,3 C 89 % 1018,3 hPa 0,0 l/m 0,0 km/h (0 Bft) O 101 0 min 0,000 mm 0,0 UV-I 0 W/m 7,5 C 9,2 C 0,0 km/h (0 Bft) 93,62 %
01.10.2017 06:04 9,2 C 13,3 C 89 % 1018,2 hPa 0,0 l/m 0,0 km/h (0 Bft) O 101 0 min 0,000 mm 0,0 UV-I 0 W/m 7,5 C 9,2 C 0,0 km/h (0 Bft) 95,74 %
01.10.2017 06:06 9,1 C 13,3 C 88 % 1018,3 hPa 0,0 l/m 0,0 km/h (0 Bft) O 101 0 min 0,000 mm 0,0 UV-I 0 W/m 7,2 C 9,1 C 0,0 km/h (0 Bft) 97,44 %
01.10.2017 06:08 9,1 C 13,3 C 89 % 1018,3 hPa 0,0 l/m 0,0 km/h (0 Bft) O 101 0 min 0,000 mm 0,0 UV-I 0 W/m 7,4 C 9,1 C 0,0 km/h (0 Bft) 97,87 %
01.10.2017 06:10 9,1 C 13,3 C 89 % 1018,3 hPa 0,0 l/m 0,0 km/h (0 Bft) O 101 0 min 0,000 mm 0,0 UV-I 0 W/m 7,4 C 9,1 C 0,0 km/h (0 Bft) 96,00 %
01.10.2017 06:12 9,1 C 13,3 C 89 % 1018,3 hPa 0,0 l/m 0,0 km/h (0 Bft) O 101 0 min 0,000 mm 0,0 UV-I 0 W/m 7,4 C 9,1 C 0,0 km/h (0 Bft) 97,92 %
01.10.2017 06:14 9,1 C 13,3 C 90 % 1018,4 hPa 0,0 l/m 0,0 km/h (0 Bft) O 101 0 min 0,000 mm 0,0 UV-I 0 W/m 7,5 C 9,1 C 0,0 km/h (0 Bft) 95,74 %
01.10.2017 06:16 9,1 C 13,3 C 91 % 1018,3 hPa 0,0 l/m 0,0 km/h (0 Bft) O 101 0 min 0,000 mm 0,0 UV-I 0 W/m 7,7 C 9,1 C 0,0 km/h (0 Bft) 97,87 %
01.10.2017 06:18 9,0 C 13,3 C 90 % 1018,4 hPa 0,0 l/m 0,2 km/h (0 Bft) O 101 0 min 0,000 mm 0,0 UV-I 0 W/m 7,4 C 9,0 C 1,6 km/h (1 Bft) 95,74 %
01.10.2017 06:20 8,9 C 13,3 C 90 % 1018,4 hPa 0,0 l/m 0,4 km/h (0 Bft) O 101 0 min 0,000 mm 0,0 UV-I 0 W/m 7,4 C 8,9 C 1,6 km/h (1 Bft) 93,62 %
01.10.2017 06:22 8,9 C 13,3 C 90 % 1018,3 hPa 0,0 l/m 0,3 km/h (0 Bft) O 101 0 min 0,000 mm 0,0 UV-I 0 W/m 7,4 C 8,9 C 1,6 km/h (1 Bft) 96,08 %
01.10.2017 06:24 8,9 C 13,3 C 90 % 1018,4 hPa 0,0 l/m 0,2 km/h (0 Bft) O-NO 72 0 min 0,000 mm 0,0 UV-I 0 W/m 7,4 C 8,9 C 1,6 km/h (1 Bft) 94,29 %
01.10.2017 06:26 8,8 C 13,3 C 90 % 1018,3 hPa 0,0 l/m 0,5 km/h (0 Bft) O-NO 72 0 min 0,000 mm 0,0 UV-I 0 W/m 7,3 C 8,8 C 3,2 km/h (1 Bft) 95,74 %
01.10.2017 06:28 8,8 C 13,3 C 90 % 1018,3 hPa 0,0 l/m 0,7 km/h (0 Bft) O-NO 72 0 min 0,000 mm 0,0 UV-I 0 W/m 7,3 C 8,8 C 3,2 km/h (1 Bft) 95,74 %
01.10.2017 06:30 8,8 C 13,3 C 90 % 1018,4 hPa 0,0 l/m 1,4 km/h (1 Bft) O-NO 72 0 min 0,000 mm 0,0 UV-I 0 W/m 7,3 C 8,8 C 3,2 km/h (1 Bft) 95,74 %
01.10.2017 06:32 8,8 C 13,3 C 90 % 1018,4 hPa 0,0 l/m 2,8 km/h (1 Bft) NO 47 0 min 0,000 mm 0,0 UV-I 0 W/m 7,3 C 8,8 C 6,4 km/h (2 Bft) 93,62 %
01.10.2017 06:34 8,8 C 13,3 C 90 % 1018,4 hPa 0,0 l/m 3,9 km/h (1 Bft) NO 42 0 min 0,000 mm 0,0 UV-I 0 W/m 7,3 C 8,8 C 6,4 km/h (2 Bft) 92,00 %
01.10.2017 06:36 8,8 C 13,3 C 90 % 1018,4 hPa 0,0 l/m 3,6 km/h (1 Bft) NO 39 0 min 0,000 mm 0,0 UV-I 0 W/m 7,3 C 8,8 C 4,8 km/h (1 Bft) 97,87 %
01.10.2017 06:38 8,9 C 13,3 C 90 % 1018,5 hPa 0,0 l/m 1,4 km/h (1 Bft) NO 39 0 min 0,000 mm 0,0 UV-I 0 W/m 7,4 C 8,9 C 4,8 km/h (1 Bft) 97,87 %
01.10.2017 06:40 8,9 C 13,3 C 90 % 1018,5 hPa 0,0 l/m 0,0 km/h (0 Bft) NO 39 0 min 0,000 mm 0,0 UV-I 0 W/m 7,4 C 8,9 C 0,0 km/h (0 Bft) 97,87 %
01.10.2017 06:42 8,9 C 13,3 C 90 % 1018,5 hPa 0,0 l/m 0,5 km/h (0 Bft) NO 39 0 min 0,000 mm 0,0 UV-I 0 W/m 7,4 C 8,9 C 1,6 km/h (1 Bft) 97,87 %
01.10.2017 06:44 9,0 C 13,3 C 90 % 1018,5 hPa 0,0 l/m 2,2 km/h (1 Bft) NO 39 0 min 0,000 mm 0,0 UV-I 0 W/m 7,4 C 9,0 C 3,2 km/h (1 Bft) 97,22 %
01.10.2017 06:46 8,9 C 13,3 C 90 % 1018,5 hPa 0,0 l/m 0,9 km/h (0 Bft) NO 39 0 min 0,000 mm 0,0 UV-I 0 W/m 7,4 C 8,9 C 3,2 km/h (1 Bft) 98,39 %
01.10.2017 06:48 9,0 C 13,3 C 90 % 1018,6 hPa 0,0 l/m 1,5 km/h (1 Bft) NO 39 0 min 0,000 mm 0,0 UV-I 0 W/m 7,4 C 9,0 C 3,2 km/h (1 Bft) 97,87 %
01.10.2017 06:50 9,0 C 13,3 C 90 % 1018,6 hPa 0,0 l/m 1,5 km/h (1 Bft) NO 39 0 min 0,000 mm 0,0 UV-I 0 W/m 7,4 C 9,0 C 3,2 km/h (1 Bft) 97,37 %
01.10.2017 06:52 8,9 C 13,3 C 90 % 1018,5 hPa 0,0 l/m 1,6 km/h (1 Bft) NO 39 0 min 0,000 mm 0,0 UV-I 1 W/m 7,4 C 8,9 C 3,2 km/h (1 Bft) 95,74 %
01.10.2017 06:54 8,9 C 13,3 C 90 % 1018,6 hPa 0,0 l/m 2,7 km/h (1 Bft) NO 39 0 min 0,000 mm 0,0 UV-I 5 W/m 7,4 C 8,9 C 4,8 km/h (1 Bft) 97,87 %
01.10.2017 06:56 8,9 C 13,3 C 90 % 1018,6 hPa 0,0 l/m 3,8 km/h (1 Bft) NO 39 0 min 0,000 mm 0,0 UV-I 5 W/m 7,4 C 8,9 C 6,4 km/h (2 Bft) 96,00 %
01.10.2017 06:58 8,9 C 13,3 C 90 % 1018,7 hPa 0,0 l/m 2,2 km/h (1 Bft) NO 39 0 min 0,000 mm 0,0 UV-I 5 W/m 7,4 C 8,9 C 4,8 km/h (1 Bft) 100,00 %
01.10.2017 07:00 8,9 C 13,3 C 90 % 1018,6 hPa 0,0 l/m 0,3 km/h (0 Bft) NO 38 0 min 0,000 mm 0,0 UV-I 5 W/m 7,4 C 8,9 C 1,6 km/h (1 Bft) 100,00 %
01.10.2017 07:02 8,9 C 13,3 C 91 % 1018,7 hPa 0,0 l/m 0,0 km/h (0 Bft) NO 38 0 min 0,000 mm 0,0 UV-I 7 W/m 7,5 C 8,9 C 1,6 km/h (1 Bft) 97,87 %
01.10.2017 07:04 8,9 C 13,3 C 91 % 1018,7 hPa 0,0 l/m 0,1 km/h (0 Bft) NO 38 0 min 0,000 mm 0,0 UV-I 7 W/m 7,5 C 8,9 C 1,6 km/h (1 Bft) 100,00 %
01.10.2017 07:06 8,9 C 13,3 C 91 % 1018,8 hPa 0,0 l/m 0,0 km/h (0 Bft) NO 39 0 min 0,000 mm 0,0 UV-I 8 W/m 7,5 C 8,9 C 0,0 km/h (0 Bft) 100,00 %
01.10.2017 07:08 8,9 C 13,3 C 90 % 1018,8 hPa 0,0 l/m 0,5 km/h (0 Bft) NO 39 0 min 0,000 mm 0,0 UV-I 9 W/m 7,4 C 8,9 C 1,6 km/h (1 Bft) 100,00 %
01.10.2017 07:10 9,0 C 13,3 C 90 % 1018,8 hPa 0,0 l/m 1,1 km/h (1 Bft) NO 39 0 min 0,000 mm 0,0 UV-I 10 W/m 7,4 C 9,0 C 3,2 km/h (1 Bft) 97,87 %
01.10.2017 07:12 9,0 C 13,3 C 90 % 1018,8 hPa 0,0 l/m 1,6 km/h (1 Bft) NO 39 0 min 0,000 mm 0,0 UV-I 11 W/m 7,4 C 9,0 C 3,2 km/h (1 Bft) 100,00 %
01.10.2017 07:14 9,0 C 13,3 C 89 % 1018,8 hPa 0,0 l/m 2,1 km/h (1 Bft) NO 39 2 min 0,000 mm 0,0 UV-I 12 W/m 7,3 C 9,0 C 3,2 km/h (1 Bft) 100,00 %
01.10.2017 07:16 9,1 C 13,3 C 89 % 1018,8 hPa 0,0 l/m 0,4 km/h (0 Bft) NO 39 2 min 0,000 mm 0,0 UV-I 14 W/m 7,4 C 9,1 C 1,6 km/h (1 Bft) 100,00 %
01.10.2017 07:18 9,1 C 13,3 C 90 % 1018,8 hPa 0,0 l/m 0,1 km/h (0 Bft) NO 39 0 min 0,000 mm 0,0 UV-I 16 W/m 7,5 C 9,1 C 1,6 km/h (1 Bft) 100,00 %
01.10.2017 07:20 9,1 C 13,3 C 90 % 1018,9 hPa 0,0 l/m 1,4 km/h (1 Bft) NO 39 0 min 0,000 mm 0,0 UV-I 18 W/m 7,5 C 9,1 C 3,2 km/h (1 Bft) 100,00 %
01.10.2017 07:22 9,1 C 13,3 C 90 % 1018,9 hPa 0,0 l/m 0,7 km/h (0 Bft) NO 39 0 min 0,000 mm 0,0 UV-I 19 W/m 7,5 C 9,1 C 3,2 km/h (1 Bft) 97,92 %
01.10.2017 07:24 9,1 C 13,3 C 90 % 1018,9 hPa 0,0 l/m 0,6 km/h (0 Bft) NO 38 0 min 0,000 mm 0,0 UV-I 19 W/m 7,5 C 9,1 C 3,2 km/h (1 Bft) 100,00 %
01.10.2017 07:26 9,1 C 13,3 C 90 % 1018,9 hPa 0,0 l/m 1,1 km/h (1 Bft) NO 39 0 min 0,000 mm 0,0 UV-I 21 W/m 7,5 C 9,1 C 3,2 km/h (1 Bft) 98,11 %
01.10.2017 07:28 9,1 C 13,3 C 90 % 1018,9 hPa 0,0 l/m 1,5 km/h (1 Bft) NO 39 0 min 0,000 mm 0,0 UV-I 25 W/m 7,5 C 9,1 C 4,8 km/h (1 Bft) 97,87 %
01.10.2017 07:30 9,1 C 13,3 C 90 % 1018,9 hPa 0,0 l/m 1,8 km/h (1 Bft) NO 39 0 min 0,000 mm 0,0 UV-I 29 W/m 7,5 C 9,1 C 3,2 km/h (1 Bft) 100,00 %
01.10.2017 07:32 9,1 C 13,3 C 89 % 1018,9 hPa 0,0 l/m 0,0 km/h (0 Bft) NO 39 0 min 0,000 mm 0,0 UV-I 30 W/m 7,4 C 9,1 C 0,0 km/h (0 Bft) 100,00 %
01.10.2017 07:34 9,1 C 13,3 C 89 % 1019,0 hPa 0,0 l/m 0,5 km/h (0 Bft) NO 39 0 min 0,000 mm 0,0 UV-I 33 W/m 7,4 C 9,1 C 3,2 km/h (1 Bft) 100,00 %
01.10.2017 07:36 9,2 C 13,3 C 89 % 1019,0 hPa 0,0 l/m 2,5 km/h (1 Bft) NO 39 0 min 0,000 mm 0,0 UV-I 41 W/m 7,5 C 9,2 C 3,2 km/h (1 Bft) 97,87 %
01.10.2017 07:38 9,2 C 13,3 C 89 % 1019,0 hPa 0,0 l/m 0,4 km/h (0 Bft) NO 39 0 min 0,000 mm 0,0 UV-I 42 W/m 7,5 C 9,2 C 3,2 km/h (1 Bft) 97,87 %
01.10.2017 07:40 9,2 C 13,3 C 88 % 1019,0 hPa 0,0 l/m 0,4 km/h (0 Bft) NO 39 0 min 0,000 mm 0,0 UV-I 46 W/m 7,3 C 9,2 C 1,6 km/h (1 Bft) 100,00 %
01.10.2017 07:42 9,3 C 13,3 C 89 % 1019,0 hPa 0,0 l/m 1,9 km/h (1 Bft) NO 38 0 min 0,000 mm 0,0 UV-I 53 W/m 7,6 C 9,3 C 4,8 km/h (1 Bft) 100,00 %
01.10.2017 07:44 9,3 C 13,3 C 89 % 1019,1 hPa 0,0 l/m 2,7 km/h (1 Bft) NO 39 0 min 0,000 mm 0,0 UV-I 56 W/m 7,6 C 9,3 C 4,8 km/h (1 Bft) 98,00 %
01.10.2017 07:46 9,3 C 13,3 C 89 % 1019,1 hPa 0,0 l/m 0,4 km/h (0 Bft) NO 38 2 min 0,000 mm 0,0 UV-I 62 W/m 7,6 C 9,3 C 1,6 km/h (1 Bft) 97,87 %
01.10.2017 07:48 9,3 C 13,3 C 89 % 1019,0 hPa 0,0 l/m 1,1 km/h (1 Bft) NO 39 2 min 0,000 mm 0,0 UV-I 65 W/m 7,6 C 9,3 C 4,8 km/h (1 Bft) 100,00 %
01.10.2017 07:50 9,3 C 13,3 C 89 % 1019,2 hPa 0,0 l/m 0,4 km/h (0 Bft) NO 39 2 min 0,000 mm 0,0 UV-I 67 W/m 7,6 C 9,3 C 3,2 km/h (1 Bft) 100,00 %
01.10.2017 07:52 9,3 C 13,3 C 88 % 1019,2 hPa 0,0 l/m 0,0 km/h (0 Bft) NO 39 0 min 0,000 mm 0,0 UV-I 69 W/m 7,4 C 9,3 C 0,0 km/h (0 Bft) 95,74 %
01.10.2017 07:54 9,3 C 13,3 C 88 % 1019,2 hPa 0,0 l/m 0,0 km/h (0 Bft) NO 39 0 min 0,000 mm 0,0 UV-I 71 W/m 7,4 C 9,3 C 0,0 km/h (0 Bft) 100,00 %
01.10.2017 07:56 9,3 C 13,3 C 88 % 1019,3 hPa 0,0 l/m 0,0 km/h (0 Bft) NO 39 0 min 0,000 mm 0,0 UV-I 73 W/m 7,4 C 9,3 C 0,0 km/h (0 Bft) 100,00 %
01.10.2017 07:58 9,3 C 13,3 C 87 % 1019,3 hPa 0,0 l/m 0,0 km/h (0 Bft) NO 39 0 min 0,000 mm 0,0 UV-I 75 W/m 7,2 C 9,3 C 0,0 km/h (0 Bft) 97,92 %
01.10.2017 08:00 9,4 C 13,3 C 87 % 1019,3 hPa 0,0 l/m 0,0 km/h (0 Bft) NO 38 0 min 0,025 mm 0,0 UV-I 76 W/m 7,3 C 9,4 C 0,0 km/h (0 Bft) 97,87 %
01.10.2017 08:02 9,4 C 13,3 C 88 % 1019,3 hPa 0,0 l/m 0,0 km/h (0 Bft) NO 38 0 min 0,000 mm 0,0 UV-I 81 W/m 7,5 C 9,4 C 0,0 km/h (0 Bft) 100,00 %
01.10.2017 08:04 9,4 C 13,3 C 88 % 1019,3 hPa 0,0 l/m 0,0 km/h (0 Bft) NO 38 2 min 0,000 mm 0,0 UV-I 91 W/m 7,5 C 9,4 C 0,0 km/h (0 Bft) 97,87 %
01.10.2017 08:06 9,4 C 13,3 C 88 % 1019,4 hPa 0,0 l/m 0,0 km/h (0 Bft) NO 39 2 min 0,000 mm 0,0 UV-I 105 W/m 7,5 C 9,4 C 0,0 km/h (0 Bft) 100,00 %
01.10.2017 08:08 9,4 C 13,3 C 87 % 1019,4 hPa 0,0 l/m 0,0 km/h (0 Bft) NO 39 2 min 0,000 mm 0,0 UV-I 118 W/m 7,3 C 9,4 C 0,0 km/h (0 Bft) 100,00 %
01.10.2017 08:10 9,4 C 13,3 C 87 % 1019,4 hPa 0,0 l/m 0,0 km/h (0 Bft) NO 38 2 min 0,000 mm 0,0 UV-I 126 W/m 7,3 C 9,4 C 0,0 km/h (0 Bft) 100,00 %
01.10.2017 08:12 9,6 C 13,3 C 87 % 1019,4 hPa 0,0 l/m 0,1 km/h (0 Bft) NO 38 2 min 0,000 mm 0,0 UV-I 133 W/m 7,5 C 9,6 C 1,6 km/h (1 Bft) 100,00 %
01.10.2017 08:14 9,6 C 13,3 C 86 % 1019,4 hPa 0,0 l/m 0,1 km/h (0 Bft) NO 38 2 min 0,000 mm 0,0 UV-I 143 W/m 7,4 C 9,6 C 1,6 km/h (1 Bft) 100,00 %
01.10.2017 08:16 9,7 C 13,3 C 87 % 1019,5 hPa 0,0 l/m 0,0 km/h (0 Bft) NO 38 2 min 0,000 mm 0,0 UV-I 156 W/m 7,6 C 9,7 C 0,0 km/h (0 Bft) 100,00 %
01.10.2017 08:18 9,7 C 13,3 C 87 % 1019,5 hPa 0,0 l/m 2,1 km/h (1 Bft) NO 39 2 min 0,000 mm 0,0 UV-I 164 W/m 7,6 C 9,7 C 6,4 km/h (2 Bft) 100,00 %
01.10.2017 08:20 9,8 C 13,3 C 87 % 1019,5 hPa 0,0 l/m 2,2 km/h (1 Bft) NO 38 2 min 0,000 mm 0,0 UV-I 176 W/m 7,7 C 9,8 C 4,8 km/h (1 Bft) 97,87 %
01.10.2017 08:22 9,8 C 13,3 C 87 % 1019,5 hPa 0,0 l/m 1,6 km/h (1 Bft) NO 39 2 min 0,000 mm 0,0 UV-I 188 W/m 7,7 C 9,8 C 3,2 km/h (1 Bft) 98,00 %
01.10.2017 08:24 9,9 C 13,3 C 86 % 1019,6 hPa 0,0 l/m 2,6 km/h (1 Bft) NO 39 2 min 0,000 mm 0,0 UV-I 190 W/m 7,7 C 9,9 C 4,8 km/h (1 Bft) 97,87 %
01.10.2017 08:26 10,0 C 13,3 C 84 % 1019,6 hPa 0,0 l/m 1,1 km/h (1 Bft) NO 39 2 min 0,000 mm 0,0 UV-I 195 W/m 7,4 C 10,0 C 3,2 km/h (1 Bft) 97,56 %
01.10.2017 08:28 10,0 C 13,3 C 85 % 1019,6 hPa 0,0 l/m 2,0 km/h (1 Bft) NO 39 2 min 0,000 mm 0,0 UV-I 201 W/m 7,6 C 10,0 C 4,8 km/h (1 Bft) 98,00 %
01.10.2017 08:30 10,1 C 13,3 C 85 % 1019,6 hPa 0,0 l/m 1,6 km/h (1 Bft) NO 38 2 min 0,000 mm 0,0 UV-I 199 W/m 7,7 C 10,1 C 3,2 km/h (1 Bft) 93,62 %
01.10.2017 08:32 10,1 C 13,3 C 85 % 1019,6 hPa 0,0 l/m 0,3 km/h (0 Bft) NO 39 2 min 0,000 mm 0,0 UV-I 206 W/m 7,7 C 10,1 C 1,6 km/h (1 Bft) 97,87 %
01.10.2017 08:34 10,2 C 13,3 C 84 % 1019,6 hPa 0,0 l/m 1,2 km/h (1 Bft) NO 38 2 min 0,000 mm 0,0 UV-I 214 W/m 7,6 C 10,2 C 1,6 km/h (1 Bft) 93,62 %
01.10.2017 08:36 10,3 C 13,3 C 85 % 1019,7 hPa 0,0 l/m 0,3 km/h (0 Bft) NO 39 2 min 0,000 mm 0,0 UV-I 226 W/m 7,9 C 10,3 C 1,6 km/h (1 Bft) 97,87 %
01.10.2017 08:38 10,3 C 13,3 C 85 % 1019,7 hPa 0,0 l/m 0,3 km/h (0 Bft) NO 39 2 min 0,000 mm 0,0 UV-I 237 W/m 7,9 C 10,3 C 3,2 km/h (1 Bft) 97,87 %
01.10.2017 08:40 10,5 C 13,3 C 85 % 1019,7 hPa 0,0 l/m 0,4 km/h (0 Bft) NO 39 2 min 0,000 mm 0,0 UV-I 256 W/m 8,1 C 10,5 C 1,6 km/h (1 Bft) 95,74 %
01.10.2017 08:42 10,6 C 13,3 C 85 % 1019,7 hPa 0,0 l/m 1,1 km/h (1 Bft) NO 38 2 min 0,000 mm 0,0 UV-I 263 W/m 8,2 C 10,6 C 4,8 km/h (1 Bft) 97,87 %
01.10.2017 08:44 10,7 C 13,3 C 84 % 1019,7 hPa 0,0 l/m 3,2 km/h (1 Bft) NO 39 2 min 0,000 mm 0,0 UV-I 256 W/m 8,1 C 10,7 C 4,8 km/h (1 Bft) 97,92 %
01.10.2017 08:46 10,8 C 13,3 C 84 % 1019,7 hPa 0,0 l/m 3,0 km/h (1 Bft) NO 39 2 min 0,000 mm 0,0 UV-I 233 W/m 8,2 C 10,8 C 4,8 km/h (1 Bft) 97,87 %
01.10.2017 08:48 10,8 C 13,3 C 83 % 1019,7 hPa 0,0 l/m 1,1 km/h (1 Bft) NO 38 2 min 0,000 mm 0,0 UV-I 224 W/m 8,0 C 10,8 C 3,2 km/h (1 Bft) 97,87 %
01.10.2017 08:50 10,7 C 13,3 C 83 % 1019,7 hPa 0,0 l/m 0,3 km/h (0 Bft) NO 38 2 min 0,000 mm 0,0 UV-I 222 W/m 7,9 C 10,7 C 1,6 km/h (1 Bft) 95,74 %
01.10.2017 08:52 10,8 C 13,3 C 84 % 1019,8 hPa 0,0 l/m 0,9 km/h (0 Bft) NO 38 2 min 0,000 mm 0,4 UV-I 229 W/m 8,2 C 10,8 C 3,2 km/h (1 Bft) 95,74 %
01.10.2017 08:54 10,8 C 13,3 C 84 % 1019,8 hPa 0,0 l/m 1,0 km/h (0 Bft) NO 38 2 min 0,000 mm 0,5 UV-I 231 W/m 8,2 C 10,8 C 4,8 km/h (1 Bft) 100,00 %
01.10.2017 08:56 10,9 C 13,3 C 84 % 1019,8 hPa 0,0 l/m 0,7 km/h (0 Bft) NO 38 2 min 0,000 mm 0,5 UV-I 237 W/m 8,3 C 10,9 C 3,2 km/h (1 Bft) 100,00 %
01.10.2017 08:58 10,9 C 13,3 C 84 % 1019,8 hPa 0,0 l/m 0,3 km/h (0 Bft) NO 38 2 min 0,000 mm 0,5 UV-I 250 W/m 8,3 C 10,9 C 3,2 km/h (1 Bft) 100,00 %
01.10.2017 09:00 10,9 C 13,3 C 83 % 1019,8 hPa 0,0 l/m 0,3 km/h (0 Bft) NO 38 2 min 0,102 mm 0,6 UV-I 263 W/m 8,1 C 10,9 C 1,6 km/h (1 Bft) 100,00 %
01.10.2017 09:02 10,9 C 13,3 C 82 % 1019,9 hPa 0,0 l/m 0,2 km/h (0 Bft) NO 38 2 min 0,000 mm 0,6 UV-I 294 W/m 7,9 C 10,9 C 1,6 km/h (1 Bft) 100,00 %
01.10.2017 09:04 11,1 C 13,3 C 83 % 1019,9 hPa 0,0 l/m 1,5 km/h (1 Bft) NO 38 2 min 0,000 mm 0,6 UV-I 341 W/m 8,3 C 11,1 C 4,8 km/h (1 Bft) 100,00 %
01.10.2017 09:06 11,2 C 13,3 C 83 % 1019,9 hPa 0,0 l/m 3,7 km/h (1 Bft) NO 38 2 min 0,000 mm 0,6 UV-I 346 W/m 8,4 C 11,2 C 4,8 km/h (1 Bft) 100,00 %
01.10.2017 09:08 11,3 C 13,3 C 83 % 1020,0 hPa 0,0 l/m 1,2 km/h (1 Bft) NO 38 2 min 0,000 mm 0,7 UV-I 387 W/m 8,5 C 11,3 C 3,2 km/h (1 Bft) 100,00 %
01.10.2017 09:10 11,4 C 13,3 C 82 % 1020,0 hPa 0,0 l/m 1,3 km/h (1 Bft) NO 38 2 min 0,000 mm 0,7 UV-I 413 W/m 8,4 C 11,4 C 3,2 km/h (1 Bft) 100,00 %
01.10.2017 09:12 11,5 C 13,3 C 81 % 1020,0 hPa 0,0 l/m 1,0 km/h (0 Bft) NO 38 2 min 0,000 mm 0,7 UV-I 406 W/m 8,4 C 11,5 C 3,2 km/h (1 Bft) 100,00 %
01.10.2017 09:14 11,5 C 13,3 C 80 % 1020,0 hPa 0,0 l/m 0,8 km/h (0 Bft) NO 38 2 min 0,000 mm 0,7 UV-I 442 W/m 8,2 C 11,5 C 3,2 km/h (1 Bft) 100,00 %
01.10.2017 09:16 11,6 C 13,3 C 80 % 1020,0 hPa 0,0 l/m 1,7 km/h (1 Bft) NO 38 2 min 0,000 mm 0,8 UV-I 444 W/m 8,3 C 11,6 C 4,8 km/h (1 Bft) 100,00 %
01.10.2017 09:18 11,7 C 13,3 C 81 % 1020,0 hPa 0,0 l/m 1,9 km/h (1 Bft) NO 38 2 min 0,000 mm 0,8 UV-I 432 W/m 8,5 C 11,7 C 3,2 km/h (1 Bft) 100,00 %
01.10.2017 09:20 11,9 C 13,3 C 80 % 1020,1 hPa 0,0 l/m 1,3 km/h (1 Bft) N-NO 30 2 min 0,000 mm 0,8 UV-I 371 W/m 8,6 C 11,9 C 3,2 km/h (1 Bft) 100,00 %
01.10.2017 09:22 11,9 C 13,3 C 80 % 1020,1 hPa 0,0 l/m 1,9 km/h (1 Bft) N-NO 30 2 min 0,000 mm 0,8 UV-I 380 W/m 8,6 C 11,9 C 3,2 km/h (1 Bft) 100,00 %
01.10.2017 09:24 12,0 C 13,3 C 79 % 1020,1 hPa 0,0 l/m 1,3 km/h (1 Bft) N-NO 30 2 min 0,000 mm 0,8 UV-I 430 W/m 8,5 C 12,0 C 3,2 km/h (1 Bft) 100,00 %
01.10.2017 09:26 12,0 C 13,3 C 79 % 1020,1 hPa 0,0 l/m 0,7 km/h (0 Bft) N-NO 23 2 min 0,000 mm 0,9 UV-I 433 W/m 8,5 C 12,0 C 3,2 km/h (1 Bft) 95,74 %
01.10.2017 09:28 12,1 C 13,3 C 80 % 1020,1 hPa 0,0 l/m 2,7 km/h (1 Bft) NW 320 2 min 0,000 mm 0,9 UV-I 401 W/m 8,8 C 12,1 C 4,8 km/h (1 Bft) 100,00 %
01.10.2017 09:30 12,1 C 13,3 C 78 % 1020,1 hPa 0,0 l/m 3,1 km/h (1 Bft) NW 313 2 min 0,000 mm 0,9 UV-I 426 W/m 8,4 C 12,1 C 4,8 km/h (1 Bft) 97,87 %
01.10.2017 09:32 12,0 C 13,3 C 80 % 1020,1 hPa 0,0 l/m 1,2 km/h (1 Bft) N-NW 330 2 min 0,000 mm 0,9 UV-I 416 W/m 8,7 C 12,0 C 3,2 km/h (1 Bft) 97,92 %
01.10.2017 09:34 12,1 C 13,3 C 79 % 1020,1 hPa 0,0 l/m 1,6 km/h (1 Bft) N-NW 330 2 min 0,000 mm 0,9 UV-I 428 W/m 8,6 C 12,1 C 3,2 km/h (1 Bft) 100,00 %
01.10.2017 09:36 12,2 C 13,3 C 80 % 1020,2 hPa 0,0 l/m 1,3 km/h (1 Bft) N-NW 330 2 min 0,000 mm 0,9 UV-I 403 W/m 8,9 C 12,2 C 3,2 km/h (1 Bft) 98,00 %
01.10.2017 09:38 12,3 C 13,3 C 80 % 1020,2 hPa 0,0 l/m 1,2 km/h (1 Bft) N-NW 330 2 min 0,000 mm 0,9 UV-I 415 W/m 8,9 C 12,3 C 3,2 km/h (1 Bft) 95,74 %
01.10.2017 09:40 12,4 C 13,3 C 80 % 1020,3 hPa 0,0 l/m 2,5 km/h (1 Bft) N-NW 330 2 min 0,000 mm 0,9 UV-I 372 W/m 9,0 C 12,4 C 4,8 km/h (1 Bft) 100,00 %
01.10.2017 09:42 12,4 C 13,3 C 78 % 1020,3 hPa 0,0 l/m 1,4 km/h (1 Bft) N-NW 330 2 min 0,000 mm 0,9 UV-I 321 W/m 8,7 C 12,4 C 3,2 km/h (1 Bft) 100,00 %
01.10.2017 09:44 12,3 C 13,3 C 78 % 1020,4 hPa 0,0 l/m 0,9 km/h (0 Bft) N-NW 330 2 min 0,000 mm 0,9 UV-I 308 W/m 8,6 C 12,3 C 3,2 km/h (1 Bft) 95,74 %
01.10.2017 09:46 12,3 C 13,3 C 78 % 1020,4 hPa 0,0 l/m 1,8 km/h (1 Bft) N-NW 330 2 min 0,000 mm 0,9 UV-I 299 W/m 8,6 C 12,3 C 3,2 km/h (1 Bft) 100,00 %
01.10.2017 09:48 12,3 C 13,3 C 80 % 1020,4 hPa 0,0 l/m 0,5 km/h (0 Bft) N-NW 330 2 min 0,000 mm 0,9 UV-I 296 W/m 8,9 C 12,3 C 1,6 km/h (1 Bft) 94,29 %
01.10.2017 09:50 12,4 C 13,3 C 79 % 1020,4 hPa 0,0 l/m 0,4 km/h (0 Bft) N-NW 330 2 min 0,000 mm 0,9 UV-I 291 W/m 8,9 C 12,4 C 1,6 km/h (1 Bft) 100,00 %
01.10.2017 09:52 12,5 C 13,3 C 78 % 1020,4 hPa 0,0 l/m 0,8 km/h (0 Bft) N-NW 330 2 min 0,000 mm 0,9 UV-I 287 W/m 8,8 C 12,5 C 3,2 km/h (1 Bft) 95,74 %
01.10.2017 09:54 12,6 C 13,3 C 80 % 1020,4 hPa 0,0 l/m 1,3 km/h (1 Bft) NW 304 2 min 0,000 mm 0,9 UV-I 280 W/m 9,2 C 12,6 C 3,2 km/h (1 Bft) 97,87 %
01.10.2017 09:56 12,6 C 13,3 C 79 % 1020,5 hPa 0,0 l/m 0,7 km/h (0 Bft) NW 304 2 min 0,000 mm 0,9 UV-I 269 W/m 9,1 C 12,6 C 1,6 km/h (1 Bft) 97,87 %
01.10.2017 09:58 12,6 C 13,3 C 77 % 1020,5 hPa 0,0 l/m 0,3 km/h (0 Bft) NW 305 2 min 0,000 mm 0,9 UV-I 258 W/m 8,7 C 12,6 C 1,6 km/h (1 Bft) 98,00 %
01.10.2017 10:00 12,6 C 13,3 C 78 % 1020,5 hPa 0,0 l/m 0,6 km/h (0 Bft) NW 311 2 min 0,178 mm 0,9 UV-I 249 W/m 8,9 C 12,6 C 3,2 km/h (1 Bft) 98,00 %
01.10.2017 10:03 12,6 C 13,3 C 79 % 1020,5 hPa 0,0 l/m 1,1 km/h (1 Bft) NW 308 0 min 0,000 mm 0,8 UV-I 239 W/m 9,1 C 12,6 C 3,2 km/h (1 Bft) 94,59 %
01.10.2017 10:04 12,6 C 13,3 C 79 % 1020,5 hPa 0,0 l/m 1,2 km/h (1 Bft) W 279 0 min 0,000 mm 0,8 UV-I 231 W/m 9,1 C 12,6 C 6,4 km/h (2 Bft) 100,00 %
01.10.2017 10:06 12,6 C 13,3 C 79 % 1020,5 hPa 0,0 l/m 3,3 km/h (1 Bft) NW 321 0 min 0,000 mm 0,8 UV-I 228 W/m 9,1 C 12,6 C 8,0 km/h (2 Bft) 90,00 %
01.10.2017 10:08 12,6 C 13,3 C 79 % 1020,6 hPa 0,0 l/m 2,4 km/h (1 Bft) NW 314 0 min 0,000 mm 0,8 UV-I 219 W/m 9,1 C 12,6 C 4,8 km/h (1 Bft) 94,00 %
01.10.2017 10:10 12,6 C 13,3 C 78 % 1020,6 hPa 0,0 l/m 1,4 km/h (1 Bft) NW 315 0 min 0,000 mm 0,8 UV-I 210 W/m 8,9 C 12,6 C 3,2 km/h (1 Bft) 97,87 %
01.10.2017 10:12 12,6 C 13,3 C 79 % 1020,6 hPa 0,0 l/m 2,0 km/h (1 Bft) NW 310 0 min 0,000 mm 0,8 UV-I 204 W/m 9,1 C 12,6 C 3,2 km/h (1 Bft) 97,87 %
01.10.2017 10:14 12,6 C 13,3 C 79 % 1020,6 hPa 0,0 l/m 0,7 km/h (0 Bft) NW 311 0 min 0,000 mm 0,7 UV-I 193 W/m 9,1 C 12,6 C 3,2 km/h (1 Bft) 98,00 %
01.10.2017 10:16 12,6 C 13,3 C 78 % 1020,6 hPa 0,0 l/m 2,5 km/h (1 Bft) W-NW 298 0 min 0,000 mm 0,7 UV-I 188 W/m 8,9 C 12,6 C 6,4 km/h (2 Bft) 93,62 %
01.10.2017 10:18 12,6 C 13,3 C 77 % 1020,6 hPa 0,0 l/m 1,5 km/h (1 Bft) W-NW 296 0 min 0,000 mm 0,7 UV-I 183 W/m 8,7 C 12,6 C 3,2 km/h (1 Bft) 95,74 %
01.10.2017 10:20 12,6 C 13,3 C 78 % 1020,6 hPa 0,0 l/m 2,3 km/h (1 Bft) W 281 0 min 0,000 mm 0,7 UV-I 174 W/m 8,9 C 12,6 C 4,8 km/h (1 Bft) 95,74 %
01.10.2017 10:22 12,6 C 13,3 C 79 % 1020,6 hPa 0,0 l/m 2,9 km/h (1 Bft) W 266 0 min 0,000 mm 0,7 UV-I 164 W/m 9,1 C 12,6 C 6,4 km/h (2 Bft) 91,49 %
01.10.2017 10:24 12,6 C 13,3 C 78 % 1020,7 hPa 0,0 l/m 5,8 km/h (2 Bft) W 261 0 min 0,000 mm 0,7 UV-I 156 W/m 8,9 C 12,6 C 11,3 km/h (2 Bft) 95,74 %
01.10.2017 10:26 12,5 C 13,3 C 78 % 1020,7 hPa 0,0 l/m 1,0 km/h (0 Bft) W 261 0 min 0,000 mm 0,6 UV-I 150 W/m 8,8 C 12,5 C 3,2 km/h (1 Bft) 94,29 %
01.10.2017 10:28 12,4 C 13,3 C 78 % 1020,7 hPa 0,0 l/m 4,3 km/h (1 Bft) W 265 0 min 0,000 mm 0,6 UV-I 140 W/m 8,7 C 12,4 C 6,4 km/h (2 Bft) 95,74 %
01.10.2017 10:30 12,4 C 13,3 C 78 % 1020,7 hPa 0,0 l/m 5,1 km/h (1 Bft) SW 224 0 min 0,000 mm 0,5 UV-I 127 W/m 8,7 C 12,4 C 8,0 km/h (2 Bft) 95,74 %
01.10.2017 10:32 12,3 C 13,3 C 78 % 1020,8 hPa 0,0 l/m 4,9 km/h (1 Bft) W-SW 248 0 min 0,000 mm 0,5 UV-I 118 W/m 8,6 C 12,3 C 6,4 km/h (2 Bft) 93,62 %
01.10.2017 10:34 12,3 C 13,3 C 78 % 1020,7 hPa 0,0 l/m 1,3 km/h (1 Bft) W-SW 248 0 min 0,000 mm 0,5 UV-I 111 W/m 8,6 C 12,3 C 3,2 km/h (1 Bft) 95,74 %
01.10.2017 10:36 12,3 C 13,3 C 79 % 1020,8 hPa 0,0 l/m 0,2 km/h (0 Bft) W-SW 248 0 min 0,000 mm 0,5 UV-I 105 W/m 8,8 C 12,3 C 3,2 km/h (1 Bft) 95,83 %
01.10.2017 10:38 12,2 C 13,3 C 79 % 1020,8 hPa 0,0 l/m 3,7 km/h (1 Bft) W-NW 294 0 min 0,000 mm 0,5 UV-I 103 W/m 8,7 C 12,2 C 9,7 km/h (2 Bft) 91,84 %
01.10.2017 10:40 12,2 C 13,3 C 79 % 1020,9 hPa 0,0 l/m 5,7 km/h (1 Bft) W-NW 285 0 min 0,000 mm 0,4 UV-I 99 W/m 8,7 C 12,2 C 11,3 km/h (2 Bft) 93,62 %
01.10.2017 10:42 12,1 C 13,3 C 79 % 1020,8 hPa 0,0 l/m 4,9 km/h (1 Bft) W 270 0 min 0,000 mm 0,0 UV-I 97 W/m 8,6 C 12,1 C 9,7 km/h (2 Bft) 95,74 %
01.10.2017 10:44 12,1 C 13,3 C 79 % 1020,9 hPa 0,0 l/m 7,4 km/h (2 Bft) W-SW 242 0 min 0,000 mm 0,4 UV-I 97 W/m 8,6 C 11,4 C 12,9 km/h (3 Bft) 95,65 %
01.10.2017 10:46 12,0 C 13,3 C 79 % 1020,9 hPa 0,0 l/m 5,4 km/h (1 Bft) W 266 0 min 0,000 mm 0,5 UV-I 98 W/m 8,5 C 12,0 C 9,7 km/h (2 Bft) 94,00 %
01.10.2017 10:48 12,0 C 13,3 C 80 % 1020,9 hPa 0,0 l/m 2,5 km/h (1 Bft) W-NW 290 0 min 0,000 mm 0,5 UV-I 103 W/m 8,7 C 12,0 C 4,8 km/h (1 Bft) 94,00 %
01.10.2017 10:50 12,1 C 13,3 C 80 % 1021,0 hPa 0,0 l/m 3,2 km/h (1 Bft) W-SW 248 0 min 0,000 mm 0,5 UV-I 106 W/m 8,8 C 12,1 C 6,4 km/h (2 Bft) 95,74 %
01.10.2017 10:52 12,1 C 13,3 C 79 % 1021,0 hPa 0,0 l/m 3,3 km/h (1 Bft) W 271 0 min 0,000 mm 0,5 UV-I 110 W/m 8,6 C 12,1 C 6,4 km/h (2 Bft) 95,74 %
01.10.2017 10:54 12,1 C 13,3 C 80 % 1021,0 hPa 0,0 l/m 2,6 km/h (1 Bft) W 266 0 min 0,000 mm 0,5 UV-I 113 W/m 8,8 C 12,1 C 4,8 km/h (1 Bft) 100,00 %
01.10.2017 10:56 12,1 C 13,3 C 79 % 1021,0 hPa 0,0 l/m 5,9 km/h (2 Bft) W 269 0 min 0,000 mm 0,6 UV-I 115 W/m 8,6 C 12,1 C 9,7 km/h (2 Bft) 92,00 %
01.10.2017 10:58 12,0 C 13,3 C 80 % 1021,0 hPa 0,0 l/m 3,0 km/h (1 Bft) W-SW 257 0 min 0,000 mm 0,6 UV-I 118 W/m 8,7 C 12,0 C 4,8 km/h (1 Bft) 95,74 %
01.10.2017 11:00 12,1 C 13,3 C 80 % 1021,0 hPa 0,0 l/m 7,3 km/h (2 Bft) W-SW 258 0 min 0,076 mm 0,6 UV-I 115 W/m 8,8 C 11,5 C 11,3 km/h (2 Bft) 96,00 %
01.10.2017 11:02 12,1 C 13,3 C 80 % 1021,0 hPa 0,0 l/m 4,4 km/h (1 Bft) SW 225 0 min 0,000 mm 0,6 UV-I 112 W/m 8,8 C 12,1 C 8,0 km/h (2 Bft) 97,87 %
01.10.2017 11:06 12,1 C 13,3 C 80 % 1021,1 hPa 0,0 l/m 4,6 km/h (1 Bft) W-SW 258 0 min 0,000 mm 0,5 UV-I 104 W/m 8,8 C 12,1 C 8,0 km/h (2 Bft) 95,83 %
01.10.2017 11:10 12,1 C 13,3 C 80 % 1021,0 hPa 0,0 l/m 4,8 km/h (1 Bft) W 270 0 min 0,000 mm 0,6 UV-I 104 W/m 8,8 C 12,1 C 9,7 km/h (2 Bft) 97,37 %
01.10.2017 11:15 12,1 C 13,3 C 81 % 1021,0 hPa 0,0 l/m 6,4 km/h (2 Bft) W 270 0 min 0,000 mm 0,6 UV-I 113 W/m 8,9 C 12,1 C 12,9 km/h (3 Bft) 98,25 %
01.10.2017 11:20 12,1 C 13,3 C 81 % 1021,1 hPa 0,0 l/m 6,4 km/h (2 Bft) W-SW 247 0 min 0,000 mm 0,7 UV-I 119 W/m 8,9 C 12,1 C 12,9 km/h (3 Bft) 98,25 %
01.10.2017 11:24 12,1 C 13,3 C 81 % 1021,1 hPa 0,0 l/m 7,9 km/h (2 Bft) W-SW 254 0 min 0,000 mm 0,7 UV-I 125 W/m 8,9 C 11,1 C 11,3 km/h (2 Bft) 100,00 %
01.10.2017 11:26 12,1 C 13,3 C 81 % 1021,1 hPa 0,0 l/m 7,7 km/h (2 Bft) W-SW 239 0 min 0,000 mm 0,7 UV-I 126 W/m 8,9 C 11,2 C 11,3 km/h (2 Bft) 100,00 %
01.10.2017 11:28 12,1 C 13,3 C 80 % 1021,2 hPa 0,0 l/m 7,0 km/h (2 Bft) W-SW 249 0 min 0,000 mm 0,7 UV-I 127 W/m 8,8 C 11,7 C 9,7 km/h (2 Bft) 100,00 %
01.10.2017 11:30 12,1 C 13,3 C 80 % 1021,2 hPa 0,0 l/m 5,9 km/h (2 Bft) W-SW 250 0 min 0,000 mm 0,7 UV-I 128 W/m 8,8 C 12,1 C 9,7 km/h (2 Bft) 100,00 %
01.10.2017 11:32 12,1 C 13,3 C 81 % 1021,2 hPa 0,0 l/m 3,5 km/h (1 Bft) SW 231 0 min 0,000 mm 0,7 UV-I 127 W/m 8,9 C 12,1 C 4,8 km/h (1 Bft) 100,00 %
01.10.2017 11:34 12,1 C 13,3 C 81 % 1021,2 hPa 0,0 l/m 5,8 km/h (2 Bft) W-SW 238 0 min 0,000 mm 0,7 UV-I 129 W/m 8,9 C 12,1 C 9,7 km/h (2 Bft) 100,00 %
01.10.2017 11:36 12,2 C 13,3 C 81 % 1021,2 hPa 0,0 l/m 5,3 km/h (1 Bft) SW 214 0 min 0,000 mm 0,7 UV-I 131 W/m 9,0 C 12,2 C 8,0 km/h (2 Bft) 100,00 %
01.10.2017 11:38 12,2 C 13,3 C 81 % 1021,2 hPa 0,0 l/m 6,8 km/h (2 Bft) W-SW 255 0 min 0,000 mm 0,7 UV-I 136 W/m 9,0 C 11,9 C 11,3 km/h (2 Bft) 100,00 %
01.10.2017 11:40 12,2 C 13,3 C 81 % 1021,2 hPa 0,0 l/m 5,1 km/h (1 Bft) W-SW 254 0 min 0,000 mm 0,8 UV-I 141 W/m 9,0 C 12,2 C 8,0 km/h (2 Bft) 100,00 %
01.10.2017 11:42 12,3 C 13,3 C 80 % 1021,2 hPa 0,0 l/m 5,8 km/h (2 Bft) W 271 0 min 0,000 mm 0,8 UV-I 143 W/m 8,9 C 12,3 C 9,7 km/h (2 Bft) 100,00 %
01.10.2017 11:44 12,3 C 13,3 C 80 % 1021,2 hPa 0,0 l/m 6,1 km/h (2 Bft) W 264 0 min 0,000 mm 0,8 UV-I 147 W/m 8,9 C 12,3 C 9,7 km/h (2 Bft) 100,00 %
01.10.2017 11:46 12,3 C 13,3 C 81 % 1021,2 hPa 0,0 l/m 4,0 km/h (1 Bft) W-SW 242 0 min 0,000 mm 0,8 UV-I 147 W/m 9,1 C 12,3 C 6,4 km/h (2 Bft) 100,00 %
01.10.2017 11:48 12,4 C 13,3 C 82 % 1021,2 hPa 0,0 l/m 3,9 km/h (1 Bft) SW 232 0 min 0,000 mm 0,8 UV-I 142 W/m 9,4 C 12,4 C 6,4 km/h (2 Bft) 100,00 %
01.10.2017 11:50 12,4 C 13,3 C 82 % 1021,2 hPa 0,0 l/m 5,2 km/h (1 Bft) S-SW 202 0 min 0,000 mm 0,7 UV-I 136 W/m 9,4 C 12,4 C 9,7 km/h (2 Bft) 100,00 %
01.10.2017 11:52 12,4 C 13,3 C 81 % 1021,2 hPa 0,0 l/m 6,6 km/h (2 Bft) W-SW 239 0 min 0,000 mm 0,7 UV-I 133 W/m 9,2 C 12,3 C 11,3 km/h (2 Bft) 100,00 %
01.10.2017 11:54 12,4 C 13,3 C 81 % 1021,2 hPa 0,0 l/m 4,3 km/h (1 Bft) S-SW 212 0 min 0,000 mm 0,7 UV-I 129 W/m 9,2 C 12,4 C 8,0 km/h (2 Bft) 100,00 %
01.10.2017 11:55 12,4 C 13,3 C 81 % 1021,2 hPa 0,0 l/m 4,8 km/h (1 Bft) S-SW 202 0 min 0,000 mm 0,7 UV-I 129 W/m 9,2 C 12,4 C 11,3 km/h (2 Bft) 98,25 %
01.10.2017 12:02 12,4 C 13,3 C 82 % 1021,2 hPa 0,0 l/m 8,5 km/h (2 Bft) W 272 0 min 0,076 mm 0,7 UV-I 126 W/m 9,4 C 11,1 C 12,9 km/h (3 Bft) 100,00 %
01.10.2017 12:04 12,4 C 13,3 C 82 % 1021,2 hPa 0,0 l/m 8,2 km/h (2 Bft) W-SW 257 0 min 0,000 mm 0,7 UV-I 127 W/m 9,4 C 11,3 C 11,3 km/h (2 Bft) 100,00 %
01.10.2017 12:06 12,5 C 13,3 C 83 % 1021,2 hPa 0,0 l/m 5,6 km/h (1 Bft) W-SW 253 0 min 0,000 mm 0,7 UV-I 130 W/m 9,7 C 12,5 C 9,7 km/h (2 Bft) 100,00 %
01.10.2017 12:08 12,6 C 13,3 C 83 % 1021,2 hPa 0,0 l/m 6,4 km/h (2 Bft) W-SW 252 0 min 0,000 mm 0,7 UV-I 121 W/m 9,8 C 12,6 C 11,3 km/h (2 Bft) 98,11 %
01.10.2017 12:10 12,6 C 13,3 C 84 % 1021,3 hPa 0,0 l/m 6,3 km/h (2 Bft) SW 223 0 min 0,000 mm 0,6 UV-I 111 W/m 10,0 C 12,6 C 12,9 km/h (3 Bft) 96,23 %
01.10.2017 12:12 12,6 C 13,3 C 84 % 1021,3 hPa 0,0 l/m 9,9 km/h (2 Bft) SW 234 0 min 0,000 mm 0,6 UV-I 111 W/m 10,0 C 10,5 C 14,5 km/h (3 Bft) 100,00 %
01.10.2017 12:14 12,6 C 13,3 C 84 % 1021,3 hPa 0,0 l/m 10,7 km/h (2 Bft) SW 232 0 min 0,000 mm 0,7 UV-I 119 W/m 10,0 C 10,1 C 17,7 km/h (3 Bft) 100,00 %
01.10.2017 12:16 12,6 C 13,3 C 85 % 1021,3 hPa 0,0 l/m 9,7 km/h (2 Bft) W-SW 257 0 min 0,000 mm 0,6 UV-I 110 W/m 10,1 C 10,6 C 14,5 km/h (3 Bft) 97,92 %
01.10.2017 12:18 12,6 C 13,3 C 85 % 1021,3 hPa 0,0 l/m 11,6 km/h (2 Bft) W-SW 258 0 min 0,000 mm 0,6 UV-I 96 W/m 10,1 C 9,7 C 16,1 km/h (3 Bft) 98,11 %
01.10.2017 12:20 12,6 C 13,3 C 85 % 1021,3 hPa 0,0 l/m 6,2 km/h (2 Bft) W 269 0 min 0,000 mm 0,6 UV-I 98 W/m 10,1 C 12,6 C 11,3 km/h (2 Bft) 96,30 %
01.10.2017 12:22 12,6 C 13,3 C 86 % 1021,3 hPa 0,0 l/m 6,2 km/h (2 Bft) W-SW 254 0 min 0,000 mm 0,6 UV-I 105 W/m 10,3 C 12,6 C 9,7 km/h (2 Bft) 93,44 %
01.10.2017 12:24 12,6 C 13,3 C 86 % 1021,3 hPa 0,0 l/m 6,9 km/h (2 Bft) W-SW 254 0 min 0,000 mm 0,7 UV-I 112 W/m 10,3 C 12,3 C 12,9 km/h (3 Bft) 98,21 %
01.10.2017 12:26 12,6 C 13,3 C 87 % 1021,3 hPa 0,0 l/m 6,3 km/h (2 Bft) W-SW 256 0 min 0,000 mm 0,7 UV-I 118 W/m 10,5 C 12,6 C 11,3 km/h (2 Bft) 97,56 %
01.10.2017 12:28 12,6 C 13,3 C 87 % 1021,3 hPa 0,0 l/m 7,3 km/h (2 Bft) W 266 0 min 0,000 mm 0,8 UV-I 121 W/m 10,5 C 12,0 C 11,3 km/h (2 Bft) 98,00 %
01.10.2017 12:30 12,6 C 13,3 C 87 % 1021,3 hPa 0,0 l/m 5,2 km/h (1 Bft) S-SW 213 0 min 0,000 mm 0,7 UV-I 115 W/m 10,5 C 12,6 C 9,7 km/h (2 Bft) 97,92 %
01.10.2017 12:32 12,6 C 13,3 C 87 % 1021,3 hPa 0,0 l/m 4,8 km/h (1 Bft) W-SW 242 0 min 0,000 mm 0,7 UV-I 112 W/m 10,5 C 12,6 C 9,7 km/h (2 Bft) 95,74 %
01.10.2017 12:34 12,7 C 13,3 C 87 % 1021,3 hPa 0,0 l/m 6,2 km/h (2 Bft) W-SW 244 0 min 0,000 mm 0,7 UV-I 113 W/m 10,6 C 12,7 C 9,7 km/h (2 Bft) 97,87 %
01.10.2017 12:36 12,7 C 13,3 C 87 % 1021,3 hPa 0,0 l/m 6,3 km/h (2 Bft) SW 228 0 min 0,000 mm 0,7 UV-I 114 W/m 10,6 C 12,7 C 9,7 km/h (2 Bft) 97,56 %
01.10.2017 12:38 12,7 C 13,3 C 87 % 1021,3 hPa 0,0 l/m 8,3 km/h (2 Bft) W 265 0 min 0,000 mm 0,7 UV-I 111 W/m 10,6 C 11,5 C 12,9 km/h (3 Bft) 97,73 %
01.10.2017 12:40 12,7 C 13,3 C 87 % 1021,3 hPa 0,0 l/m 7,3 km/h (2 Bft) SW 221 0 min 0,000 mm 0,7 UV-I 111 W/m 10,6 C 12,1 C 11,3 km/h (2 Bft) 96,00 %
01.10.2017 12:42 12,7 C 13,3 C 87 % 1021,3 hPa 0,0 l/m 6,3 km/h (2 Bft) W 269 0 min 0,000 mm 0,7 UV-I 109 W/m 10,6 C 12,7 C 9,7 km/h (2 Bft) 97,56 %
01.10.2017 12:44 12,7 C 13,3 C 87 % 1021,3 hPa 0,0 l/m 7,1 km/h (2 Bft) W-SW 246 0 min 0,000 mm 0,6 UV-I 105 W/m 10,6 C 12,3 C 11,3 km/h (2 Bft) 97,37 %
01.10.2017 12:46 12,8 C 13,3 C 87 % 1021,4 hPa 0,0 l/m 7,0 km/h (2 Bft) SW 217 0 min 0,000 mm 0,6 UV-I 105 W/m 10,7 C 12,4 C 11,3 km/h (2 Bft) 100,00 %
01.10.2017 12:48 12,8 C 13,3 C 87 % 1021,4 hPa 0,0 l/m 6,8 km/h (2 Bft) W 261 0 min 0,000 mm 0,6 UV-I 110 W/m 10,7 C 12,6 C 11,3 km/h (2 Bft) 100,00 %
01.10.2017 12:50 12,8 C 13,3 C 87 % 1021,3 hPa 0,0 l/m 5,4 km/h (1 Bft) W 281 0 min 0,000 mm 0,7 UV-I 125 W/m 10,7 C 12,8 C 8,0 km/h (2 Bft) 100,00 %
01.10.2017 12:52 12,8 C 13,3 C 87 % 1021,4 hPa 0,0 l/m 7,1 km/h (2 Bft) W 273 0 min 0,000 mm 0,8 UV-I 139 W/m 10,7 C 12,4 C 11,3 km/h (2 Bft) 100,00 %
01.10.2017 12:54 12,8 C 13,3 C 87 % 1021,4 hPa 0,0 l/m 6,2 km/h (2 Bft) W 259 0 min 0,000 mm 0,9 UV-I 150 W/m 10,7 C 12,8 C 9,7 km/h (2 Bft) 100,00 %
01.10.2017 12:56 12,8 C 13,3 C 88 % 1021,4 hPa 0,0 l/m 6,4 km/h (2 Bft) W 262 0 min 0,000 mm 0,9 UV-I 157 W/m 10,9 C 12,8 C 9,7 km/h (2 Bft) 100,00 %
01.10.2017 12:58 12,8 C 13,3 C 88 % 1021,4 hPa 0,0 l/m 4,0 km/h (1 Bft) W-SW 252 0 min 0,000 mm 0,9 UV-I 158 W/m 10,9 C 12,8 C 6,4 km/h (2 Bft) 100,00 %
01.10.2017 13:00 12,9 C 13,3 C 88 % 1021,4 hPa 0,0 l/m 4,4 km/h (1 Bft) SW 214 0 min 0,076 mm 1,0 UV-I 158 W/m 11,0 C 12,9 C 6,4 km/h (2 Bft) 100,00 %
01.10.2017 13:02 12,9 C 13,3 C 88 % 1021,4 hPa 0,0 l/m 5,0 km/h (1 Bft) W 266 0 min 0,000 mm 1,0 UV-I 157 W/m 11,0 C 12,9 C 9,7 km/h (2 Bft) 100,00 %
01.10.2017 13:04 13,0 C 13,3 C 88 % 1021,4 hPa 0,0 l/m 4,6 km/h (1 Bft) W 259 0 min 0,000 mm 0,9 UV-I 156 W/m 11,1 C 13,0 C 6,4 km/h (2 Bft) 98,00 %
01.10.2017 13:06 13,0 C 13,3 C 88 % 1021,4 hPa 0,0 l/m 4,6 km/h (1 Bft) SW 236 0 min 0,000 mm 1,0 UV-I 161 W/m 11,1 C 13,0 C 9,7 km/h (2 Bft) 100,00 %
01.10.2017 13:08 13,1 C 13,3 C 88 % 1021,4 hPa 0,0 l/m 4,9 km/h (1 Bft) W 263 0 min 0,000 mm 0,9 UV-I 163 W/m 11,2 C 13,1 C 8,0 km/h (2 Bft) 97,87 %
01.10.2017 13:10 13,2 C 13,3 C 88 % 1021,3 hPa 0,0 l/m 4,0 km/h (1 Bft) SW 227 0 min 0,000 mm 1,1 UV-I 183 W/m 11,3 C 13,2 C 6,4 km/h (2 Bft) 96,00 %
01.10.2017 13:12 13,2 C 13,3 C 88 % 1021,4 hPa 0,0 l/m 4,9 km/h (1 Bft) SW 231 0 min 0,000 mm 1,0 UV-I 188 W/m 11,3 C 13,2 C 11,3 km/h (2 Bft) 100,00 %
01.10.2017 13:14 13,2 C 13,3 C 88 % 1021,4 hPa 0,0 l/m 6,0 km/h (2 Bft) W-SW 254 0 min 0,000 mm 1,0 UV-I 178 W/m 11,3 C 13,2 C 9,7 km/h (2 Bft) 100,00 %
01.10.2017 13:16 13,2 C 13,3 C 88 % 1021,4 hPa 0,0 l/m 4,9 km/h (1 Bft) S 182 0 min 0,000 mm 0,9 UV-I 164 W/m 11,3 C 13,2 C 9,7 km/h (2 Bft) 100,00 %
01.10.2017 13:18 13,2 C 13,3 C 88 % 1021,3 hPa 0,0 l/m 4,4 km/h (1 Bft) W 263 0 min 0,000 mm 0,9 UV-I 162 W/m 11,3 C 13,2 C 6,4 km/h (2 Bft) 100,00 %
01.10.2017 13:20 13,2 C 13,3 C 88 % 1021,3 hPa 0,0 l/m 5,2 km/h (1 Bft) W 261 0 min 0,000 mm 0,8 UV-I 150 W/m 11,3 C 13,2 C 9,7 km/h (2 Bft) 100,00 %
01.10.2017 13:22 13,2 C 13,3 C 88 % 1021,4 hPa 0,0 l/m 4,4 km/h (1 Bft) W-SW 252 0 min 0,000 mm 0,9 UV-I 158 W/m 11,3 C 13,2 C 6,4 km/h (2 Bft) 100,00 %
01.10.2017 13:24 13,2 C 13,3 C 88 % 1021,3 hPa 0,0 l/m 4,0 km/h (1 Bft) W-SW 240 0 min 0,000 mm 0,8 UV-I 154 W/m 11,3 C 13,2 C 4,8 km/h (1 Bft) 100,00 %
01.10.2017 13:26 13,2 C 13,3 C 89 % 1021,4 hPa 0,0 l/m 4,0 km/h (1 Bft) W-SW 240 0 min 0,000 mm 0,8 UV-I 153 W/m 11,4 C 13,2 C 6,4 km/h (2 Bft) 100,00 %
01.10.2017 13:28 13,3 C 13,3 C 89 % 1021,3 hPa 0,0 l/m 4,0 km/h (1 Bft) W-SW 255 0 min 0,000 mm 0,8 UV-I 150 W/m 11,5 C 13,3 C 6,4 km/h (2 Bft) 97,87 %
01.10.2017 13:30 13,3 C 13,3 C 89 % 1021,3 hPa 0,0 l/m 2,3 km/h (1 Bft) W-SW 255 0 min 0,000 mm 0,7 UV-I 136 W/m 11,5 C 13,3 C 4,8 km/h (1 Bft) 100,00 %
01.10.2017 13:32 13,3 C 13,3 C 89 % 1021,3 hPa 0,0 l/m 4,9 km/h (1 Bft) W-SW 248 0 min 0,000 mm 0,8 UV-I 146 W/m 11,5 C 13,3 C 8,0 km/h (2 Bft) 97,73 %
01.10.2017 13:34 13,3 C 13,3 C 89 % 1021,3 hPa 0,0 l/m 2,5 km/h (1 Bft) W-SW 248 0 min 0,000 mm 0,8 UV-I 143 W/m 11,5 C 13,3 C 6,4 km/h (2 Bft) 100,00 %
01.10.2017 13:36 13,3 C 13,3 C 89 % 1021,3 hPa 0,0 l/m 5,6 km/h (1 Bft) W-SW 241 0 min 0,000 mm 0,8 UV-I 139 W/m 11,5 C 13,3 C 6,4 km/h (2 Bft) 100,00 %
01.10.2017 13:38 13,3 C 13,3 C 89 % 1021,2 hPa 0,0 l/m 6,7 km/h (2 Bft) W 265 0 min 0,000 mm 0,7 UV-I 135 W/m 11,5 C 13,1 C 12,9 km/h (3 Bft) 100,00 %
01.10.2017 13:40 13,3 C 13,3 C 89 % 1021,2 hPa 0,0 l/m 8,3 km/h (2 Bft) W-SW 248 0 min 0,000 mm 0,7 UV-I 132 W/m 11,5 C 12,1 C 14,5 km/h (3 Bft) 100,00 %
01.10.2017 13:42 13,3 C 13,3 C 89 % 1021,2 hPa 0,0 l/m 7,1 km/h (2 Bft) SW 236 0 min 0,000 mm 0,7 UV-I 126 W/m 11,5 C 12,9 C 11,3 km/h (2 Bft) 100,00 %
01.10.2017 13:44 13,3 C 13,3 C 89 % 1021,2 hPa 0,0 l/m 6,3 km/h (2 Bft) W-SW 253 0 min 0,000 mm 0,7 UV-I 127 W/m 11,5 C 13,3 C 11,3 km/h (2 Bft) 100,00 %
01.10.2017 13:46 13,2 C 13,3 C 89 % 1021,2 hPa 0,0 l/m 6,5 km/h (2 Bft) W-SW 243 0 min 0,000 mm 0,7 UV-I 116 W/m 11,4 C 13,2 C 11,3 km/h (2 Bft) 100,00 %
01.10.2017 13:48 13,2 C 13,3 C 90 % 1021,2 hPa 0,0 l/m 5,3 km/h (1 Bft) W-SW 257 0 min 0,000 mm 0,6 UV-I 107 W/m 11,6 C 13,2 C 8,0 km/h (2 Bft) 100,00 %
01.10.2017 13:50 13,2 C 13,3 C 90 % 1021,2 hPa 0,0 l/m 4,9 km/h (1 Bft) SW 227 0 min 0,000 mm 0,6 UV-I 96 W/m 11,6 C 13,2 C 6,4 km/h (2 Bft) 100,00 %
01.10.2017 13:52 13,2 C 13,3 C 90 % 1021,1 hPa 0,0 l/m 5,2 km/h (1 Bft) W-SW 243 0 min 0,000 mm 0,6 UV-I 96 W/m 11,6 C 13,2 C 11,3 km/h (2 Bft) 100,00 %
01.10.2017 13:54 13,2 C 13,3 C 91 % 1021,2 hPa 0,0 l/m 4,4 km/h (1 Bft) W 263 0 min 0,000 mm 0,7 UV-I 113 W/m 11,8 C 13,2 C 6,4 km/h (2 Bft) 100,00 %
01.10.2017 13:56 13,2 C 13,3 C 91 % 1021,1 hPa 0,0 l/m 3,4 km/h (1 Bft) W 281 0 min 0,000 mm 0,8 UV-I 132 W/m 11,8 C 13,2 C 4,8 km/h (1 Bft) 100,00 %
01.10.2017 13:58 13,2 C 13,3 C 91 % 1021,1 hPa 0,0 l/m 3,4 km/h (1 Bft) W 273 0 min 0,000 mm 0,7 UV-I 132 W/m 11,8 C 13,2 C 6,4 km/h (2 Bft) 98,11 %
01.10.2017 14:00 13,2 C 13,3 C 91 % 1021,2 hPa 0,0 l/m 3,9 km/h (1 Bft) W 280 0 min 0,077 mm 0,7 UV-I 132 W/m 11,8 C 13,2 C 6,4 km/h (2 Bft) 100,00 %
01.10.2017 14:02 13,2 C 13,3 C 91 % 1021,2 hPa 0,0 l/m 7,8 km/h (2 Bft) W-SW 246 0 min 0,000 mm 0,7 UV-I 123 W/m 11,8 C 12,3 C 12,9 km/h (3 Bft) 96,00 %
01.10.2017 14:04 13,2 C 13,3 C 91 % 1021,2 hPa 0,0 l/m 6,5 km/h (2 Bft) W-SW 250 0 min 0,000 mm 0,6 UV-I 119 W/m 11,8 C 13,2 C 11,3 km/h (2 Bft) 97,37 %
01.10.2017 14:06 13,2 C 13,3 C 91 % 1021,2 hPa 0,0 l/m 6,1 km/h (2 Bft) W-NW 296 0 min 0,000 mm 0,6 UV-I 117 W/m 11,8 C 13,2 C 11,3 km/h (2 Bft) 96,23 %
01.10.2017 14:08 13,2 C 13,3 C 91 % 1021,2 hPa 0,0 l/m 6,2 km/h (2 Bft) W-NW 294 0 min 0,000 mm 0,6 UV-I 116 W/m 11,8 C 13,2 C 9,7 km/h (2 Bft) 97,73 %
01.10.2017 14:10 13,2 C 13,3 C 92 % 1021,2 hPa 0,0 l/m 4,3 km/h (1 Bft) W 281 0 min 0,000 mm 0,6 UV-I 114 W/m 11,9 C 13,2 C 6,4 km/h (2 Bft) 96,23 %
01.10.2017 14:12 13,2 C 13,3 C 92 % 1021,2 hPa 0,0 l/m 1,9 km/h (1 Bft) W 281 0 min 0,000 mm 0,6 UV-I 110 W/m 11,9 C 13,2 C 3,2 km/h (1 Bft) 95,74 %
01.10.2017 14:14 13,3 C 13,3 C 92 % 1021,2 hPa 0,0 l/m 0,4 km/h (0 Bft) W-NW 303 0 min 0,000 mm 0,6 UV-I 114 W/m 12,0 C 13,3 C 3,2 km/h (1 Bft) 92,11 %
01.10.2017 14:16 13,3 C 13,3 C 92 % 1021,2 hPa 0,0 l/m 2,4 km/h (1 Bft) W 279 0 min 0,000 mm 0,2 UV-I 91 W/m 12,0 C 13,3 C 4,8 km/h (1 Bft) 96,00 %
01.10.2017 14:18 13,3 C 13,3 C 92 % 1021,2 hPa 0,0 l/m 2,2 km/h (1 Bft) W 279 0 min 0,000 mm 0,0 UV-I 74 W/m 12,0 C 13,3 C 4,8 km/h (1 Bft) 95,00 %
01.10.2017 14:20 13,3 C 13,3 C 92 % 1021,2 hPa 0,0 l/m 0,4 km/h (0 Bft) W 279 0 min 0,000 mm 0,0 UV-I 69 W/m 12,0 C 13,3 C 1,6 km/h (1 Bft) 94,87 %
01.10.2017 14:22 13,2 C 13,3 C 92 % 1021,2 hPa 0,0 l/m 3,2 km/h (1 Bft) W-NW 288 0 min 0,000 mm 0,0 UV-I 62 W/m 11,9 C 13,2 C 6,4 km/h (2 Bft) 95,31 %
01.10.2017 14:24 13,2 C 13,3 C 92 % 1021,2 hPa 0,0 l/m 1,9 km/h (1 Bft) W-NW 293 0 min 0,000 mm 0,0 UV-I 66 W/m 11,9 C 13,2 C 4,8 km/h (1 Bft) 94,00 %
01.10.2017 14:26 13,2 C 13,3 C 93 % 1021,2 hPa 0,0 l/m 1,8 km/h (1 Bft) W-NW 294 0 min 0,000 mm 0,0 UV-I 67 W/m 12,1 C 13,2 C 4,8 km/h (1 Bft) 94,87 %
01.10.2017 14:28 13,2 C 13,3 C 93 % 1021,2 hPa 0,0 l/m 1,1 km/h (1 Bft) W-NW 294 0 min 0,000 mm 0,0 UV-I 66 W/m 12,1 C 13,2 C 3,2 km/h (1 Bft) 95,74 %
01.10.2017 14:30 13,2 C 13,3 C 93 % 1021,2 hPa 0,0 l/m 0,6 km/h (0 Bft) W-NW 294 0 min 0,000 mm 0,0 UV-I 73 W/m 12,1 C 13,2 C 3,2 km/h (1 Bft) 96,00 %
01.10.2017 14:32 13,1 C 13,3 C 93 % 1021,3 hPa 0,0 l/m 2,3 km/h (1 Bft) W-SW 257 0 min 0,000 mm 0,0 UV-I 78 W/m 12,0 C 13,1 C 6,4 km/h (2 Bft) 95,74 %
01.10.2017 14:34 13,1 C 13,3 C 93 % 1021,3 hPa 0,0 l/m 2,4 km/h (1 Bft) W 273 0 min 0,000 mm 0,0 UV-I 78 W/m 12,0 C 13,1 C 4,8 km/h (1 Bft) 95,74 %
01.10.2017 14:36 13,1 C 13,3 C 93 % 1021,2 hPa 0,0 l/m 3,1 km/h (1 Bft) W-NW 301 0 min 0,000 mm 0,2 UV-I 93 W/m 12,0 C 13,1 C 4,8 km/h (1 Bft) 95,12 %
01.10.2017 14:38 13,1 C 13,3 C 93 % 1021,2 hPa 0,0 l/m 2,3 km/h (1 Bft) W 276 0 min 0,000 mm 0,6 UV-I 128 W/m 12,0 C 13,1 C 4,8 km/h (1 Bft) 94,64 %
01.10.2017 14:40 13,1 C 13,3 C 93 % 1021,2 hPa 0,0 l/m 1,8 km/h (1 Bft) W-NW 300 0 min 0,000 mm 1,0 UV-I 169 W/m 12,0 C 13,1 C 6,4 km/h (2 Bft) 93,62 %
01.10.2017 14:42 13,2 C 13,3 C 94 % 1021,2 hPa 0,0 l/m 1,3 km/h (1 Bft) W-NW 292 0 min 0,000 mm 1,1 UV-I 202 W/m 12,3 C 13,2 C 3,2 km/h (1 Bft) 97,37 %
01.10.2017 14:44 13,3 C 13,3 C 94 % 1021,2 hPa 0,0 l/m 2,2 km/h (1 Bft) W 279 0 min 0,000 mm 1,1 UV-I 213 W/m 12,4 C 13,3 C 4,8 km/h (1 Bft) 97,87 %
01.10.2017 14:46 13,3 C 13,3 C 94 % 1021,3 hPa 0,0 l/m 1,1 km/h (1 Bft) W 279 0 min 0,000 mm 0,9 UV-I 182 W/m 12,4 C 13,3 C 3,2 km/h (1 Bft) 98,00 %
01.10.2017 14:48 13,4 C 13,3 C 93 % 1021,2 hPa 0,0 l/m 0,7 km/h (0 Bft) W 280 0 min 0,000 mm 0,6 UV-I 126 W/m 12,3 C 13,4 C 3,2 km/h (1 Bft) 94,00 %
01.10.2017 14:50 13,6 C 13,3 C 94 % 1021,3 hPa 0,0 l/m 1,6 km/h (1 Bft) N 350 0 min 0,000 mm 0,5 UV-I 106 W/m 12,7 C 13,6 C 4,8 km/h (1 Bft) 100,00 %
01.10.2017 14:52 13,5 C 13,3 C 93 % 1021,3 hPa 0,0 l/m 1,9 km/h (1 Bft) NW 314 0 min 0,000 mm 0,5 UV-I 111 W/m 12,4 C 13,5 C 6,4 km/h (2 Bft) 96,61 %
01.10.2017 14:54 13,5 C 13,3 C 93 % 1021,3 hPa 0,0 l/m 1,2 km/h (1 Bft) SW 232 0 min 0,000 mm 0,6 UV-I 116 W/m 12,4 C 13,5 C 4,8 km/h (1 Bft) 97,56 %
01.10.2017 14:56 13,6 C 13,3 C 93 % 1021,3 hPa 0,0 l/m 2,0 km/h (1 Bft) W-SW 247 0 min 0,000 mm 0,6 UV-I 127 W/m 12,5 C 13,6 C 8,0 km/h (2 Bft) 97,87 %
01.10.2017 14:58 13,4 C 13,3 C 93 % 1021,3 hPa 0,0 l/m 4,1 km/h (1 Bft) W-NW 297 0 min 0,000 mm 0,6 UV-I 123 W/m 12,3 C 13,4 C 8,0 km/h (2 Bft) 98,11 %
01.10.2017 15:00 13,4 C 13,3 C 93 % 1021,3 hPa 0,0 l/m 4,8 km/h (1 Bft) W-SW 241 0 min 0,000 mm 0,5 UV-I 109 W/m 12,3 C 13,4 C 11,3 km/h (2 Bft) 97,37 %
01.10.2017 15:02 13,4 C 13,3 C 93 % 1021,3 hPa 0,0 l/m 1,5 km/h (1 Bft) W-SW 240 0 min 0,050 mm 0,3 UV-I 99 W/m 12,3 C 13,4 C 4,8 km/h (1 Bft) 96,23 %
01.10.2017 15:04 13,4 C 13,3 C 92 % 1021,3 hPa 0,0 l/m 5,1 km/h (1 Bft) W 269 0 min 0,000 mm 0,0 UV-I 97 W/m 12,1 C 13,4 C 9,7 km/h (2 Bft) 97,62 %
01.10.2017 15:06 13,3 C 13,3 C 92 % 1021,3 hPa 0,0 l/m 4,6 km/h (1 Bft) W-NW 291 0 min 0,000 mm 0,2 UV-I 101 W/m 12,0 C 13,3 C 9,7 km/h (2 Bft) 96,23 %
01.10.2017 15:08 13,4 C 13,3 C 92 % 1021,3 hPa 0,0 l/m 3,5 km/h (1 Bft) W-SW 257 0 min 0,000 mm 0,5 UV-I 113 W/m 12,1 C 13,4 C 6,4 km/h (2 Bft) 95,92 %
01.10.2017 15:10 13,4 C 13,3 C 92 % 1021,3 hPa 0,0 l/m 2,7 km/h (1 Bft) W-NW 287 0 min 0,000 mm 0,5 UV-I 121 W/m 12,1 C 13,4 C 3,2 km/h (1 Bft) 100,00 %
01.10.2017 15:12 13,4 C 13,3 C 92 % 1021,3 hPa 0,0 l/m 5,0 km/h (1 Bft) W 266 0 min 0,000 mm 0,6 UV-I 132 W/m 12,1 C 13,4 C 8,0 km/h (2 Bft) 100,00 %
01.10.2017 15:14 13,4 C 13,3 C 92 % 1021,2 hPa 0,0 l/m 4,9 km/h (1 Bft) W-SW 256 0 min 0,000 mm 0,7 UV-I 152 W/m 12,1 C 13,4 C 9,7 km/h (2 Bft) 98,11 %
01.10.2017 15:16 13,4 C 13,3 C 92 % 1021,3 hPa 0,0 l/m 5,4 km/h (1 Bft) W-SW 244 0 min 0,000 mm 0,8 UV-I 172 W/m 12,1 C 13,4 C 8,0 km/h (2 Bft) 100,00 %
01.10.2017 15:18 13,5 C 13,3 C 92 % 1021,3 hPa 0,0 l/m 3,8 km/h (1 Bft) W-SW 245 0 min 0,000 mm 0,8 UV-I 185 W/m 12,2 C 13,5 C 4,8 km/h (1 Bft) 100,00 %
01.10.2017 15:20 13,6 C 13,3 C 92 % 1021,3 hPa 0,0 l/m 2,1 km/h (1 Bft) W-SW 244 0 min 0,000 mm 0,9 UV-I 194 W/m 12,3 C 13,6 C 4,8 km/h (1 Bft) 98,11 %
01.10.2017 15:22 13,7 C 13,3 C 92 % 1021,3 hPa 0,0 l/m 3,3 km/h (1 Bft) W-NW 295 0 min 0,000 mm 0,9 UV-I 206 W/m 12,4 C 13,7 C 6,4 km/h (2 Bft) 100,00 %
01.10.2017 15:24 13,7 C 13,3 C 92 % 1021,3 hPa 0,0 l/m 3,3 km/h (1 Bft) W-SW 237 0 min 0,000 mm 0,9 UV-I 221 W/m 12,4 C 13,7 C 6,4 km/h (2 Bft) 100,00 %
01.10.2017 15:26 13,8 C 13,3 C 92 % 1021,3 hPa 0,0 l/m 3,0 km/h (1 Bft) W-SW 244 0 min 0,000 mm 1,0 UV-I 233 W/m 12,5 C 13,8 C 4,8 km/h (1 Bft) 100,00 %
01.10.2017 15:28 13,9 C 13,3 C 92 % 1021,3 hPa 0,0 l/m 3,7 km/h (1 Bft) NW 307 0 min 0,000 mm 1,0 UV-I 231 W/m 12,6 C 13,9 C 6,4 km/h (2 Bft) 100,00 %
01.10.2017 15:30 13,9 C 13,3 C 91 % 1021,2 hPa 0,0 l/m 2,8 km/h (1 Bft) W-SW 257 0 min 0,000 mm 1,0 UV-I 215 W/m 12,5 C 13,9 C 9,7 km/h (2 Bft) 100,00 %
01.10.2017 15:32 14,0 C 13,3 C 91 % 1021,3 hPa 0,0 l/m 1,9 km/h (1 Bft) W-SW 258 0 min 0,000 mm 0,9 UV-I 196 W/m 12,6 C 14,0 C 3,2 km/h (1 Bft) 100,00 %
01.10.2017 15:34 14,1 C 13,3 C 91 % 1021,3 hPa 0,0 l/m 2,7 km/h (1 Bft) W-SW 256 0 min 0,000 mm 0,9 UV-I 184 W/m 12,7 C 14,1 C 6,4 km/h (2 Bft) 100,00 %
01.10.2017 15:36 14,1 C 13,3 C 91 % 1021,3 hPa 0,0 l/m 4,6 km/h (1 Bft) W-SW 241 0 min 0,000 mm 0,8 UV-I 164 W/m 12,7 C 14,1 C 8,0 km/h (2 Bft) 100,00 %
01.10.2017 15:38 14,1 C 13,3 C 90 % 1021,3 hPa 0,0 l/m 4,0 km/h (1 Bft) W 272 0 min 0,000 mm 0,7 UV-I 150 W/m 12,5 C 14,1 C 6,4 km/h (2 Bft) 97,87 %
01.10.2017 15:40 14,1 C 13,3 C 90 % 1021,3 hPa 0,0 l/m 4,8 km/h (1 Bft) W-SW 242 0 min 0,000 mm 0,6 UV-I 142 W/m 12,5 C 14,1 C 11,3 km/h (2 Bft) 100,00 %
01.10.2017 15:42 14,0 C 13,3 C 90 % 1021,2 hPa 0,0 l/m 1,8 km/h (1 Bft) W-SW 254 0 min 0,000 mm 0,6 UV-I 131 W/m 12,4 C 14,0 C 6,4 km/h (2 Bft) 97,87 %
01.10.2017 15:44 13,9 C 13,3 C 90 % 1021,2 hPa 0,0 l/m 1,3 km/h (1 Bft) W-NW 299 0 min 0,000 mm 0,5 UV-I 121 W/m 12,3 C 13,9 C 4,8 km/h (1 Bft) 100,00 %
01.10.2017 15:46 13,9 C 13,3 C 90 % 1021,2 hPa 0,0 l/m 1,1 km/h (1 Bft) W-NW 299 0 min 0,000 mm 0,3 UV-I 109 W/m 12,3 C 13,9 C 3,2 km/h (1 Bft) 100,00 %
01.10.2017 15:48 13,9 C 13,3 C 90 % 1021,2 hPa 0,0 l/m 1,1 km/h (1 Bft) NW 317 0 min 0,000 mm 0,5 UV-I 123 W/m 12,3 C 13,9 C 3,2 km/h (1 Bft) 100,00 %
01.10.2017 15:50 13,9 C 13,3 C 91 % 1021,2 hPa 0,0 l/m 1,7 km/h (1 Bft) NW 321 0 min 0,000 mm 0,6 UV-I 139 W/m 12,5 C 13,9 C 4,8 km/h (1 Bft) 100,00 %
01.10.2017 15:52 13,9 C 13,3 C 90 % 1021,2 hPa 0,0 l/m 0,5 km/h (0 Bft) N 9 0 min 0,000 mm 0,6 UV-I 142 W/m 12,3 C 13,9 C 3,2 km/h (1 Bft) 98,21 %
01.10.2017 15:54 13,9 C 13,3 C 91 % 1021,2 hPa 0,0 l/m 2,4 km/h (1 Bft) W-SW 251 0 min 0,000 mm 0,6 UV-I 135 W/m 12,5 C 13,9 C 4,8 km/h (1 Bft) 100,00 %
01.10.2017 15:56 13,9 C 13,3 C 90 % 1021,2 hPa 0,0 l/m 3,9 km/h (1 Bft) W 269 0 min 0,000 mm 0,5 UV-I 121 W/m 12,3 C 13,9 C 6,4 km/h (2 Bft) 97,87 %
01.10.2017 15:58 13,9 C 13,3 C 90 % 1021,2 hPa 0,0 l/m 4,6 km/h (1 Bft) W-NW 299 0 min 0,000 mm 0,4 UV-I 110 W/m 12,3 C 13,9 C 9,7 km/h (2 Bft) 100,00 %
01.10.2017 16:00 13,8 C 13,3 C 90 % 1021,2 hPa 0,0 l/m 4,3 km/h (1 Bft) W-NW 294 0 min 0,077 mm 0,0 UV-I 102 W/m 12,2 C 13,8 C 11,3 km/h (2 Bft) 100,00 %
01.10.2017 16:02 13,8 C 13,3 C 90 % 1021,1 hPa 0,0 l/m 2,1 km/h (1 Bft) W-NW 298 0 min 0,000 mm 0,0 UV-I 97 W/m 12,2 C 13,8 C 4,8 km/h (1 Bft) 100,00 %
01.10.2017 16:04 13,9 C 13,3 C 90 % 1021,1 hPa 0,0 l/m 0,0 km/h (0 Bft) W-NW 298 0 min 0,000 mm 0,0 UV-I 97 W/m 12,3 C 13,9 C 1,6 km/h (1 Bft) 100,00 %
01.10.2017 16:06 13,9 C 13,3 C 90 % 1021,2 hPa 0,0 l/m 0,9 km/h (0 Bft) W-NW 298 0 min 0,000 mm 0,0 UV-I 98 W/m 12,3 C 13,9 C 3,2 km/h (1 Bft) 100,00 %
01.10.2017 16:08 13,9 C 13,3 C 90 % 1021,1 hPa 0,0 l/m 2,2 km/h (1 Bft) W-SW 240 0 min 0,000 mm 0,1 UV-I 104 W/m 12,3 C 13,9 C 4,8 km/h (1 Bft) 100,00 %
01.10.2017 16:10 13,9 C 13,3 C 89 % 1021,1 hPa 0,0 l/m 1,0 km/h (0 Bft) W-SW 240 0 min 0,000 mm 0,5 UV-I 117 W/m 12,1 C 13,9 C 3,2 km/h (1 Bft) 94,74 %
01.10.2017 16:12 13,9 C 13,3 C 90 % 1021,1 hPa 0,0 l/m 3,0 km/h (1 Bft) W-SW 240 0 min 0,000 mm 0,5 UV-I 132 W/m 12,3 C 13,9 C 6,4 km/h (2 Bft) 98,15 %
01.10.2017 16:14 13,9 C 13,3 C 89 % 1021,1 hPa 0,0 l/m 5,1 km/h (1 Bft) W-SW 258 0 min 0,000 mm 0,5 UV-I 143 W/m 12,1 C 13,9 C 6,4 km/h (2 Bft) 97,56 %
01.10.2017 16:16 13,9 C 13,3 C 89 % 1021,1 hPa 0,0 l/m 3,1 km/h (1 Bft) W 265 0 min 0,000 mm 0,6 UV-I 146 W/m 12,1 C 13,9 C 4,8 km/h (1 Bft) 98,00 %
01.10.2017 16:18 14,0 C 13,3 C 89 % 1021,1 hPa 0,0 l/m 1,3 km/h (1 Bft) W 265 0 min 0,000 mm 0,6 UV-I 144 W/m 12,2 C 14,0 C 3,2 km/h (1 Bft) 98,11 %
01.10.2017 16:20 14,0 C 13,3 C 89 % 1021,0 hPa 0,0 l/m 0,5 km/h (0 Bft) W 265 0 min 0,000 mm 0,5 UV-I 144 W/m 12,2 C 14,0 C 1,6 km/h (1 Bft) 97,22 %
01.10.2017 16:22 14,1 C 13,3 C 89 % 1021,0 hPa 0,0 l/m 3,3 km/h (1 Bft) W 265 0 min 0,000 mm 0,5 UV-I 149 W/m 12,3 C 14,1 C 6,4 km/h (2 Bft) 98,00 %
01.10.2017 16:24 14,1 C 13,3 C 89 % 1021,0 hPa 0,0 l/m 3,2 km/h (1 Bft) W-NW 283 0 min 0,000 mm 0,5 UV-I 151 W/m 12,3 C 14,1 C 4,8 km/h (1 Bft) 96,15 %
01.10.2017 16:26 14,1 C 13,3 C 88 % 1021,0 hPa 0,0 l/m 1,1 km/h (1 Bft) W-NW 282 0 min 0,000 mm 0,5 UV-I 140 W/m 12,1 C 14,1 C 3,2 km/h (1 Bft) 97,92 %
01.10.2017 16:28 14,1 C 13,3 C 88 % 1021,0 hPa 0,0 l/m 1,3 km/h (1 Bft) W-NW 283 0 min 0,000 mm 0,5 UV-I 129 W/m 12,1 C 14,1 C 3,2 km/h (1 Bft) 98,00 %
01.10.2017 16:30 14,2 C 13,3 C 88 % 1021,1 hPa 0,0 l/m 3,3 km/h (1 Bft) SW 232 0 min 0,000 mm 0,3 UV-I 122 W/m 12,2 C 14,2 C 8,0 km/h (2 Bft) 97,37 %
01.10.2017 16:32 14,2 C 13,3 C 87 % 1021,1 hPa 0,0 l/m 3,7 km/h (1 Bft) W-SW 248 0 min 0,000 mm 0,0 UV-I 118 W/m 12,1 C 14,2 C 6,4 km/h (2 Bft) 98,00 %
01.10.2017 16:34 14,1 C 13,3 C 87 % 1021,1 hPa 0,0 l/m 5,1 km/h (1 Bft) W-SW 241 0 min 0,000 mm 0,0 UV-I 115 W/m 12,0 C 14,1 C 6,4 km/h (2 Bft) 98,00 %
01.10.2017 16:36 14,1 C 13,3 C 87 % 1021,1 hPa 0,0 l/m 3,7 km/h (1 Bft) W-SW 242 0 min 0,000 mm 0,0 UV-I 112 W/m 12,0 C 14,1 C 6,4 km/h (2 Bft) 97,37 %
01.10.2017 16:38 14,1 C 13,3 C 87 % 1021,2 hPa 0,0 l/m 3,5 km/h (1 Bft) W-SW 244 0 min 0,000 mm 0,0 UV-I 107 W/m 12,0 C 14,1 C 6,4 km/h (2 Bft) 98,11 %
01.10.2017 16:40 14,1 C 13,3 C 87 % 1021,1 hPa 0,0 l/m 2,3 km/h (1 Bft) W-SW 246 0 min 0,000 mm 0,0 UV-I 101 W/m 12,0 C 14,1 C 4,8 km/h (1 Bft) 95,74 %
01.10.2017 16:42 14,1 C 13,3 C 88 % 1021,1 hPa 0,0 l/m 6,2 km/h (2 Bft) W-SW 244 0 min 0,000 mm 0,0 UV-I 98 W/m 12,1 C 14,1 C 11,3 km/h (2 Bft) 100,00 %
01.10.2017 16:44 14,0 C 13,3 C 88 % 1021,2 hPa 0,0 l/m 4,2 km/h (1 Bft) W-SW 250 0 min 0,000 mm 0,0 UV-I 93 W/m 12,0 C 14,0 C 8,0 km/h (2 Bft) 100,00 %
01.10.2017 16:46 14,0 C 13,3 C 88 % 1021,1 hPa 0,0 l/m 6,2 km/h (2 Bft) W-SW 246 0 min 0,000 mm 0,0 UV-I 85 W/m 12,0 C 14,0 C 8,0 km/h (2 Bft) 100,00 %
01.10.2017 16:48 14,0 C 13,3 C 88 % 1021,1 hPa 0,0 l/m 4,2 km/h (1 Bft) W-SW 242 0 min 0,000 mm 0,0 UV-I 74 W/m 12,0 C 14,0 C 8,0 km/h (2 Bft) 100,00 %
01.10.2017 16:50 14,0 C 13,3 C 88 % 1021,1 hPa 0,0 l/m 1,8 km/h (1 Bft) W-SW 242 0 min 0,000 mm 0,0 UV-I 65 W/m 12,0 C 14,0 C 3,2 km/h (1 Bft) 100,00 %
01.10.2017 16:52 13,9 C 13,3 C 88 % 1021,1 hPa 0,0 l/m 2,9 km/h (1 Bft) W-SW 244 0 min 0,000 mm 0,0 UV-I 57 W/m 11,9 C 13,9 C 4,8 km/h (1 Bft) 100,00 %
01.10.2017 16:54 13,9 C 13,3 C 88 % 1021,2 hPa 0,0 l/m 4,4 km/h (1 Bft) W 263 0 min 0,000 mm 0,0 UV-I 56 W/m 11,9 C 13,9 C 6,4 km/h (2 Bft) 100,00 %
01.10.2017 16:56 13,9 C 13,3 C 88 % 1021,2 hPa 0,0 l/m 4,1 km/h (1 Bft) W 263 0 min 0,000 mm 0,0 UV-I 57 W/m 11,9 C 13,9 C 4,8 km/h (1 Bft) 98,00 %
01.10.2017 16:58 13,9 C 13,3 C 88 % 1021,2 hPa 0,0 l/m 3,0 km/h (1 Bft) W 263 0 min 0,000 mm 0,0 UV-I 58 W/m 11,9 C 13,9 C 4,8 km/h (1 Bft) 100,00 %
01.10.2017 17:00 14,0 C 13,3 C 89 % 1021,2 hPa 0,0 l/m 2,9 km/h (1 Bft) W 263 0 min 0,050 mm 0,0 UV-I 60 W/m 12,2 C 14,0 C 4,8 km/h (1 Bft) 98,51 %
01.10.2017 17:02 14,0 C 13,3 C 89 % 1021,2 hPa 0,0 l/m 2,5 km/h (1 Bft) W 263 0 min 0,000 mm 0,0 UV-I 58 W/m 12,2 C 14,0 C 4,8 km/h (1 Bft) 100,00 %
01.10.2017 17:04 14,0 C 13,3 C 89 % 1021,2 hPa 0,0 l/m 3,3 km/h (1 Bft) W 261 0 min 0,000 mm 0,0 UV-I 54 W/m 12,2 C 14,0 C 4,8 km/h (1 Bft) 100,00 %
01.10.2017 17:06 14,0 C 13,3 C 88 % 1021,1 hPa 0,0 l/m 2,5 km/h (1 Bft) W 261 0 min 0,000 mm 0,0 UV-I 48 W/m 12,0 C 14,0 C 4,8 km/h (1 Bft) 100,00 %
01.10.2017 17:08 13,9 C 13,3 C 88 % 1021,1 hPa 0,0 l/m 1,9 km/h (1 Bft) W 261 0 min 0,000 mm 0,0 UV-I 44 W/m 11,9 C 13,9 C 3,2 km/h (1 Bft) 100,00 %
01.10.2017 17:10 13,9 C 13,3 C 88 % 1021,2 hPa 0,0 l/m 4,4 km/h (1 Bft) W 261 0 min 0,000 mm 0,0 UV-I 41 W/m 11,9 C 13,9 C 6,4 km/h (2 Bft) 100,00 %
01.10.2017 17:12 13,9 C 13,3 C 88 % 1021,2 hPa 0,0 l/m 4,0 km/h (1 Bft) W 261 0 min 0,000 mm 0,0 UV-I 39 W/m 11,9 C 13,9 C 4,8 km/h (1 Bft) 98,00 %
01.10.2017 17:14 13,9 C 13,3 C 88 % 1021,2 hPa 0,0 l/m 3,1 km/h (1 Bft) W 261 0 min 0,000 mm 0,0 UV-I 38 W/m 11,9 C 13,9 C 4,8 km/h (1 Bft) 100,00 %
01.10.2017 17:16 13,8 C 13,3 C 88 % 1021,2 hPa 0,0 l/m 1,3 km/h (1 Bft) W 261 0 min 0,000 mm 0,0 UV-I 37 W/m 11,8 C 13,8 C 3,2 km/h (1 Bft) 100,00 %
01.10.2017 17:18 13,8 C 13,3 C 89 % 1021,1 hPa 0,0 l/m 2,1 km/h (1 Bft) W 261 0 min 0,000 mm 0,0 UV-I 35 W/m 12,0 C 13,8 C 3,2 km/h (1 Bft) 100,00 %
01.10.2017 17:20 13,8 C 13,3 C 89 % 1021,1 hPa 0,0 l/m 1,1 km/h (1 Bft) W 261 0 min 0,000 mm 0,0 UV-I 33 W/m 12,0 C 13,8 C 4,8 km/h (1 Bft) 100,00 %
01.10.2017 17:22 13,8 C 13,3 C 89 % 1021,1 hPa 0,0 l/m 1,5 km/h (1 Bft) W 261 0 min 0,000 mm 0,0 UV-I 33 W/m 12,0 C 13,8 C 3,2 km/h (1 Bft) 96,00 %
01.10.2017 17:24 13,8 C 13,3 C 89 % 1021,1 hPa 0,0 l/m 1,8 km/h (1 Bft) W 261 0 min 0,000 mm 0,0 UV-I 33 W/m 12,0 C 13,8 C 4,8 km/h (1 Bft) 100,00 %
01.10.2017 17:26 13,8 C 13,3 C 89 % 1021,1 hPa 0,0 l/m 2,1 km/h (1 Bft) W 261 0 min 0,000 mm 0,0 UV-I 35 W/m 12,0 C 13,8 C 4,8 km/h (1 Bft) 100,00 %
01.10.2017 17:28 13,9 C 13,3 C 89 % 1021,2 hPa 0,0 l/m 2,7 km/h (1 Bft) SW 229 0 min 0,000 mm 0,0 UV-I 38 W/m 12,1 C 13,9 C 4,8 km/h (1 Bft) 100,00 %
01.10.2017 17:30 13,9 C 13,3 C 89 % 1021,2 hPa 0,0 l/m 3,4 km/h (1 Bft) SW 229 0 min 0,000 mm 0,0 UV-I 39 W/m 12,1 C 13,9 C 4,8 km/h (1 Bft) 100,00 %
01.10.2017 17:32 13,9 C 13,3 C 89 % 1021,2 hPa 0,0 l/m 2,2 km/h (1 Bft) SW 229 0 min 0,000 mm 0,0 UV-I 39 W/m 12,1 C 13,9 C 3,2 km/h (1 Bft) 100,00 %
01.10.2017 17:34 13,9 C 13,3 C 89 % 1021,2 hPa 0,0 l/m 1,5 km/h (1 Bft) SW 229 0 min 0,000 mm 0,0 UV-I 39 W/m 12,1 C 13,9 C 3,2 km/h (1 Bft) 100,00 %
01.10.2017 17:36 13,9 C 13,3 C 89 % 1021,2 hPa 0,0 l/m 2,0 km/h (1 Bft) SW 229 0 min 0,000 mm 0,0 UV-I 39 W/m 12,1 C 13,9 C 3,2 km/h (1 Bft) 100,00 %
01.10.2017 17:38 13,8 C 13,3 C 89 % 1021,2 hPa 0,0 l/m 2,2 km/h (1 Bft) SW 229 0 min 0,000 mm 0,0 UV-I 39 W/m 12,0 C 13,8 C 4,8 km/h (1 Bft) 100,00 %
01.10.2017 17:40 13,8 C 13,3 C 89 % 1021,2 hPa 0,0 l/m 0,6 km/h (0 Bft) SW 229 0 min 0,000 mm 0,0 UV-I 39 W/m 12,0 C 13,8 C 1,6 km/h (1 Bft) 97,87 %
01.10.2017 17:42 13,8 C 13,3 C 89 % 1021,2 hPa 0,0 l/m 0,0 km/h (0 Bft) SW 229 0 min 0,000 mm 0,0 UV-I 38 W/m 12,0 C 13,8 C 0,0 km/h (0 Bft) 100,00 %
01.10.2017 17:44 13,8 C 13,3 C 89 % 1021,2 hPa 0,0 l/m 0,0 km/h (0 Bft) SW 229 0 min 0,000 mm 0,0 UV-I 36 W/m 12,0 C 13,8 C 0,0 km/h (0 Bft) 100,00 %
01.10.2017 17:46 13,8 C 13,3 C 89 % 1021,2 hPa 0,0 l/m 0,8 km/h (0 Bft) SW 229 0 min 0,000 mm 0,0 UV-I 33 W/m 12,0 C 13,8 C 3,2 km/h (1 Bft) 100,00 %
01.10.2017 17:48 13,8 C 13,3 C 89 % 1021,2 hPa 0,0 l/m 0,1 km/h (0 Bft) SW 229 0 min 0,000 mm 0,0 UV-I 31 W/m 12,0 C 13,8 C 1,6 km/h (1 Bft) 100,00 %
01.10.2017 17:50 13,8 C 13,3 C 89 % 1021,2 hPa 0,0 l/m 0,5 km/h (0 Bft) SW 229 0 min 0,000 mm 0,0 UV-I 28 W/m 12,0 C 13,8 C 1,6 km/h (1 Bft) 100,00 %
01.10.2017 17:52 13,8 C 13,3 C 90 % 1021,2 hPa 0,0 l/m 1,8 km/h (1 Bft) SW 229 0 min 0,000 mm 0,0 UV-I 26 W/m 12,2 C 13,8 C 3,2 km/h (1 Bft) 100,00 %
01.10.2017 17:54 13,8 C 13,3 C 90 % 1021,2 hPa 0,0 l/m 2,1 km/h (1 Bft) SW 229 0 min 0,000 mm 0,0 UV-I 25 W/m 12,2 C 13,8 C 3,2 km/h (1 Bft) 100,00 %
01.10.2017 17:56 13,8 C 13,3 C 90 % 1021,2 hPa 0,0 l/m 3,0 km/h (1 Bft) SW 229 0 min 0,000 mm 0,0 UV-I 23 W/m 12,2 C 13,8 C 4,8 km/h (1 Bft) 100,00 %
01.10.2017 17:58 13,8 C 13,3 C 90 % 1021,3 hPa 0,0 l/m 3,3 km/h (1 Bft) SW 229 0 min 0,000 mm 0,0 UV-I 23 W/m 12,2 C 13,8 C 4,8 km/h (1 Bft) 100,00 %
01.10.2017 18:00 13,8 C 13,3 C 90 % 1021,3 hPa 0,0 l/m 3,4 km/h (1 Bft) SW 229 0 min 0,026 mm 0,0 UV-I 22 W/m 12,2 C 13,8 C 4,8 km/h (1 Bft) 100,00 %
01.10.2017 18:02 13,8 C 13,3 C 90 % 1021,3 hPa 0,0 l/m 2,7 km/h (1 Bft) SW 229 0 min 0,000 mm 0,0 UV-I 21 W/m 12,2 C 13,8 C 3,2 km/h (1 Bft) 97,87 %
01.10.2017 18:04 13,8 C 13,3 C 90 % 1021,3 hPa 0,0 l/m 2,8 km/h (1 Bft) SW 229 0 min 0,000 mm 0,0 UV-I 21 W/m 12,2 C 13,8 C 4,8 km/h (1 Bft) 100,00 %
01.10.2017 18:06 13,7 C 13,3 C 90 % 1021,2 hPa 0,0 l/m 2,7 km/h (1 Bft) SW 229 0 min 0,000 mm 0,0 UV-I 19 W/m 12,1 C 13,7 C 4,8 km/h (1 Bft) 100,00 %
01.10.2017 18:08 13,7 C 13,3 C 90 % 1021,2 hPa 0,0 l/m 2,8 km/h (1 Bft) SW 229 0 min 0,000 mm 0,0 UV-I 20 W/m 12,1 C 13,7 C 4,8 km/h (1 Bft) 97,87 %
01.10.2017 18:10 13,7 C 13,3 C 90 % 1021,2 hPa 0,0 l/m 1,5 km/h (1 Bft) SW 229 0 min 0,000 mm 0,0 UV-I 21 W/m 12,1 C 13,7 C 3,2 km/h (1 Bft) 97,14 %
01.10.2017 18:12 13,7 C 13,3 C 90 % 1021,2 hPa 0,0 l/m 0,7 km/h (0 Bft) SW 229 0 min 0,000 mm 0,0 UV-I 21 W/m 12,1 C 13,7 C 3,2 km/h (1 Bft) 96,23 %
01.10.2017 18:14 13,7 C 13,3 C 91 % 1021,2 hPa 0,0 l/m 1,8 km/h (1 Bft) SW 229 0 min 0,000 mm 0,0 UV-I 19 W/m 12,3 C 13,7 C 3,2 km/h (1 Bft) 96,00 %
01.10.2017 18:16 13,7 C 13,3 C 91 % 1021,2 hPa 0,0 l/m 0,0 km/h (0 Bft) SW 229 0 min 0,000 mm 0,0 UV-I 17 W/m 12,3 C 13,7 C 1,6 km/h (1 Bft) 96,00 %
01.10.2017 18:18 13,7 C 13,3 C 91 % 1021,2 hPa 0,0 l/m 0,8 km/h (0 Bft) SW 229 0 min 0,000 mm 0,0 UV-I 15 W/m 12,3 C 13,7 C 1,6 km/h (1 Bft) 91,67 %
01.10.2017 18:20 13,7 C 13,3 C 91 % 1021,2 hPa 0,0 l/m 0,7 km/h (0 Bft) SW 229 0 min 0,000 mm 0,0 UV-I 12 W/m 12,3 C 13,7 C 3,2 km/h (1 Bft) 96,23 %
01.10.2017 18:22 13,7 C 13,3 C 91 % 1021,2 hPa 0,0 l/m 0,9 km/h (0 Bft) SW 229 0 min 0,000 mm 0,0 UV-I 11 W/m 12,3 C 13,7 C 3,2 km/h (1 Bft) 93,62 %
01.10.2017 18:24 13,7 C 13,3 C 91 % 1021,1 hPa 0,0 l/m 0,2 km/h (0 Bft) SW 229 0 min 0,000 mm 0,0 UV-I 9 W/m 12,3 C 13,7 C 1,6 km/h (1 Bft) 97,37 %
01.10.2017 18:26 13,7 C 13,3 C 91 % 1021,2 hPa 0,0 l/m 0,2 km/h (0 Bft) SW 229 0 min 0,000 mm 0,0 UV-I 8 W/m 12,3 C 13,7 C 1,6 km/h (1 Bft) 92,45 %
01.10.2017 18:28 13,7 C 13,3 C 91 % 1021,2 hPa 0,0 l/m 0,1 km/h (0 Bft) SW 229 0 min 0,000 mm 0,0 UV-I 7 W/m 12,3 C 13,7 C 1,6 km/h (1 Bft) 96,23 %
01.10.2017 18:30 13,7 C 13,3 C 91 % 1021,2 hPa 0,0 l/m 0,0 km/h (0 Bft) SW 229 0 min 0,000 mm 0,0 UV-I 7 W/m 12,3 C 13,7 C 1,6 km/h (1 Bft) 94,74 %
01.10.2017 18:32 13,6 C 13,3 C 91 % 1021,3 hPa 0,0 l/m 1,3 km/h (1 Bft) SW 229 0 min 0,000 mm 0,0 UV-I 7 W/m 12,2 C 13,6 C 3,2 km/h (1 Bft) 98,21 %
01.10.2017 18:34 13,6 C 13,3 C 91 % 1021,3 hPa 0,0 l/m 1,0 km/h (0 Bft) SW 229 0 min 0,000 mm 0,0 UV-I 5 W/m 12,2 C 13,6 C 3,2 km/h (1 Bft) 94,74 %
01.10.2017 18:36 13,6 C 13,3 C 92 % 1021,3 hPa 0,0 l/m 1,3 km/h (1 Bft) SW 229 0 min 0,000 mm 0,0 UV-I 5 W/m 12,3 C 13,6 C 3,2 km/h (1 Bft) 93,62 %
01.10.2017 18:38 13,6 C 13,3 C 92 % 1021,3 hPa 0,0 l/m 0,6 km/h (0 Bft) SW 229 0 min 0,000 mm 0,0 UV-I 5 W/m 12,3 C 13,6 C 3,2 km/h (1 Bft) 96,23 %
01.10.2017 18:40 13,6 C 13,3 C 92 % 1021,3 hPa 0,0 l/m 1,2 km/h (1 Bft) SW 229 0 min 0,000 mm 0,0 UV-I 5 W/m 12,3 C 13,6 C 3,2 km/h (1 Bft) 96,00 %
01.10.2017 18:42 13,5 C 13,3 C 92 % 1021,3 hPa 0,0 l/m 0,5 km/h (0 Bft) SW 229 0 min 0,000 mm 0,0 UV-I 5 W/m 12,2 C 13,5 C 1,6 km/h (1 Bft) 94,74 %
01.10.2017 18:44 13,5 C 13,3 C 92 % 1021,3 hPa 0,0 l/m 0,9 km/h (0 Bft) SW 229 0 min 0,000 mm 0,0 UV-I 5 W/m 12,2 C 13,5 C 3,2 km/h (1 Bft) 96,00 %
01.10.2017 18:46 13,5 C 13,3 C 92 % 1021,4 hPa 0,0 l/m 0,3 km/h (0 Bft) SW 229 0 min 0,000 mm 0,0 UV-I 5 W/m 12,2 C 13,5 C 1,6 km/h (1 Bft) 98,11 %
01.10.2017 18:48 13,4 C 13,3 C 92 % 1021,4 hPa 0,0 l/m 0,2 km/h (0 Bft) SW 229 0 min 0,000 mm 0,0 UV-I 1 W/m 12,1 C 13,4 C 1,6 km/h (1 Bft) 97,56 %
01.10.2017 18:50 13,4 C 13,3 C 92 % 1021,4 hPa 0,0 l/m 0,3 km/h (0 Bft) SW 229 0 min 0,000 mm 0,0 UV-I 0 W/m 12,1 C 13,4 C 1,6 km/h (1 Bft) 97,87 %
01.10.2017 18:52 13,4 C 13,3 C 92 % 1021,4 hPa 0,0 l/m 0,0 km/h (0 Bft) SW 229 0 min 0,000 mm 0,0 UV-I 0 W/m 12,1 C 13,4 C 0,0 km/h (0 Bft) 97,44 %
01.10.2017 18:54 13,4 C 13,3 C 92 % 1021,4 hPa 0,0 l/m 1,1 km/h (1 Bft) SW 229 0 min 0,000 mm 0,0 UV-I 0 W/m 12,1 C 13,4 C 3,2 km/h (1 Bft) 98,18 %
01.10.2017 18:56 13,4 C 13,3 C 92 % 1021,5 hPa 0,0 l/m 1,5 km/h (1 Bft) SW 229 0 min 0,000 mm 0,0 UV-I 0 W/m 12,1 C 13,4 C 3,2 km/h (1 Bft) 95,24 %
01.10.2017 18:58 13,4 C 13,3 C 92 % 1021,4 hPa 0,0 l/m 1,1 km/h (1 Bft) SW 229 0 min 0,000 mm 0,0 UV-I 0 W/m 12,1 C 13,4 C 3,2 km/h (1 Bft) 98,18 %
01.10.2017 19:00 13,3 C 13,3 C 92 % 1021,4 hPa 0,0 l/m 1,2 km/h (1 Bft) SW 229 0 min 0,000 mm 0,0 UV-I 0 W/m 12,0 C 13,3 C 3,2 km/h (1 Bft) 97,44 %
01.10.2017 19:02 13,3 C 13,3 C 93 % 1021,4 hPa 0,0 l/m 1,5 km/h (1 Bft) SW 229 0 min 0,000 mm 0,0 UV-I 0 W/m 12,2 C 13,3 C 3,2 km/h (1 Bft) 97,87 %
01.10.2017 19:04 13,3 C 13,3 C 93 % 1021,4 hPa 0,0 l/m 1,9 km/h (1 Bft) SW 229 0 min 0,000 mm 0,0 UV-I 0 W/m 12,2 C 13,3 C 3,2 km/h (1 Bft) 96,43 %
01.10.2017 19:06 13,3 C 13,3 C 93 % 1021,4 hPa 0,0 l/m 1,6 km/h (1 Bft) SW 229 0 min 0,000 mm 0,0 UV-I 0 W/m 12,2 C 13,3 C 3,2 km/h (1 Bft) 95,74 %
01.10.2017 19:08 13,3 C 13,3 C 93 % 1021,4 hPa 0,0 l/m 0,3 km/h (0 Bft) SW 229 0 min 0,000 mm 0,0 UV-I 0 W/m 12,2 C 13,3 C 3,2 km/h (1 Bft) 97,87 %
01.10.2017 19:10 13,3 C 13,3 C 93 % 1021,4 hPa 0,0 l/m 0,2 km/h (0 Bft) SW 229 0 min 0,000 mm 0,0 UV-I 0 W/m 12,2 C 13,3 C 1,6 km/h (1 Bft) 97,37 %
01.10.2017 19:12 13,2 C 13,3 C 93 % 1021,5 hPa 0,0 l/m 0,6 km/h (0 Bft) SW 229 0 min 0,000 mm 0,0 UV-I 0 W/m 12,1 C 13,2 C 3,2 km/h (1 Bft) 97,87 %
01.10.2017 19:14 13,2 C 13,3 C 93 % 1021,5 hPa 0,0 l/m 0,0 km/h (0 Bft) SW 229 0 min 0,000 mm 0,0 UV-I 0 W/m 12,1 C 13,2 C 0,0 km/h (0 Bft) 98,00 %
01.10.2017 19:16 13,3 C 13,3 C 93 % 1021,5 hPa 0,0 l/m 0,2 km/h (0 Bft) SW 229 0 min 0,000 mm 0,0 UV-I 0 W/m 12,2 C 13,3 C 1,6 km/h (1 Bft) 100,00 %
01.10.2017 19:18 13,3 C 13,3 C 93 % 1021,5 hPa 0,0 l/m 0,0 km/h (0 Bft) SW 229 0 min 0,000 mm 0,0 UV-I 0 W/m 12,2 C 13,3 C 1,6 km/h (1 Bft) 98,00 %
01.10.2017 19:20 13,3 C 13,3 C 93 % 1021,5 hPa 0,0 l/m 0,4 km/h (0 Bft) SW 229 0 min 0,000 mm 0,0 UV-I 0 W/m 12,2 C 13,3 C 1,6 km/h (1 Bft) 100,00 %
01.10.2017 19:22 13,3 C 13,3 C 92 % 1021,5 hPa 0,0 l/m 1,8 km/h (1 Bft) SW 229 0 min 0,000 mm 0,0 UV-I 0 W/m 12,0 C 13,3 C 3,2 km/h (1 Bft) 97,14 %
01.10.2017 19:24 13,3 C 13,3 C 92 % 1021,5 hPa 0,0 l/m 1,0 km/h (0 Bft) SW 229 0 min 0,000 mm 0,0 UV-I 0 W/m 12,0 C 13,3 C 3,2 km/h (1 Bft) 100,00 %
01.10.2017 19:26 13,3 C 13,3 C 92 % 1021,5 hPa 0,0 l/m 1,4 km/h (1 Bft) SW 229 0 min 0,000 mm 0,0 UV-I 0 W/m 12,0 C 13,3 C 3,2 km/h (1 Bft) 100,00 %
01.10.2017 19:28 13,3 C 13,3 C 92 % 1021,5 hPa 0,0 l/m 1,9 km/h (1 Bft) SW 229 0 min 0,000 mm 0,0 UV-I 0 W/m 12,0 C 13,3 C 3,2 km/h (1 Bft) 100,00 %
01.10.2017 19:30 13,3 C 13,3 C 92 % 1021,5 hPa 0,0 l/m 0,9 km/h (0 Bft) SW 229 0 min 0,000 mm 0,0 UV-I 0 W/m 12,0 C 13,3 C 3,2 km/h (1 Bft) 100,00 %
01.10.2017 19:32 13,3 C 13,3 C 92 % 1021,5 hPa 0,0 l/m 2,0 km/h (1 Bft) SW 229 0 min 0,000 mm 0,0 UV-I 0 W/m 12,0 C 13,3 C 4,8 km/h (1 Bft) 100,00 %
01.10.2017 19:34 13,3 C 13,3 C 92 % 1021,5 hPa 0,0 l/m 1,3 km/h (1 Bft) SW 229 0 min 0,000 mm 0,0 UV-I 0 W/m 12,0 C 13,3 C 3,2 km/h (1 Bft) 97,87 %
01.10.2017 19:36 13,3 C 13,3 C 92 % 1021,5 hPa 0,0 l/m 0,1 km/h (0 Bft) SW 229 0 min 0,000 mm 0,0 UV-I 0 W/m 12,0 C 13,3 C 1,6 km/h (1 Bft) 100,00 %
01.10.2017 19:38 13,3 C 13,3 C 92 % 1021,6 hPa 0,0 l/m 1,1 km/h (1 Bft) SW 229 0 min 0,000 mm 0,0 UV-I 0 W/m 12,0 C 13,3 C 3,2 km/h (1 Bft) 100,00 %
01.10.2017 19:40 13,3 C 13,3 C 92 % 1021,6 hPa 0,0 l/m 1,9 km/h (1 Bft) SW 229 0 min 0,000 mm 0,0 UV-I 0 W/m 12,0 C 13,3 C 3,2 km/h (1 Bft) 98,21 %
01.10.2017 19:42 13,3 C 13,3 C 93 % 1021,6 hPa 0,0 l/m 1,1 km/h (1 Bft) SW 229 0 min 0,000 mm 0,0 UV-I 0 W/m 12,2 C 13,3 C 1,6 km/h (1 Bft) 100,00 %
01.10.2017 19:44 13,2 C 13,3 C 93 % 1021,6 hPa 0,0 l/m 0,4 km/h (0 Bft) SW 229 0 min 0,000 mm 0,0 UV-I 0 W/m 12,1 C 13,2 C 1,6 km/h (1 Bft) 98,21 %
01.10.2017 19:46 13,2 C 13,3 C 93 % 1021,6 hPa 0,0 l/m 0,0 km/h (0 Bft) SW 229 0 min 0,000 mm 0,0 UV-I 0 W/m 12,1 C 13,2 C 1,6 km/h (1 Bft) 100,00 %
01.10.2017 19:48 13,2 C 13,3 C 93 % 1021,5 hPa 0,0 l/m 0,8 km/h (0 Bft) SW 229 0 min 0,000 mm 0,0 UV-I 0 W/m 12,1 C 13,2 C 1,6 km/h (1 Bft) 100,00 %
01.10.2017 19:50 13,2 C 13,3 C 93 % 1021,5 hPa 0,0 l/m 0,5 km/h (0 Bft) SW 229 0 min 0,000 mm 0,0 UV-I 0 W/m 12,1 C 13,2 C 1,6 km/h (1 Bft) 100,00 %
01.10.2017 19:52 13,2 C 13,3 C 93 % 1021,5 hPa 0,0 l/m 0,0 km/h (0 Bft) SW 229 0 min 0,000 mm 0,0 UV-I 0 W/m 12,1 C 13,2 C 1,6 km/h (1 Bft) 100,00 %
01.10.2017 19:54 13,2 C 13,3 C 93 % 1021,4 hPa 0,0 l/m 0,3 km/h (0 Bft) SW 229 0 min 0,000 mm 0,0 UV-I 0 W/m 12,1 C 13,2 C 1,6 km/h (1 Bft) 100,00 %
01.10.2017 19:56 13,2 C 13,3 C 93 % 1021,4 hPa 0,0 l/m 0,2 km/h (0 Bft) SW 229 0 min 0,000 mm 0,0 UV-I 0 W/m 12,1 C 13,2 C 1,6 km/h (1 Bft) 100,00 %
01.10.2017 19:58 13,2 C 13,3 C 93 % 1021,4 hPa 0,0 l/m 0,7 km/h (0 Bft) SW 229 0 min 0,000 mm 0,0 UV-I 0 W/m 12,1 C 13,2 C 1,6 km/h (1 Bft) 100,00 %
01.10.2017 20:00 13,2 C 13,3 C 93 % 1021,4 hPa 0,0 l/m 0,1 km/h (0 Bft) SW 229 0 min 0,000 mm 0,0 UV-I 0 W/m 12,1 C 13,2 C 1,6 km/h (1 Bft) 100,00 %
01.10.2017 20:02 13,2 C 13,3 C 93 % 1021,4 hPa 0,0 l/m 0,0 km/h (0 Bft) SW 229 0 min 0,000 mm 0,0 UV-I 0 W/m 12,1 C 13,2 C 0,0 km/h (0 Bft) 100,00 %
01.10.2017 20:04 13,2 C 13,3 C 93 % 1021,4 hPa 0,0 l/m 0,0 km/h (0 Bft) SW 229 0 min 0,000 mm 0,0 UV-I 0 W/m 12,1 C 13,2 C 0,0 km/h (0 Bft) 100,00 %
01.10.2017 20:06 13,1 C 13,3 C 93 % 1021,4 hPa 0,0 l/m 0,0 km/h (0 Bft) SW 229 0 min 0,000 mm 0,0 UV-I 0 W/m 12,0 C 13,1 C 0,0 km/h (0 Bft) 100,00 %
01.10.2017 20:08 13,1 C 13,3 C 93 % 1021,5 hPa 0,0 l/m 0,0 km/h (0 Bft) SW 229 0 min 0,000 mm 0,0 UV-I 0 W/m 12,0 C 13,1 C 0,0 km/h (0 Bft) 100,00 %
01.10.2017 20:10 13,1 C 13,3 C 93 % 1021,5 hPa 0,0 l/m 0,0 km/h (0 Bft) SW 229 0 min 0,000 mm 0,0 UV-I 0 W/m 12,0 C 13,1 C 0,0 km/h (0 Bft) 96,00 %
01.10.2017 20:12 13,1 C 13,3 C 93 % 1021,5 hPa 0,0 l/m 0,0 km/h (0 Bft) SW 229 0 min 0,000 mm 0,0 UV-I 0 W/m 12,0 C 13,1 C 0,0 km/h (0 Bft) 96,23 %
01.10.2017 20:14 13,1 C 13,3 C 93 % 1021,6 hPa 0,0 l/m 0,0 km/h (0 Bft) SW 229 0 min 0,000 mm 0,0 UV-I 0 W/m 12,0 C 13,1 C 0,0 km/h (0 Bft) 97,22 %
01.10.2017 20:16 13,1 C 13,3 C 93 % 1021,5 hPa 0,0 l/m 0,0 km/h (0 Bft) SW 229 0 min 0,000 mm 0,0 UV-I 0 W/m 12,0 C 13,1 C 0,0 km/h (0 Bft) 96,08 %
01.10.2017 20:18 13,2 C 13,3 C 93 % 1021,5 hPa 0,0 l/m 0,0 km/h (0 Bft) SW 229 0 min 0,000 mm 0,0 UV-I 0 W/m 12,1 C 13,2 C 0,0 km/h (0 Bft) 96,23 %
01.10.2017 20:20 13,2 C 13,3 C 93 % 1021,5 hPa 0,0 l/m 0,0 km/h (0 Bft) SW 229 0 min 0,000 mm 0,0 UV-I 0 W/m 12,1 C 13,2 C 0,0 km/h (0 Bft) 97,44 %
01.10.2017 20:22 13,1 C 13,3 C 93 % 1021,5 hPa 0,0 l/m 0,0 km/h (0 Bft) SW 229 0 min 0,000 mm 0,0 UV-I 0 W/m 12,0 C 13,1 C 0,0 km/h (0 Bft) 95,74 %
01.10.2017 20:24 13,1 C 13,3 C 93 % 1021,6 hPa 0,0 l/m 0,0 km/h (0 Bft) SW 229 0 min 0,000 mm 0,0 UV-I 0 W/m 12,0 C 13,1 C 0,0 km/h (0 Bft) 96,23 %
01.10.2017 20:26 13,1 C 13,3 C 93 % 1021,6 hPa 0,0 l/m 0,0 km/h (0 Bft) SW 229 0 min 0,000 mm 0,0 UV-I 0 W/m 12,0 C 13,1 C 0,0 km/h (0 Bft) 98,00 %
01.10.2017 20:28 13,1 C 13,3 C 93 % 1021,6 hPa 0,0 l/m 0,0 km/h (0 Bft) SW 229 0 min 0,000 mm 0,0 UV-I 0 W/m 12,0 C 13,1 C 0,0 km/h (0 Bft) 97,14 %
01.10.2017 20:30 13,1 C 13,3 C 93 % 1021,7 hPa 0,0 l/m 0,2 km/h (0 Bft) SW 229 0 min 0,000 mm 0,0 UV-I 0 W/m 12,0 C 13,1 C 1,6 km/h (1 Bft) 97,87 %
01.10.2017 20:32 13,1 C 13,3 C 93 % 1021,7 hPa 0,0 l/m 0,6 km/h (0 Bft) SW 229 0 min 0,000 mm 0,0 UV-I 0 W/m 12,0 C 13,1 C 1,6 km/h (1 Bft) 98,00 %
01.10.2017 20:34 13,1 C 13,3 C 93 % 1021,7 hPa 0,0 l/m 0,2 km/h (0 Bft) SW 229 0 min 0,000 mm 0,0 UV-I 0 W/m 12,0 C 13,1 C 1,6 km/h (1 Bft) 95,74 %
01.10.2017 20:36 13,1 C 13,3 C 94 % 1021,8 hPa 0,0 l/m 0,0 km/h (0 Bft) SW 229 0 min 0,000 mm 0,0 UV-I 0 W/m 12,2 C 13,1 C 0,0 km/h (0 Bft) 98,00 %
01.10.2017 20:38 13,1 C 13,3 C 94 % 1021,7 hPa 0,0 l/m 0,0 km/h (0 Bft) SW 229 0 min 0,000 mm 0,0 UV-I 0 W/m 12,2 C 13,1 C 0,0 km/h (0 Bft) 97,56 %
01.10.2017 20:40 13,1 C 13,3 C 94 % 1021,8 hPa 0,0 l/m 0,0 km/h (0 Bft) SW 229 0 min 0,000 mm 0,0 UV-I 0 W/m 12,2 C 13,1 C 0,0 km/h (0 Bft) 95,74 %
01.10.2017 20:42 13,1 C 13,3 C 94 % 1021,8 hPa 0,0 l/m 0,0 km/h (0 Bft) SW 229 0 min 0,000 mm 0,0 UV-I 0 W/m 12,2 C 13,1 C 0,0 km/h (0 Bft) 100,00 %
01.10.2017 20:44 13,0 C 13,3 C 94 % 1021,8 hPa 0,0 l/m 0,0 km/h (0 Bft) SW 229 0 min 0,000 mm 0,0 UV-I 0 W/m 12,1 C 13,0 C 0,0 km/h (0 Bft) 98,11 %
01.10.2017 20:46 12,9 C 13,3 C 94 % 1021,8 hPa 0,0 l/m 0,0 km/h (0 Bft) SW 229 0 min 0,000 mm 0,0 UV-I 0 W/m 12,0 C 12,9 C 0,0 km/h (0 Bft) 100,00 %
01.10.2017 20:48 12,8 C 13,3 C 94 % 1021,8 hPa 0,0 l/m 0,7 km/h (0 Bft) SW 229 0 min 0,000 mm 0,0 UV-I 0 W/m 11,9 C 12,8 C 3,2 km/h (1 Bft) 100,00 %
01.10.2017 20:50 12,8 C 13,3 C 94 % 1021,9 hPa 0,0 l/m 2,8 km/h (1 Bft) SW 229 0 min 0,000 mm 0,0 UV-I 0 W/m 11,9 C 12,8 C 3,2 km/h (1 Bft) 100,00 %
01.10.2017 20:52 12,7 C 13,3 C 94 % 1021,9 hPa 0,0 l/m 2,1 km/h (1 Bft) SW 229 0 min 0,000 mm 0,0 UV-I 0 W/m 11,8 C 12,7 C 3,2 km/h (1 Bft) 100,00 %
01.10.2017 20:54 12,7 C 13,3 C 94 % 1021,9 hPa 0,0 l/m 0,2 km/h (0 Bft) SW 229 0 min 0,000 mm 0,0 UV-I 0 W/m 11,8 C 12,7 C 1,6 km/h (1 Bft) 100,00 %
01.10.2017 20:56 12,7 C 13,3 C 94 % 1021,9 hPa 0,0 l/m 0,2 km/h (0 Bft) SW 229 0 min 0,000 mm 0,0 UV-I 0 W/m 11,8 C 12,7 C 1,6 km/h (1 Bft) 100,00 %
01.10.2017 20:58 12,7 C 13,3 C 94 % 1022,0 hPa 0,0 l/m 0,5 km/h (0 Bft) SW 229 0 min 0,000 mm 0,0 UV-I 0 W/m 11,8 C 12,7 C 1,6 km/h (1 Bft) 100,00 %
01.10.2017 21:00 12,8 C 13,3 C 95 % 1021,9 hPa 0,0 l/m 1,0 km/h (0 Bft) SW 229 0 min 0,000 mm 0,0 UV-I 0 W/m 12,0 C 12,8 C 3,2 km/h (1 Bft) 98,00 %
01.10.2017 21:02 12,8 C 13,3 C 95 % 1021,9 hPa 0,0 l/m 0,7 km/h (0 Bft) SW 229 0 min 0,000 mm 0,0 UV-I 0 W/m 12,0 C 12,8 C 3,2 km/h (1 Bft) 100,00 %
01.10.2017 21:04 12,8 C 13,3 C 95 % 1022,0 hPa 0,0 l/m 1,1 km/h (1 Bft) SW 229 0 min 0,000 mm 0,0 UV-I 0 W/m 12,0 C 12,8 C 3,2 km/h (1 Bft) 100,00 %
01.10.2017 21:06 12,8 C 13,3 C 95 % 1021,9 hPa 0,0 l/m 0,5 km/h (0 Bft) SW 229 0 min 0,000 mm 0,0 UV-I 0 W/m 12,0 C 12,8 C 1,6 km/h (1 Bft) 100,00 %
01.10.2017 21:08 12,8 C 13,3 C 94 % 1021,9 hPa 0,0 l/m 0,0 km/h (0 Bft) SW 229 0 min 0,000 mm 0,0 UV-I 0 W/m 11,9 C 12,8 C 0,0 km/h (0 Bft) 100,00 %
01.10.2017 21:10 12,8 C 13,3 C 94 % 1022,0 hPa 0,0 l/m 0,0 km/h (0 Bft) SW 229 0 min 0,000 mm 0,0 UV-I 0 W/m 11,9 C 12,8 C 0,0 km/h (0 Bft) 100,00 %
01.10.2017 21:12 12,8 C 13,3 C 94 % 1022,0 hPa 0,0 l/m 0,0 km/h (0 Bft) SW 229 0 min 0,000 mm 0,0 UV-I 0 W/m 11,9 C 12,8 C 0,0 km/h (0 Bft) 100,00 %
01.10.2017 21:14 12,8 C 13,3 C 94 % 1022,0 hPa 0,0 l/m 0,0 km/h (0 Bft) SW 229 0 min 0,000 mm 0,0 UV-I 0 W/m 11,9 C 12,8 C 0,0 km/h (0 Bft) 100,00 %
01.10.2017 21:16 12,7 C 13,3 C 95 % 1021,9 hPa 0,0 l/m 0,0 km/h (0 Bft) SW 229 0 min 0,000 mm 0,0 UV-I 0 W/m 11,9 C 12,7 C 0,0 km/h (0 Bft) 100,00 %
01.10.2017 21:18 12,7 C 13,3 C 95 % 1022,0 hPa 0,0 l/m 0,0 km/h (0 Bft) SW 229 0 min 0,000 mm 0,0 UV-I 0 W/m 11,9 C 12,7 C 0,0 km/h (0 Bft) 100,00 %
01.10.2017 21:20 12,8 C 13,3 C 95 % 1022,0 hPa 0,0 l/m 0,3 km/h (0 Bft) SW 229 0 min 0,000 mm 0,0 UV-I 0 W/m 12,0 C 12,8 C 3,2 km/h (1 Bft) 100,00 %
01.10.2017 21:22 12,8 C 13,3 C 95 % 1022,0 hPa 0,0 l/m 1,2 km/h (1 Bft) SW 229 0 min 0,000 mm 0,0 UV-I 0 W/m 12,0 C 12,8 C 1,6 km/h (1 Bft) 100,00 %
01.10.2017 21:24 12,8 C 13,3 C 95 % 1022,1 hPa 0,0 l/m 1,0 km/h (0 Bft) SW 229 0 min 0,000 mm 0,0 UV-I 0 W/m 12,0 C 12,8 C 3,2 km/h (1 Bft) 100,00 %
01.10.2017 21:26 12,8 C 13,3 C 95 % 1022,0 hPa 0,0 l/m 0,0 km/h (0 Bft) SW 229 0 min 0,000 mm 0,0 UV-I 0 W/m 12,0 C 12,8 C 0,0 km/h (0 Bft) 100,00 %
01.10.2017 21:28 12,8 C 13,3 C 95 % 1022,1 hPa 0,0 l/m 0,0 km/h (0 Bft) SW 229 0 min 0,000 mm 0,0 UV-I 0 W/m 12,0 C 12,8 C 0,0 km/h (0 Bft) 100,00 %
01.10.2017 21:30 12,8 C 13,3 C 94 % 1022,0 hPa 0,0 l/m 0,0 km/h (0 Bft) SW 229 0 min 0,000 mm 0,0 UV-I 0 W/m 11,9 C 12,8 C 0,0 km/h (0 Bft) 100,00 %
01.10.2017 21:32 12,8 C 13,3 C 94 % 1022,1 hPa 0,0 l/m 0,0 km/h (0 Bft) SW 229 0 min 0,000 mm 0,0 UV-I 0 W/m 11,9 C 12,8 C 0,0 km/h (0 Bft) 100,00 %
01.10.2017 21:34 12,8 C 13,3 C 95 % 1022,0 hPa 0,0 l/m 0,0 km/h (0 Bft) SW 229 0 min 0,000 mm 0,0 UV-I 0 W/m 12,0 C 12,8 C 0,0 km/h (0 Bft) 100,00 %
01.10.2017 21:36 12,8 C 13,3 C 95 % 1022,1 hPa 0,0 l/m 0,0 km/h (0 Bft) SW 229 0 min 0,000 mm 0,0 UV-I 0 W/m 12,0 C 12,8 C 0,0 km/h (0 Bft) 100,00 %
01.10.2017 21:38 12,8 C 13,3 C 95 % 1022,1 hPa 0,0 l/m 0,0 km/h (0 Bft) SW 229 0 min 0,000 mm 0,0 UV-I 0 W/m 12,0 C 12,8 C 0,0 km/h (0 Bft) 97,44 %
01.10.2017 21:40 12,8 C 13,3 C 95 % 1022,1 hPa 0,0 l/m 0,0 km/h (0 Bft) SW 229 0 min 0,000 mm 0,0 UV-I 0 W/m 12,0 C 12,8 C 0,0 km/h (0 Bft) 98,11 %
01.10.2017 21:42 12,8 C 13,3 C 95 % 1022,1 hPa 0,0 l/m 0,0 km/h (0 Bft) SW 229 0 min 0,000 mm 0,0 UV-I 0 W/m 12,0 C 12,8 C 0,0 km/h (0 Bft) 97,14 %
01.10.2017 21:44 12,8 C 13,3 C 95 % 1022,1 hPa 0,0 l/m 0,0 km/h (0 Bft) SW 229 0 min 0,000 mm 0,0 UV-I 0 W/m 12,0 C 12,8 C 0,0 km/h (0 Bft) 100,00 %
01.10.2017 21:46 12,8 C 13,3 C 95 % 1022,1 hPa 0,0 l/m 0,0 km/h (0 Bft) SW 229 0 min 0,000 mm 0,0 UV-I 0 W/m 12,0 C 12,8 C 0,0 km/h (0 Bft) 100,00 %
01.10.2017 21:48 12,8 C 13,3 C 95 % 1022,2 hPa 0,0 l/m 0,0 km/h (0 Bft) SW 229 0 min 0,000 mm 0,0 UV-I 0 W/m 12,0 C 12,8 C 0,0 km/h (0 Bft) 100,00 %
01.10.2017 21:50 12,8 C 13,3 C 95 % 1022,1 hPa 0,0 l/m 0,0 km/h (0 Bft) SW 229 0 min 0,000 mm 0,0 UV-I 0 W/m 12,0 C 12,8 C 0,0 km/h (0 Bft) 98,00 %
01.10.2017 21:52 12,8 C 13,3 C 95 % 1022,1 hPa 0,0 l/m 0,0 km/h (0 Bft) SW 229 0 min 0,000 mm 0,0 UV-I 0 W/m 12,0 C 12,8 C 0,0 km/h (0 Bft) 100,00 %
01.10.2017 21:54 12,8 C 13,3 C 95 % 1022,1 hPa 0,0 l/m 0,2 km/h (0 Bft) SW 229 0 min 0,000 mm 0,0 UV-I 0 W/m 12,0 C 12,8 C 1,6 km/h (1 Bft) 97,37 %
01.10.2017 21:56 12,8 C 13,3 C 95 % 1022,2 hPa 0,0 l/m 0,2 km/h (0 Bft) SW 229 0 min 0,000 mm 0,0 UV-I 0 W/m 12,0 C 12,8 C 3,2 km/h (1 Bft) 100,00 %
01.10.2017 21:58 12,9 C 13,3 C 95 % 1022,1 hPa 0,0 l/m 0,3 km/h (0 Bft) SW 229 0 min 0,000 mm 0,0 UV-I 0 W/m 12,1 C 12,9 C 1,6 km/h (1 Bft) 100,00 %
01.10.2017 22:00 12,9 C 13,3 C 94 % 1022,2 hPa 0,0 l/m 0,0 km/h (0 Bft) SW 229 0 min 0,000 mm 0,0 UV-I 0 W/m 12,0 C 12,9 C 0,0 km/h (0 Bft) 95,74 %
01.10.2017 22:02 12,9 C 13,3 C 94 % 1022,1 hPa 0,0 l/m 0,0 km/h (0 Bft) SW 229 0 min 0,000 mm 0,0 UV-I 0 W/m 12,0 C 12,9 C 0,0 km/h (0 Bft) 98,00 %
01.10.2017 22:04 12,9 C 13,3 C 94 % 1022,2 hPa 0,0 l/m 0,0 km/h (0 Bft) SW 229 0 min 0,000 mm 0,0 UV-I 0 W/m 12,0 C 12,9 C 0,0 km/h (0 Bft) 97,87 %
01.10.2017 22:06 12,9 C 13,3 C 94 % 1022,1 hPa 0,0 l/m 0,9 km/h (0 Bft) SW 229 0 min 0,000 mm 0,0 UV-I 0 W/m 12,0 C 12,9 C 1,6 km/h (1 Bft) 97,87 %
01.10.2017 22:08 12,9 C 13,3 C 94 % 1022,2 hPa 0,0 l/m 1,7 km/h (1 Bft) SW 229 0 min 0,000 mm 0,0 UV-I 0 W/m 12,0 C 12,9 C 3,2 km/h (1 Bft) 94,74 %
01.10.2017 22:10 12,8 C 13,3 C 94 % 1022,2 hPa 0,0 l/m 1,0 km/h (0 Bft) SW 229 0 min 0,000 mm 0,0 UV-I 0 W/m 11,9 C 12,8 C 1,6 km/h (1 Bft) 94,34 %
01.10.2017 22:12 12,8 C 13,3 C 94 % 1022,2 hPa 0,0 l/m 0,0 km/h (0 Bft) SW 229 0 min 0,000 mm 0,0 UV-I 0 W/m 11,9 C 12,8 C 1,6 km/h (1 Bft) 93,62 %
01.10.2017 22:14 12,8 C 13,3 C 94 % 1022,2 hPa 0,0 l/m 0,0 km/h (0 Bft) SW 229 0 min 0,000 mm 0,0 UV-I 0 W/m 11,9 C 12,8 C 0,0 km/h (0 Bft) 91,67 %
01.10.2017 22:16 12,8 C 13,3 C 94 % 1022,2 hPa 0,0 l/m 0,0 km/h (0 Bft) SW 229 0 min 0,000 mm 0,0 UV-I 0 W/m 11,9 C 12,8 C 0,0 km/h (0 Bft) 96,15 %
01.10.2017 22:18 12,8 C 13,3 C 94 % 1022,2 hPa 0,0 l/m 0,0 km/h (0 Bft) SW 229 0 min 0,000 mm 0,0 UV-I 0 W/m 11,9 C 12,8 C 0,0 km/h (0 Bft) 93,62 %
01.10.2017 22:20 12,8 C 13,3 C 94 % 1022,3 hPa 0,0 l/m 0,0 km/h (0 Bft) SW 229 0 min 0,000 mm 0,0 UV-I 0 W/m 11,9 C 12,8 C 0,0 km/h (0 Bft) 94,34 %
01.10.2017 22:22 12,8 C 13,3 C 94 % 1022,3 hPa 0,0 l/m 0,0 km/h (0 Bft) SW 229 0 min 0,000 mm 0,0 UV-I 0 W/m 11,9 C 12,8 C 0,0 km/h (0 Bft) 93,62 %
01.10.2017 22:24 12,8 C 13,3 C 94 % 1022,3 hPa 0,0 l/m 0,0 km/h (0 Bft) SW 229 0 min 0,000 mm 0,0 UV-I 0 W/m 11,9 C 12,8 C 0,0 km/h (0 Bft) 93,18 %
01.10.2017 22:26 12,8 C 13,3 C 94 % 1022,3 hPa 0,0 l/m 0,0 km/h (0 Bft) SW 229 0 min 0,000 mm 0,0 UV-I 0 W/m 11,9 C 12,8 C 0,0 km/h (0 Bft) 93,62 %
01.10.2017 22:28 12,9 C 13,3 C 94 % 1022,3 hPa 0,0 l/m 0,0 km/h (0 Bft) SW 229 0 min 0,000 mm 0,0 UV-I 0 W/m 12,0 C 12,9 C 0,0 km/h (0 Bft) 96,00 %
01.10.2017 22:30 12,8 C 13,3 C 94 % 1022,4 hPa 0,0 l/m 0,0 km/h (0 Bft) SW 229 0 min 0,000 mm 0,0 UV-I 0 W/m 11,9 C 12,8 C 0,0 km/h (0 Bft) 95,74 %
01.10.2017 22:32 12,8 C 13,3 C 94 % 1022,4 hPa 0,0 l/m 0,0 km/h (0 Bft) SW 229 0 min 0,000 mm 0,0 UV-I 0 W/m 11,9 C 12,8 C 0,0 km/h (0 Bft) 95,74 %
01.10.2017 22:34 12,9 C 13,3 C 94 % 1022,5 hPa 0,0 l/m 0,0 km/h (0 Bft) SW 229 0 min 0,000 mm 0,0 UV-I 0 W/m 12,0 C 12,9 C 0,0 km/h (0 Bft) 93,62 %
01.10.2017 22:36 12,9 C 13,3 C 94 % 1022,5 hPa 0,0 l/m 0,0 km/h (0 Bft) SW 229 0 min 0,000 mm 0,0 UV-I 0 W/m 12,0 C 12,9 C 0,0 km/h (0 Bft) 91,43 %
01.10.2017 22:38 12,8 C 13,3 C 94 % 1022,4 hPa 0,0 l/m 0,0 km/h (0 Bft) SW 229 0 min 0,000 mm 0,0 UV-I 0 W/m 11,9 C 12,8 C 0,0 km/h (0 Bft) 96,43 %
01.10.2017 22:40 12,8 C 13,3 C 94 % 1022,5 hPa 0,0 l/m 0,0 km/h (0 Bft) SW 229 0 min 0,000 mm 0,0 UV-I 0 W/m 11,9 C 12,8 C 0,0 km/h (0 Bft) 93,62 %
01.10.2017 22:42 12,8 C 13,3 C 94 % 1022,4 hPa 0,0 l/m 0,0 km/h (0 Bft) SW 229 0 min 0,000 mm 0,0 UV-I 0 W/m 11,9 C 12,8 C 1,6 km/h (1 Bft) 95,74 %
01.10.2017 22:44 12,8 C 13,3 C 94 % 1022,4 hPa 0,0 l/m 1,1 km/h (1 Bft) SW 229 0 min 0,000 mm 0,0 UV-I 0 W/m 11,9 C 12,8 C 3,2 km/h (1 Bft) 95,74 %
01.10.2017 22:46 12,9 C 13,3 C 94 % 1022,4 hPa 0,0 l/m 1,2 km/h (1 Bft) SW 229 0 min 0,000 mm 0,0 UV-I 0 W/m 12,0 C 12,9 C 1,6 km/h (1 Bft) 97,37 %
01.10.2017 22:48 12,8 C 13,3 C 94 % 1022,3 hPa 0,0 l/m 0,1 km/h (0 Bft) SW 229 0 min 0,000 mm 0,0 UV-I 0 W/m 11,9 C 12,8 C 1,6 km/h (1 Bft) 96,23 %
01.10.2017 22:50 12,8 C 13,3 C 94 % 1022,3 hPa 0,0 l/m 0,0 km/h (0 Bft) SW 229 0 min 0,000 mm 0,0 UV-I 0 W/m 11,9 C 12,8 C 0,0 km/h (0 Bft) 100,00 %
01.10.2017 22:52 12,8 C 13,3 C 94 % 1022,2 hPa 0,0 l/m 0,0 km/h (0 Bft) SW 229 0 min 0,000 mm 0,0 UV-I 0 W/m 11,9 C 12,8 C 0,0 km/h (0 Bft) 97,06 %
01.10.2017 22:54 12,8 C 13,3 C 94 % 1022,2 hPa 0,0 l/m 0,0 km/h (0 Bft) SW 229 0 min 0,000 mm 0,0 UV-I 0 W/m 11,9 C 12,8 C 0,0 km/h (0 Bft) 97,87 %
01.10.2017 22:56 12,8 C 13,3 C 94 % 1022,2 hPa 0,0 l/m 0,0 km/h (0 Bft) SW 229 0 min 0,000 mm 0,0 UV-I 0 W/m 11,9 C 12,8 C 0,0 km/h (0 Bft) 97,56 %
01.10.2017 22:58 12,7 C 13,3 C 94 % 1022,2 hPa 0,0 l/m 0,0 km/h (0 Bft) SW 229 0 min 0,000 mm 0,0 UV-I 0 W/m 11,8 C 12,7 C 0,0 km/h (0 Bft) 98,00 %
01.10.2017 23:00 12,7 C 13,3 C 94 % 1022,2 hPa 0,0 l/m 0,0 km/h (0 Bft) SW 229 0 min 0,000 mm 0,0 UV-I 0 W/m 11,8 C 12,7 C 0,0 km/h (0 Bft) 97,87 %
01.10.2017 23:02 12,7 C 13,3 C 94 % 1022,2 hPa 0,0 l/m 0,0 km/h (0 Bft) SW 229 0 min 0,000 mm 0,0 UV-I 0 W/m 11,8 C 12,7 C 0,0 km/h (0 Bft) 98,00 %
01.10.2017 23:04 12,7 C 13,3 C 95 % 1022,2 hPa 0,0 l/m 0,0 km/h (0 Bft) SW 229 0 min 0,000 mm 0,0 UV-I 0 W/m 11,9 C 12,7 C 0,0 km/h (0 Bft) 96,23 %
01.10.2017 23:06 12,7 C 13,3 C 95 % 1022,2 hPa 0,0 l/m 0,0 km/h (0 Bft) SW 229 0 min 0,000 mm 0,0 UV-I 0 W/m 11,9 C 12,7 C 0,0 km/h (0 Bft) 100,00 %
01.10.2017 23:08 12,7 C 13,3 C 95 % 1022,2 hPa 0,0 l/m 0,0 km/h (0 Bft) SW 229 0 min 0,000 mm 0,0 UV-I 0 W/m 11,9 C 12,7 C 0,0 km/h (0 Bft) 100,00 %
01.10.2017 23:10 12,7 C 13,3 C 95 % 1022,2 hPa 0,0 l/m 0,0 km/h (0 Bft) SW 229 0 min 0,000 mm 0,0 UV-I 0 W/m 11,9 C 12,7 C 0,0 km/h (0 Bft) 100,00 %
01.10.2017 23:12 12,7 C 13,3 C 95 % 1022,2 hPa 0,0 l/m 0,0 km/h (0 Bft) SW 229 0 min 0,000 mm 0,0 UV-I 0 W/m 11,9 C 12,7 C 0,0 km/h (0 Bft) 100,00 %
01.10.2017 23:14 12,7 C 13,3 C 95 % 1022,2 hPa 0,0 l/m 0,8 km/h (0 Bft) SW 229 0 min 0,000 mm 0,0 UV-I 0 W/m 11,9 C 12,7 C 3,2 km/h (1 Bft) 100,00 %
01.10.2017 23:16 12,7 C 13,3 C 95 % 1022,2 hPa 0,0 l/m 1,4 km/h (1 Bft) SW 229 0 min 0,000 mm 0,0 UV-I 0 W/m 11,9 C 12,7 C 3,2 km/h (1 Bft) 100,00 %
01.10.2017 23:18 12,7 C 13,3 C 95 % 1022,1 hPa 0,0 l/m 0,7 km/h (0 Bft) SW 229 0 min 0,000 mm 0,0 UV-I 0 W/m 11,9 C 12,7 C 1,6 km/h (1 Bft) 100,00 %
01.10.2017 23:20 12,7 C 13,3 C 95 % 1022,1 hPa 0,0 l/m 0,2 km/h (0 Bft) SW 229 0 min 0,000 mm 0,0 UV-I 0 W/m 11,9 C 12,7 C 1,6 km/h (1 Bft) 100,00 %
01.10.2017 23:22 12,7 C 13,3 C 95 % 1022,1 hPa 0,0 l/m 0,0 km/h (0 Bft) SW 229 0 min 0,000 mm 0,0 UV-I 0 W/m 11,9 C 12,7 C 1,6 km/h (1 Bft) 97,37 %
01.10.2017 23:24 12,7 C 13,3 C 95 % 1022,2 hPa 0,0 l/m 0,0 km/h (0 Bft) SW 229 0 min 0,000 mm 0,0 UV-I 0 W/m 11,9 C 12,7 C 0,0 km/h (0 Bft) 95,74 %
01.10.2017 23:26 12,6 C 13,3 C 95 % 1022,1 hPa 0,0 l/m 0,0 km/h (0 Bft) SW 229 0 min 0,000 mm 0,0 UV-I 0 W/m 11,8 C 12,6 C 0,0 km/h (0 Bft) 97,87 %
01.10.2017 23:28 12,6 C 13,3 C 95 % 1022,1 hPa 0,0 l/m 0,1 km/h (0 Bft) SW 229 0 min 0,000 mm 0,0 UV-I 0 W/m 11,8 C 12,6 C 1,6 km/h (1 Bft) 100,00 %
01.10.2017 23:30 12,6 C 13,3 C 95 % 1022,1 hPa 0,0 l/m 0,1 km/h (0 Bft) SW 229 0 min 0,000 mm 0,0 UV-I 0 W/m 11,8 C 12,6 C 1,6 km/h (1 Bft) 98,00 %
01.10.2017 23:32 12,6 C 13,3 C 95 % 1022,1 hPa 0,0 l/m 0,4 km/h (0 Bft) SW 229 0 min 0,000 mm 0,0 UV-I 0 W/m 11,8 C 12,6 C 1,6 km/h (1 Bft) 100,00 %
01.10.2017 23:34 12,6 C 13,3 C 95 % 1022,0 hPa 0,0 l/m 0,0 km/h (0 Bft) SW 229 0 min 0,000 mm 0,0 UV-I 0 W/m 11,8 C 12,6 C 0,0 km/h (0 Bft) 100,00 %
01.10.2017 23:36 12,6 C 13,3 C 95 % 1022,0 hPa 0,0 l/m 0,1 km/h (0 Bft) SW 229 0 min 0,000 mm 0,0 UV-I 0 W/m 11,8 C 12,6 C 1,6 km/h (1 Bft) 100,00 %
01.10.2017 23:38 12,6 C 13,3 C 95 % 1022,0 hPa 0,0 l/m 0,0 km/h (0 Bft) SW 229 0 min 0,000 mm 0,0 UV-I 0 W/m 11,8 C 12,6 C 0,0 km/h (0 Bft) 98,00 %
01.10.2017 23:40 12,6 C 13,3 C 95 % 1022,0 hPa 0,0 l/m 1,6 km/h (1 Bft) SW 229 0 min 0,000 mm 0,0 UV-I 0 W/m 11,8 C 12,6 C 3,2 km/h (1 Bft) 100,00 %
01.10.2017 23:42 12,5 C 13,3 C 95 % 1022,0 hPa 0,0 l/m 1,9 km/h (1 Bft) SW 229 0 min 0,000 mm 0,0 UV-I 0 W/m 11,7 C 12,5 C 3,2 km/h (1 Bft) 100,00 %
01.10.2017 23:44 12,5 C 13,3 C 95 % 1022,0 hPa 0,0 l/m 2,2 km/h (1 Bft) SW 229 0 min 0,000 mm 0,0 UV-I 0 W/m 11,7 C 12,5 C 3,2 km/h (1 Bft) 100,00 %
01.10.2017 23:46 12,4 C 13,3 C 95 % 1021,9 hPa 0,0 l/m 2,7 km/h (1 Bft) SW 229 0 min 0,000 mm 0,0 UV-I 0 W/m 11,6 C 12,4 C 3,2 km/h (1 Bft) 98,00 %
01.10.2017 23:48 12,4 C 13,3 C 95 % 1021,9 hPa 0,0 l/m 2,5 km/h (1 Bft) SW 229 0 min 0,000 mm 0,0 UV-I 0 W/m 11,6 C 12,4 C 3,2 km/h (1 Bft) 100,00 %
01.10.2017 23:50 12,4 C 13,3 C 95 % 1021,9 hPa 0,0 l/m 2,6 km/h (1 Bft) SW 229 0 min 0,000 mm 0,0 UV-I 0 W/m 11,6 C 12,4 C 3,2 km/h (1 Bft) 98,11 %
01.10.2017 23:52 12,4 C 13,3 C 95 % 1021,9 hPa 0,0 l/m 3,1 km/h (1 Bft) S-SW 198 0 min 0,000 mm 0,0 UV-I 0 W/m 11,6 C 12,4 C 4,8 km/h (1 Bft) 100,00 %
01.10.2017 23:54 12,4 C 13,3 C 95 % 1021,9 hPa 0,0 l/m 1,6 km/h (1 Bft) S-SW 198 0 min 0,000 mm 0,0 UV-I 0 W/m 11,6 C 12,4 C 3,2 km/h (1 Bft) 95,74 %
01.10.2017 23:56 12,4 C 13,3 C 95 % 1021,9 hPa 0,0 l/m 1,0 km/h (0 Bft) S-SW 198 0 min 0,000 mm 0,0 UV-I 0 W/m 11,6 C 12,4 C 3,2 km/h (1 Bft) 100,00 %
01.10.2017 23:58 12,4 C 13,3 C 95 % 1021,9 hPa 0,0 l/m 0,1 km/h (0 Bft) S-SW 198 0 min 0,000 mm 0,0 UV-I 0 W/m 11,6 C 12,4 C 1,6 km/h (1 Bft) 100,00 %
_ Min-Zeit 03:10 00:00 09:58 00:22 - 00:58 - - - - - - 03:40 03:10 00:58 02:24
Minimum _ 8,1 C 13,3 C 77 % 1016,0 hPa - 0,0 km/h (0 Bft) - - - - - - 6,4 C 8,1 C 0,0 km/h (0 Bft) 89,47 %
_ Max-Zeit 16:24 00:00 21:00 22:34 00:00 12:18 - - 07:14 10:00 13:10 09:16 15:34 16:30 12:14 00:00
Maximum _ 14,2 C 13,3 C 95 % 1022,5 hPa 0,0 l/m 11,6 km/h
W-SW (2 Bft)
- - 2 min 0,178 mm 1,1 UV-I 444 W/m 12,7 C 14,2 C 17,7 km/h
SW (3 Bft)
100,00 %
Durchschnitt _ 11,6 C 13,3 C 88 % 1020,0 hPa #0,0 l/m 1,9 km/h (1 Bft) W-SW - #2:08 h #0,813 mm 0,7 UV-I 129 W/m 9,7 C 11,5 C 3,8 km/h (1 Bft) 98,06 %